     2              OBSERVATION DATA    GPS                 RINEX VERSION / TYPE
teqc 2000Jul20 Karen Wendt 20020411 23:20:43UTC             PGM / RUN BY / DATE
                                                            COMMENT
L2: 1 -> 1; 150 -> 5; 250 -> 9                              COMMENT
L2: 1 -> 1; 150 -> 5; 250 -> 9                              COMMENT
L2: 1 -> 1; 150 -> 5; 250 -> 9                              COMMENT
L2: 1 -> 1; 150 -> 5; 250 -> 9                              COMMENT
L2: 1 -> 1; 150 -> 5; 250 -> 9                              COMMENT
L2: 1 -> 1; 150 -> 5; 250 -> 9                              COMMENT
L2: 1 -> 1; 150 -> 5; 250 -> 9                              COMMENT
L2: 1 -> 1; 150 -> 5; 250 -> 9                              COMMENT
L2: 1 -> 1; 150 -> 5; 250 -> 9                              COMMENT
L2: 1 -> 1; 150 -> 5; 250 -> 9                              COMMENT
L2: 1 -> 1; 150 -> 5; 250 -> 9                              COMMENT
L2: 1 -> 1; 150 -> 5; 250 -> 9                              COMMENT
L2: 1 -> 1; 150 -> 5; 250 -> 9                              COMMENT
L2: 1 -> 1; 150 -> 5; 250 -> 9                              COMMENT
Original Marker Name: sprn Spring_1947_USGS                 COMMENT
Campaign Name: USGS Mojave 2002                             COMMENT
4-Character Station Name: SPRN                              COMMENT
6-Character Antenna Code: DMRCHT                            COMMENT
Vertical Measurement Point: BCR                             COMMENT
Vertical Offset to Rinex Ref. Point: 0.0348                 COMMENT
Radial Measurement Point: ECF                               COMMENT
Radial Offset to Rinex Ref. Point: 0.1897                   COMMENT
Antenna Height from Field Measurement: 1.3290 m             COMMENT
Additional Antenna Identification Info.:                    COMMENT
Turborogue and Ashtech Choke Ring                           COMMENT
Original XYZ: -2328605.8913 -4636286.3640 3699138.6707      COMMENT
New XYZ position is based on association with SCEC monument COMMENT
E1F4J8B8+0011. Position of that monument is believed to be  COMMENT
valid to within 1 m horizontally; vertical accuracy         COMMENT
should be no worse than 3-times this value.                 COMMENT
                                                            COMMENT
Revised Rinex header created by UCSD GPS archive for        COMMENT
GSAC on 27-Jun-2003 (2003:178) 16:09:08 GMT                 COMMENT
For assistance contact dagnew@ucsd.edu                      COMMENT
or anderson@python.ucsd.edu                                 COMMENT
                                                            COMMENT
SPRING 1947                                                 MARKER NAME
CHS US GEOLOGICAL SURVEY                                    OBSERVER / AGENCY
LP019992803 ASHTECH Z-XII3 CD00                             REC # / TYPE / VERS
CR14244 DORNE-MARGOL. TYPE T                                ANT # / TYPE
 -2328625.3341 -4636276.9174  3699118.7301                  APPROX POSITION XYZ
        1.2806        0.0000        0.0000                  ANTENNA: DELTA H/E/N
     1     1     0                                          WAVELENGTH FACT L1/2
     5    C1    L1    L2    P1    P2                        # / TYPES OF OBSERV
    30                                                      INTERVAL
  2002     4     3    18    54   30.000000                  TIME OF FIRST OBS
  2002     4     3    23    59   30.000000                  TIME OF LAST OBS
                                                            END OF HEADER
 02  4  3 18 54 30.0000000  0  5G24G30G 5G 9G 4
                    171058.51749    119997.51843
  21135200.582     -129748.67149    -95578.36547  21135200.985    21135208.283
  20348800.856       14205.73149     10565.22948  20348800.369    20348807.658
  23754625.274      303705.96549    224274.94845  23754625.115    23754640.758
  23331487.540      320016.95249    236003.63246  23331487.917    23331497.725
 02  4  3 18 55  0.0000000  0  5G24G30G 5G 9G 4
                    232906.24249     18977.30646                  20878085.560
  21125824.575     -179020.34049   -133971.85247  21125824.936    21125832.221
  20349801.743       19462.46849     14661.36648  20349800.736    20349808.006
  23775021.749      410890.91449    307795.31545  23775022.074    23775037.565
  23352959.604      432843.13849    323920.02546  23352958.234    23352967.872
 02  4  3 18 55 30.0000000  0  5G24G30G 5G 9G 4
  20862723.845      152219.63449    -43895.41047  20862723.697    20862731.540
  21089331.677     -370792.77749   -283404.89047  21089331.909    21089339.179
  20323708.384     -117658.15949    -92185.88848  20323707.560    20323714.849
  23768242.264      375261.30049    280031.60445  23768242.218    23768257.667
  23347255.650      402871.11549    300565.08446  23347254.822    23347264.542
 02  4  3 18 56  0.0000000  0  5G24G30G 5G 9G 4
  20871677.887      199273.11049     -7230.39347  20871677.678    20871685.540
  21077154.166     -434786.25849   -333269.90547  21077154.360    21077161.625
  20321953.852     -126878.10449    -99370.27848  20321953.105    20321960.397
  23785717.108      467090.57349    351586.52345  23785716.870    23785732.428
  23365809.744      500374.94749    376541.96746  23365809.247    23365819.037
 02  4  3 18 56 30.0000000  0  5G24G30G 5G 9G 4
  20880700.124      246685.10449     29713.97447  20880699.892    20880707.765
  21065052.968     -498378.40849   -382822.20247  21065053.177    21065060.427
  20320298.656     -135576.03049   -106147.90348  20320297.950    20320305.274
  23803206.429      558996.46149    423201.10245  23803206.203    23803221.795
  23384381.977      597973.10049    452592.36546  23384381.609    23384391.459
 02  4  3 18 57  0.0000000  0  5G24G30G 5G 9G 4
  20889789.423      294449.40649     66932.87847  20889789.170    20889797.066
  21053027.855     -561570.89549   -432063.06547  21053028.082    21053035.329
  20318742.146     -143755.49949   -112521.52548  20318741.478    20318748.818
  23820708.988      650971.80249    494869.80245  23820708.726    23820724.374
  23402971.035      695659.34049    528711.39646  23402970.740    23402980.613
 02  4  3 18 57 30.0000000  0  5G24G30G 5G 9G 4
  20898946.209      342568.49849    104428.23747  20898945.971    20898953.854
  21041080.086     -624356.91149   -480987.20947  21041080.323    21041087.566
  20317285.411     -151410.93149   -118486.81648  20317284.756    20317292.116
  23838225.082      743018.31449    566593.97145  23838224.860    23838240.576
  23421577.355      793436.16849    604901.01846  23421577.039    23421587.058
 02  4  3 18 58  0.0000000  0  5G24G30G 5G 9G 4
  20908170.159      391040.42549    142198.52847  20908169.915    20908177.810
  21029210.147     -686733.81949   -529592.56447  21029210.390    21029217.654
  20315928.611     -158541.02749   -124042.75448  20315927.966    20315935.346
  23855754.245      835133.40849    638371.56845  23855754.034    23855769.884
  23440200.514      891301.39149    681159.52145  23440200.327    23440210.395
 02  4  3 18 58 30.0000000  0  5G24G30G 5G 9G 4
  20917460.768      439862.60649    180241.74547  20917460.513    20917468.399
  21017418.436     -748699.89549   -577877.79447  21017418.654    21017425.891
  20314671.856     -165145.43849   -129189.06648  20314671.236    20314678.617
  23873295.792      927313.35549    710199.73045  23873295.591    23873311.499
  23458840.029      989252.63749    757485.03645  23458839.923    23458850.007
 02  4  3 18 59  0.0000000  0  5G24G30G 5G 9G 4
  20926817.775      489033.51049    218556.69547  20926817.506    20926825.390
  21005705.395     -810252.34449   -625840.72147  21005705.623    21005712.855
  20313515.411     -171222.84549   -133924.72548  20313514.796    20313522.183
  23890849.156     1019555.71149    782076.48245  23890848.959    23890864.983
  23477495.563     1087287.83849    833875.96345  23477495.518    23477505.703
 02  4  3 18 59 30.0000000  0  5G24G30G 5G 9G 4
  20936240.500      538550.01749    257140.94947  20936240.232    20936248.135
  20994071.417     -871389.33849   -673479.91247  20994071.657    20994078.890
  20312459.303     -176772.98049   -138249.52348  20312458.687    20312466.087
  23908413.805     1111857.02349    853999.17645  23908413.539    23908429.792
  23496166.580     1185404.62849    910330.47845  23496166.562    23496176.806
 02  4  3 19  0  0.0000000  0  5G24G30G 5G 9G 4
  20945728.642      588410.34049    295993.10347  20945728.384    20945736.300
  20982516.945     -932108.67149   -720793.65247  20982517.166    20982524.395
  20311503.648     -181795.06949   -142162.86348  20311503.029    20311510.428
  23925989.206     1204214.78749    925965.86645  23925988.962    23926005.334
  23514852.802     1283600.98049    986846.98745  23514852.876    23514863.103
 02  4  3 19  0 30.0000000  0  6G24G30G 5G10G 9G 4
  20955281.785      638612.22749    335111.41447  20955281.540    20955289.480
  20971042.364     -992408.07249   -767780.17247  20971042.579    20971049.809
  20310648.616     -186288.53749   -145664.28548  20310648.011    20310655.431
  22255967.368     -471470.26849   -348934.52346  22255966.276    22255978.731
  23943574.740     1296625.60449    997973.89545  23943574.538    23943590.887
  23533553.730     1381874.57249   1063423.68145  23533553.770    23533564.107
 02  4  3 19  1  0.0000000  0  6G24G30G 5G10G 9G 4
  20964899.438      689152.93849    374493.73947  20964899.182    20964907.148
  20959648.037    -1052285.60649   -814437.96547  20959648.238    20959655.492
  20309894.252     -190252.85349   -148753.38348  20309893.663    20309901.083
  22239234.943     -559397.16149   -417448.78346  22239234.339    22239246.723
  23961169.818     1389086.15649   1070020.69145  23961169.636    23961186.023
  23552268.964     1480223.02949   1140058.70845  23552269.003    23552279.436
 02  4  3 19  1 30.0000000  0  6G24G30G 5G10G 9G 4
  20974581.708      740033.37049    414140.78747  20974581.439    20974589.445
  20948334.963    -1111736.17849   -860763.06147  20948335.149    20948342.437
  20309241.256     -193684.57049   -151427.47148  20309240.675    20309248.111
  22222564.480     -647001.34649   -485711.58646  22222563.759    22222576.188
  23978774.300     1481596.39649   1142106.18745  23978774.049    23978790.525
  23570998.534     1578646.99849   1216752.57345  23570998.577    23571009.040
 02  4  3 19  2  0.0000000  0  6G24G30G 5G10G 9G 4
  20984328.176      791251.02949    454050.60947  20984327.902    20984335.938
  20937103.485    -1170757.89749   -906753.98547  20937103.695    20937110.982
  20308689.651     -196583.32949   -153686.27048  20308689.067    20308696.540
  22205955.807     -734280.10149   -553720.81246  22205955.067    22205967.472
  23996387.543     1574152.98149   1214227.78545  23996387.346    23996403.890
  23589742.019     1677143.99649   1293503.35945  23589742.041    23589752.515
 02  4  3 19  2 30.0000000  0  6G24G30G 5G10G 9G 4
  20994137.978      842801.59049    494219.83547  20994137.701    20994145.745
  20925953.637    -1229350.67149   -952410.66747  20925953.844    20925961.171
  20308239.222     -198950.64549   -155530.95348  20308238.649    20308246.128
  22189409.230     -821232.66549   -621475.86046  22189408.452    22189420.861
  24014008.693     1666750.93549   1286381.62645  24014008.477    24014025.147
  23608498.687     1775710.02049   1370307.91745  23608498.726    23608509.150
 02  4  3 19  3  0.0000000  0  6G24G30G 5G10G 9G 4
  21004010.492      894681.75949    534645.90047  21004010.216    21004018.290
  20914885.662    -1287513.24949   -997732.13447  20914885.866    20914893.205
  20307889.847     -200786.77949   -156961.73448  20307889.271    20307896.767
  22172925.177     -907856.66849   -688974.90646  22172924.384    22172936.750
  24031636.996     1759386.33949   1358564.64945  24031636.783    24031653.492
  23627267.876     1874341.80749   1447163.71945  23627267.893    23627278.317
 02  4  3 19  3 30.0000000  0  6G24G30G 5G10G 9G 4
  21013945.327      946889.46449    575327.18847  21013945.069    21013953.176
  20903900.020    -1345243.22949  -1042716.50947  20903900.251    20903907.579
  20307641.756     -202090.78149   -157977.86548  20307641.173    20307648.695
  22156504.319     -994148.47649   -756215.09146  22156503.502    22156515.836
  24049271.933     1852056.60849   1430774.83545  24049271.665    24049288.507
  23646049.169     1973037.56749   1524069.33645  23646049.131    23646059.660
 02  4  3 19  4  0.0000000  0  6G24G30G 5G10G 9G 4
  21023942.187      999423.19549    616262.52747  21023941.938    21023950.074
  20892997.237    -1402537.78649  -1087361.59447  20892997.469    20893004.790
  20307495.082     -202861.67949   -158578.59148  20307494.514    20307502.025
  22140147.335    -1080104.66849   -823193.75246  22140146.496    22140158.808
  24066912.997     1944759.13649   1503010.15645  24066912.772    24066929.681
  23664842.407     2071795.88449   1601023.71745  23664842.370    23664852.832
 02  4  3 19  4 30.0000000  0  6G24G30G 5G10G 9G 4
  21034000.608     1052280.25849    657449.81147  21034000.354    21034008.515
  20882177.585    -1459395.60549  -1131666.36247  20882177.809    20882185.145
  20307449.842     -203099.64449   -158764.04648  20307449.265    20307456.790
  22123854.650    -1165722.86549   -889909.05146  22123853.795    22123866.043
  24084559.458     2037490.48749   1575267.92545  24084559.256    24084576.307
  23683646.957     2170613.63449   1678024.40445  23683646.883    23683657.418
 02  4  3 19  5  0.0000000  0  6G24G30G 5G10G 9G 4
  21044120.467     1105459.97449    698888.51747  21044120.208    21044128.357
  20871441.782    -1515812.68049  -1175627.69347  20871442.021    20871449.314
  20307506.454     -202802.38649   -158532.44248  20307505.876    20307513.410
  22107627.244    -1250998.03249   -956357.05246  22107626.419    22107638.575
  24102211.264     2130249.53349   1647547.27745  24102211.056    24102228.231
  23702462.781     2269490.69549   1755071.31745  23702462.776    23702473.260
 02  4  3 19  5 30.0000000  0  6G24G30G 5G10G 9G 4
  21054301.170     1158959.49949    740576.41947  21054300.901    21054309.006
  20860790.178    -1571787.37949  -1219244.32447  20860790.405    20860797.678
  20307664.987     -201969.75649   -157883.67448  20307664.406    20307671.895
  22091465.623    -1335927.49649  -1022535.69146  22091464.797    22091476.814
  24119867.620     2223032.65449   1719845.38445  24119867.332    24119884.687
  23721289.400     2368424.54049   1832162.48245  23721289.372    23721299.901
 02  4  3 19  6  0.0000000  0  6G24G30G 5G10G 9G 4
  21064542.605     1212778.10249    782512.95947  21064542.321    21064550.405
  20850223.440    -1627316.14749  -1262513.47147  20850223.650    20850230.887
  20307925.758     -200599.84749   -156816.24148  20307925.166    20307932.622
  22075370.625    -1420507.05149  -1088441.67346  22075369.780    22075381.698
  24137528.307     2315838.50649   1792161.20545  24137528.066    24137545.497
  23740126.705     2467414.58549   1909297.43845  23740126.712    23740137.191
 02  4  3 19  6 30.0000000  0  6G24G30G 5G10G 9G 4
  21074843.848     1266911.29649    824694.63247  21074843.579    21074851.687
  20839741.490    -1682399.12449  -1305435.25247  20839741.707    20839748.954
  20308288.369     -198694.65849   -155331.70948  20308287.785    20308295.234
  22059342.328    -1504735.86849  -1154074.35546  22059341.466    22059353.310
  24155192.198     2408661.67649   1864490.51245  24155191.977    24155209.509
  23758973.818     2566456.31149   1986472.66245  23758973.815    23758984.421
 02  4  3 19  7  0.0000000  0  7G24G 6G30G 5G10G 9G 4
  21085204.864     1321358.55349    867121.03447  21085204.596    21085212.708
  23368131.389     -576644.48849   -439817.88946  23368130.010    23368141.410
  20829345.105    -1737032.39749  -1348006.61447  20829345.344    20829352.599
  20308753.303     -196251.64149   -153428.08948  20308752.723    20308760.189
  22043381.698    -1588608.99549  -1219429.89046  22043380.855    22043392.642
  24172859.216     2501501.03449   1936832.43745  24172859.088    24172876.686
  23777830.686     2665549.39749   2063687.88845  23777830.750    23777841.352
 02  4  3 19  7 30.0000000  0  7G24G 6G30G 5G10G 9G 4
  21095625.054     1376116.80449    909789.76747  21095624.783    21095632.889
  23354827.684     -646543.23449   -494284.30846  23354828.699    23354840.098
  20819034.492    -1791214.83449  -1390226.67247  20819034.732    20819042.010
  20309320.424     -193271.53649   -151105.95948  20309319.840    20309327.340
  22027489.158    -1672124.32149  -1284506.62346  22027488.278    22027500.070
  24190528.628     2594352.73449   2009183.97745  24190528.525    24190546.269
  23796696.802     2764691.12849   2140941.03845  23796696.929    23796707.607
 02  4  3 19  8  0.0000000  0  7G24G 6G30G 5G10G 9G 4
  21106103.676     1431182.04049    952697.71247  21106103.408    21106111.537
  23341533.665     -716406.95949   -548723.42746  23341534.043    23341545.384
  20808809.845    -1844945.79149  -1432094.93147  20808810.091    20808817.368
  20309989.635     -189755.01049   -148365.84048  20309989.057    20309996.571
  22011665.006    -1755280.02249  -1349303.13146  22011664.172    22011675.896
  24208199.675     2687212.65549   2081541.91745  24208199.591    24208217.395
  23815571.588     2863878.15549   2218229.46245  23815571.742    23815582.448
 02  4  3 19  8 30.0000000  0  7G24G 6G30G 5G10G 9G 4
  21116640.624     1486553.84649    995844.53947  21116640.364    21116648.486
  23328246.084     -786234.55149   -603134.40446  23328246.251    23328257.590
  20798671.784    -1898221.84149  -1473608.71747  20798672.039    20798679.291
  20310761.202     -185700.59349   -145206.58348  20310760.643    20310768.138
  21995910.160    -1838072.04849  -1413816.25246  21995909.299    21995920.951
  24225871.969     2780079.01749   2153904.87945  24225871.817    24225889.722
  23834454.767     2963109.33449   2295552.30045  23834454.949    23834465.661
 02  4  3 19  9  0.0000000  0  7G24G 6G30G 5G10G 9G 4
  21127235.493     1542230.01849   1039228.53447  21127235.249    21127243.358
  23314965.332     -856025.46549   -657516.79246  23314965.415    23314976.709
  20788620.734    -1951040.62949  -1514766.19247  20788620.987    20788628.181
  20311635.259     -181107.78949   -141627.80848  20311634.688    20311642.159
  21980225.172    -1920496.95449  -1478043.31946  21980224.338    21980235.897
  24243544.992     2872949.20049   2226270.82045  24243544.802    24243562.725
  23853346.131     3062383.18249   2372908.36345  23853346.252    23853357.056
 02  4  3 19  9 30.0000000  0  7G24G 6G30G 5G10G 9G 4
  21137888.323     1598210.69049   1082849.79847  21137888.064    21137896.196
  23301692.086     -925777.25049   -711868.68946  23301692.064    23301703.345
  20778657.477    -2003397.93049  -1555564.07347  20778657.715    20778664.938
  20312612.224     -175973.97749   -137627.46948  20312611.661    20312619.144
  21964610.993    -2002549.47849  -1541980.22647  21964610.167    21964621.665
  24261218.583     2965822.61149   2298639.28545  24261218.347    24261236.393
  23872245.599     3161699.86649   2450297.82445  23872245.738    23872256.551
 02  4  3 19 10  0.0000000  0  7G24G 6G30G 5G10G 9G 4
  21148598.632     1654493.67149   1126706.62847  21148598.380    21148606.530
  23288426.233     -995489.73949   -766189.97646  23288426.158    23288437.410
  20768782.455    -2055291.55549  -1596000.64447  20768782.691    20768789.903
  20313692.210     -170298.75349   -133205.25448  20313691.654    20313699.131
  21949068.324    -2084226.41649  -1605624.46047  21949067.517    21949078.959
  24278892.205     3058696.44949   2371008.06345  24278892.012    24278910.108
  23891152.856     3261057.54549   2527719.22945  23891152.989    23891163.938
 02  4  3 19 10 30.0000000  0  7G24G 6G30G 5G10G 9G 4
  21159365.917     1711075.78849   1170796.55647  21159365.676    21159373.842
  23275167.712    -1065163.43549   -820481.01646  23275167.617    23275178.862
  20758995.879    -2106720.35849  -1636075.01647  20758996.136    20759003.341
  20314875.142     -164082.62549   -128361.55048  20314874.575    20314882.058
  21933597.494    -2165525.85849  -1668974.53147  21933596.667    21933608.108
  24296565.163     3151566.88249   2443374.19145  24296564.898    24296583.259
  23910067.431     3360453.40549   2605170.38845  23910067.545    23910078.508
 02  4  3 19 11  0.0000000  0  7G24G 6G30G 5G10G 9G 4
  21170189.641     1767954.72749   1215117.76947  21170189.403    21170197.610
  23261916.576    -1134798.19349   -874741.73346  23261916.430    23261927.727
  20749298.183    -2157682.10749  -1675785.45347  20749298.450    20749305.656
  20316161.107     -157325.15549   -123096.02548  20316160.555    20316168.060
  21918199.058    -2246444.67049  -1732027.99747  21918198.218    21918209.683
  24314236.947     3244431.11949   2515735.49845  24314236.723    24314255.222
  23928988.881     3459885.65249   2682649.92545  23928988.995    23929000.037
 02  4  3 19 11 30.0000000  0  7G24G 6G30G 5G10G 9G 4
  21181069.389     1825127.97549   1259668.31647  21181069.151    21181077.395
  23248672.822    -1204394.29949   -928972.32346  23248672.659    23248683.919
  20739689.719    -2208175.10749  -1715130.63047  20739689.981    20739697.178
  20317550.051     -150026.47549   -117408.77848  20317549.503    20317557.007
  21902873.641    -2326979.77249  -1794782.46647  21902872.777    21902884.287
  24331906.946     3337286.04749   2588089.56045  24331906.751    24331925.415
  23947916.841     3559351.88649   2760155.92545  23947916.932    23947928.068
 02  4  3 19 12  0.0000000  0  7G24G 6G30G 5G10G 9G 4
  21192004.744     1882593.40349   1304446.53347  21192004.510    21192012.777
  23235436.451    -1273951.39649   -983172.52646  23235436.272    23235447.534
  20730170.834    -2258197.28749  -1754108.93847  20730171.091    20730178.262
  20319042.064     -142185.97249   -111299.33148  20319041.520    20319049.041
  21887621.772    -2407128.13849  -1857235.58847  21887620.926    21887632.438
  24349574.702     3430129.09849   2660434.35945  24349574.520    24349593.244
  23966850.908     3658850.36849   2837687.06145  23966851.044    23966862.199
 02  4  3 19 12 30.0000000  0  7G24G 6G30G 5G10G 9G 4
  21202995.279     1940348.90149   1349450.78047  21202995.042    21203003.310
  23222207.528    -1343469.42749  -1037342.27946  23222207.371    23222218.637
  20720741.907    -2307746.80549  -1792718.93447  20720742.139    20720749.303
  20320637.182     -133803.85849   -104767.84648  20320636.636    20320644.164
  21872443.966    -2486887.47449  -1919385.57747  21872443.143    21872454.610
  24367239.624     3522957.14849   2732767.46445  24367239.441    24367258.280
  23985790.725     3758378.84849   2915241.59145  23985790.862    23985802.017
 02  4  3 19 13  0.0000000  0  7G24G 6G30G 5G10G 9G 4
  21214040.583     1998391.99249   1394679.12147  21214040.335    21214048.593
  23208986.141    -1412948.16749  -1091481.41646  23208985.963    23208997.186
  20711403.247    -2356821.69549  -1830959.09347  20711403.504    20711410.672
  20322335.419     -124879.90449    -97814.15148  20322334.860    20322342.395
  21857340.865    -2566254.46749  -1981229.82847  21857340.019    21857351.448
  24384901.236     3615767.14849   2805086.50745  24384900.963    24384919.888
  24004735.907     3857935.39849   2992817.97345  24004736.057    24004747.097
 02  4  3 19 13 30.0000000  0  7G24G 6G30G 5G10G 9G 4
  21225140.294     2056721.01649   1440130.26847  21225140.061    21225148.287
  23195772.426    -1482386.66749  -1145589.20546  23195772.221    23195783.342
  20702155.387    -2405419.48949  -1868827.49347  20702155.646    20702162.805
  20324136.914     -115413.19349    -90437.52848  20324136.343    20324143.893
  21842313.077    -2645225.52449  -2042765.56947  21842312.252    21842323.597
  24402558.817     3708556.67149   2877389.59845  24402558.470    24402577.511
  24023686.135     3957518.61549   3070415.14845  24023686.248    24023697.343
 02  4  3 19 14  0.0000000  0  7G24G 6G30G 5G10G 9G 4
  21236293.893     2115333.34749   1485802.17147  21236293.660    21236301.886
  23182566.186    -1551785.27549  -1199665.90946  23182566.044    23182577.158
  20692998.616    -2453538.68849  -1906322.95747  20692998.885    20693006.036
  20326041.590     -105404.15049    -82638.30448  20326041.035    20326048.617
  21827361.110    -2723798.17349  -2103990.86047  21827360.293    21827371.574
  24420211.913     3801322.74349   2949674.40645  24420211.588    24420230.796
  24042640.960     4057126.39649   3148031.44145  24042641.195    24042652.195
 02  4  3 19 14 30.0000000  0  7G24G 6G30G 5G10G 9G 4
  21247501.106     2174227.56849   1531693.72947  21247500.871    21247509.101
  23169367.813    -1621142.81049  -1253710.60246  23169367.651    23169378.722
  20683933.458    -2501176.32949  -1943443.18447  20683933.731    20683940.866
  20328049.706      -94851.57449    -74415.55148  20328049.154    20328056.755
  21812485.632    -2801968.77149  -2164902.86947  21812484.821    21812496.024
  24437860.160     3894063.40749   3021939.42045  24437859.871    24437879.207
  24061600.257     4156757.60449   3225665.97145  24061600.440    24061611.595
 02  4  3 19 15  0.0000000  0  7G24G 6G30G 5G10G 9G 4
  21258761.513     2233401.15749   1577802.97547  21258761.276    21258769.513
  23156177.146    -1690459.72749  -1307723.66346  23156176.982    23156188.051
  20674960.193    -2548331.13649  -1980187.17547  20674960.463    20674967.603
  20330161.127      -83756.09449    -65769.75748  20330160.573    20330168.194
  21797687.140    -2879735.00349  -2225499.78647  21797686.316    21797697.459
  24455502.985     3986775.16449   3094181.91045  24455502.757    24455522.144
  24080563.558     4256409.70949   3303316.81345  24080563.752    24080574.964
 02  4  3 19 15 30.0000000  0  7G24G 6G30G 5G10G 9G 4
  21270074.515     2292851.16649   1624127.61547  21270074.284    21270082.532
  23142994.245    -1759735.87349  -1361704.95446  23142994.099    23143005.082
  20666079.165    -2595001.30849  -2016553.52747  20666079.421    20666086.575
  20332375.856      -72117.82249    -56701.00748  20332375.309    20332382.933
  21782966.096    -2957093.96949  -2285779.34347  21782965.267    21782976.373
  24473139.791     4079455.03049   3166399.55045  24473139.497    24473159.101
  24099530.450     4356080.74149   3380982.38845  24099530.652    24099541.863
 02  4  3 19 16  0.0000000  0  7G24G 6G30G 5G10G 9G 4
  21281439.838     2352576.13349   1670666.51347  21281439.606    21281447.861
  23129819.263    -1828970.50049  -1415653.87846  23129819.080    23129830.024
  20657290.800    -2641184.41849  -2052540.35247  20657291.065    20657298.236
  20334694.029      -59935.90649    -47208.63648  20334693.485    20334701.100
  21768323.297    -3034041.97049  -2345738.64947  21768322.474    21768333.549
  24490770.074     4172100.75049   3238590.58045  24490769.782    24490789.384
  24118500.716     4455769.40449   3458661.68645  24118500.819    24118512.084
 02  4  3 19 16 30.0000000  0  7G24G 6G30G 5G10G 9G 4
  21292856.987     2412573.49349   1717417.66847  21292856.762    21292865.019
  23116652.129    -1898163.89249  -1469570.69046  23116651.955    23116662.833
  20648595.389    -2686879.04149  -2088146.53247  20648595.645    20648602.812
  20337115.542      -47211.03249    -37293.18148  20337114.998    20337122.618
  21753759.018    -3110577.08549  -2405376.21547  21753758.197    21753769.264
  24508393.181     4264708.84349   3310752.28845  24508392.961    24508412.482
  24137473.851     4555473.25049   3536352.84345  24137474.014    24137485.277
 02  4  3 19 17  0.0000000  0  7G24G 6G30G 5G10G 9G 4
  21304325.764     2472842.24349   1764380.28847  21304325.542    21304333.794
  23103493.152    -1967314.53549  -1523454.18846  23103492.955    23103503.790
  20639993.548    -2732082.03049  -2123369.62747  20639993.810    20640000.998
  20339640.611      -33941.86149    -26953.60448  20339640.070    20339647.683
  21739274.087    -3186695.37549  -2464689.00947  21739273.255    21739284.305
  24526008.855     4357277.95149   3382883.61245  24526008.706    24526028.282
  24156449.744     4655191.64349   3614055.28845  24156449.927    24156461.303
 02  4  3 19 17 30.0000000  0  7G24G 6G30G 5G10G 9G 4
  21315845.812     2533380.27549   1811552.73847  21315845.577    21315853.833
  23090342.327    -2036422.13549  -1577304.13646  23090342.109    23090352.929
  20631485.588    -2776791.63849  -2158208.26347  20631485.840    20631493.047
  20342269.269      -20128.40049    -16189.90448  20342268.720    20342276.352
  21724869.144    -3262393.38849  -2523674.30647  21724868.307    21724879.323
  24543616.642     4449805.30449   3454982.41045  24543616.478    24543636.124
  24175428.085     4754922.85749   3691767.73745  24175428.269    24175439.672
 02  4  3 19 18  0.0000000  0  7G24G 6G30G 5G10G 9G 4
  21327416.491     2594184.21949   1858932.39847  21327416.247    21327424.499
  23077199.513    -2105487.19049  -1631120.94946  23077199.318    23077210.129
  20623071.737    -2821006.65849  -2192661.50747  20623071.984    20623079.198
  20345001.309       -5771.52049     -5002.76048  20345000.769    20345008.414
  21710544.548    -3337669.07449  -2582330.54147  21710543.704    21710554.671
  24561215.708     4542287.40849   3527045.92645  24561215.544    24561235.270
  24194408.370     4854664.21249   3769488.08945  24194408.460    24194419.960
 02  4  3 19 18 30.0000000  0  7G24G 6G30G 5G10G 9G 4
  21339037.353     2655252.02049   1906517.65747  21339037.092    21339045.347
  23064064.927    -2174509.21049  -1684904.22646  23064064.770    23064075.561
  20614752.436    -2864725.03649  -2226727.75747  20614752.664    20614759.908
  20347836.869        9129.17249      6608.13348  20347836.316    20347843.974
  21696300.912    -3412519.35449  -2640655.28447  21696300.064    21696310.999
  24578805.809     4634721.81249   3599072.30145  24578805.566    24578825.494
  24213390.322     4954414.27149   3847215.25045  24213390.409    24213401.817
 02  4  3 19 19  0.0000000  0  7G24G 6G30G 5G10G 9G 4
  21350708.036     2716581.59949   1954306.89847  21350707.782    21350716.023
  23050938.553    -2243488.27049  -1738654.02746  23050938.378    23050949.224
  20606527.909    -2907945.06649  -2260405.68447  20606528.167    20606535.378
  20350775.812       24573.27449     18642.46148  20350775.261    20350782.899
  21682138.650    -3486941.75849  -2698646.62647  21682137.819    21682148.712
  24596386.170     4727105.24949   3671058.94245  24596386.015    24596405.964
  24232373.548     5054171.04449   3924947.61945  24232373.647    24232385.138
 02  4  3 19 19 30.0000000  0  7G24G 6G30G 5G10G 9G 4
  21362428.236     2778171.31749   2002298.84647  21362427.989    21362436.226
  23037820.631    -2312422.91549  -1792369.21746  23037820.439    23037831.260
  20598398.712    -2950664.22549  -2293693.32647  20598398.955    20598406.176
  20353818.391       40561.70949     31100.94648  20353817.835    20353825.453
  21668058.596    -3560932.57949  -2756301.66547  21668057.736    21668068.601
  24613956.442     4819435.79649   3743004.36145  24613956.302    24613976.336
  24251357.873     5153933.48749   4002684.40545  24251357.954    24251369.433
 02  4  3 19 20  0.0000000  0  7G24G 6G30G 5G10G 9G 4
  21374197.455     2840018.78749   2050491.64147  21374197.221    21374205.455
  23024711.144    -2381313.51849  -1846050.09246  23024710.945    23024721.716
  20590365.130    -2992881.06849  -2326589.55447  20590365.387    20590372.561
  20356964.427       57093.80549     43983.06148  20356963.867    20356971.461
  21654061.050    -3634489.64449  -2813618.71547  21654060.187    21654071.007
  24631516.034     4911710.33449   3814906.14045  24631515.766    24631536.166
  24270342.781     5253699.27649   4080423.81645  24270342.861    24270354.375
 02  4  3 19 20 30.0000000  0  7G24G 6G30G 5G10G 9G 4
  21386015.439     2902122.37449   2098884.00747  21386015.180    21386023.444
  23011610.169    -2450159.35549  -1899696.07846  23011609.934    23011620.681
  20582427.568    -3034593.47649  -2359092.71847  20582427.802    20582434.962
  20360213.946       74169.94249     57289.10548  20360213.377    20360220.959
  21640146.733    -3707609.43949  -2870595.03647  21640145.849    21640156.612
  24649064.553     5003926.47649   3886762.39945  24649064.247    24649084.859
  24289328.104     5353467.12149   4158164.79645  24289328.208    24289339.653
 02  4  3 19 21  0.0000000  0  7G24G 6G30G 5G10G 9G 4
  21397881.588     2964479.36749   2147473.83147  21397881.335    21397889.613
  22998517.758    -2518960.34749  -1953307.12646  22998517.528    22998528.235
  20574586.259    -3075799.79249  -2391201.52247  20574586.480    20574593.617
  20363566.909       91789.71949     71018.76348  20363566.336    20363573.935
  21626316.073    -3780289.52149  -2927228.72347  21626315.204    21626325.919
  24666601.390     5096081.25449   3958570.84845  24666601.036    24666621.769
  24308313.499     5453235.18549   4235905.96145  24308313.594    24308325.129
 02  4  3 19 21 30.0000000  0  7G24G 6G30G 5G10G 9G 4
  21409795.709     3027088.27349   2196259.94947  21409795.467    21409803.759
  22985433.990    -2587715.62949  -2006882.55646  22985433.755    22985444.426
  20566841.664    -3116497.79749  -2422914.24347  20566841.902    20566849.028
  20367023.431      109953.60549     85172.40048  20367022.853    20367030.457
  21612569.728    -3852526.65849  -2983517.26147  21612568.840    21612579.537
  24684126.078     5188172.55849   4030329.83345  24684125.734    24684146.598
  24327298.770     5553002.23549   4313646.34945  24327298.741    24327310.374
 02  4  3 19 22  0.0000000  0  8G24G 6G30G23G 5G10G 9G 4
  21421756.091     3089940.23749   2245235.46047  21421755.837    21421764.161
  22972357.762    -2656431.25549  -2060427.09246  22972357.528    22972368.171
  20559192.941    -3156692.09849  -2454234.46547  20559193.187    20559200.300
  24484198.737    -2032198.68449  -1345856.37644  24484197.763    24484224.355
  20370582.237      128655.01649     99744.89048  20370581.660    20370589.275
  21598906.980    -3924324.32749  -3039463.36347  21598906.099    21598916.752
  24701637.041     5280191.33849   4102032.30645  24701636.712    24701657.672
  24346282.218     5652759.86849   4391379.39245  24346282.239    24346293.873
 02  4  3 19 22 30.0000000  0  8G24G 6G30G23G 5G10G 9G 4
  21433763.265     3153038.22149   2294402.67347  21433763.034    21433771.378
  22959290.122    -2725101.72649  -2113936.43746  22959289.885    22959300.577
  20551641.336    -3196375.95049  -2485156.93847  20551641.575    20551648.720
  24464276.803    -2136886.62649  -1427430.78644  24464276.254    24464302.394
  20374244.232      147898.79349    114740.00048  20374243.665    20374251.308
  21585329.336    -3995674.74349  -3095060.95547  21585328.478    21585339.088
  24719134.667     5372139.85349   4173680.03345  24719134.408    24719155.236
  24365264.528     5752511.84649   4469108.00645  24365264.488    24365276.259
 02  4  3 19 23  0.0000000  0  8G24G 6G30G23G 5G10G 9G 4
  21445817.757     3216384.71349   2343763.53247  21445817.509    21445825.872
  22946232.032    -2793722.04349  -2167406.70646  22946231.814    22946242.438
  20544188.109    -3235543.01149  -2515676.71347  20544188.354    20544195.496
  24444353.183    -2241583.31349  -1509012.00944  24444352.648    24444378.510
  20378010.223      167689.24049    130161.08848  20378009.667    20378017.341
  21571838.180    -4066570.66949  -3150304.39547  21571837.338    21571847.908
  24736619.221     5464019.90149   4245274.38945  24736618.944    24736639.871
  24384246.315     5852260.89249   4546834.36645  24384246.258    24384258.006
 02  4  3 19 23 30.0000000  0  8G24G 6G30G23G 5G10G 9G 4
  21457918.825     3279976.01049   2393315.14247  21457918.582    21457926.950
  22933183.276    -2862293.45649  -2220838.87146  22933183.077    22933193.636
  20536833.275    -3274192.92449  -2545793.52147  20536833.526    20536840.651
  24424428.143    -2346287.87949  -1590599.38544  24424427.531    24424453.211
  20381879.964      188024.52049    146006.72048  20381879.398    20381887.098
  21558433.762    -4137010.84049  -3205192.72247  21558432.898    21558443.453
  24754089.921     5555827.26649   4316812.09345  24754089.720    24754110.744
  24403226.828     5952003.64749   4624555.84245  24403226.828    24403238.528
 02  4  3 19 24  0.0000000  0  8G24G 6G30G23G 5G10G 9G 4
  21470065.888     3343809.00349   2443055.09247  21470065.653    21470074.031
  22920143.728    -2930816.51049  -2274233.35646  22920143.535    22920154.075
  20529577.030    -3312324.92949  -2575506.75947  20529577.249    20529584.398
  24404501.909    -2450998.50449  -1672191.49445  24404501.307    24404527.046
  20385853.165      208903.63249    162276.11848  20385852.598    20385860.313
  21545116.390    -4206993.50349  -3259724.55347  21545115.537    21545126.057
  24771546.258     5647558.65349   4388290.61445  24771546.055    24771567.111
  24422205.719     6051737.69849   4702270.50645  24422205.609    24422217.438
 02  4  3 19 24 30.0000000  0  8G24G 6G30G23G 5G10G 9G 4
  21482258.458     3407881.38049   2492981.56847  21482258.212    21482266.635
  22907113.382    -2999291.03149  -2327590.01946  22907113.166    22907123.698
  20522419.574    -3349937.70449  -2604815.40848  20522419.784    20522426.916
  24384575.040    -2555712.84149  -1753786.52145  24384574.342    24384600.094
  20389929.777      230326.14549    178968.94348  20389929.206    20389936.928
  21531886.578    -4276516.09749  -3313897.89847  21531885.716    21531896.220
  24788987.489     5739210.93849   4459707.49445  24788987.141    24789008.492
  24441182.573     6151461.01049   4779976.80145  24441182.511    24441194.376
 02  4  3 19 25  0.0000000  0  8G24G 6G30G23G 5G10G 9G 4
  21494496.118     3472190.37749   2543092.42547  21494495.880    21494504.309
  22894092.215    -3067717.25749  -2380909.05646  22894092.010    22894102.528
  20515361.097    -3387030.19749  -2633718.63948  20515361.311    20515368.459
  24364647.771    -2660428.99049  -1835382.97345  24364647.037    24364672.756
  20394109.575      252291.01149    196084.38048  20394109.002    20394116.716
  21518744.673    -4345576.65949  -3367711.22447  21518743.854    21518754.320
  24806413.078     5830781.05149   4531060.33545  24806412.818    24806434.160
  24460156.959     6251171.43549   4857673.03345  24460156.826    24460168.714
 02  4  3 19 25 30.0000000  0  8G24G 6G30G23G 5G10G 9G 4
  21506778.513     3536734.61149   2593386.58347  21506778.257    21506786.715
  22881080.539    -3136093.67749  -2434189.26446  22881080.348    22881090.831
  20508402.180    -3423599.60349  -2662214.27648  20508402.398    20508409.535
  24344720.948    -2765143.01949  -1916977.79145  24344720.301    24344745.674
  20398392.821      274799.26949    213623.23748  20398392.257    20398399.972
  21505691.500    -4414171.22249  -3421161.43447  21505690.650    21505701.134
  24823822.648     5922267.51349   4602347.99045  24823822.384    24823843.902
  24479128.762     6350868.36149   4935358.78545  24479128.661    24479140.561
 02  4  3 19 26  0.0000000  0  8G24G 6G30G23G 5G10G 9G 4
  21519105.162     3601511.32249   2643861.89147  21519104.904    21519113.363
  22868078.192    -3204421.01249  -2487431.24546  22868078.009    22868088.446
  20501542.875    -3459645.28849  -2690301.81848  20501543.117    20501550.267
  24324794.904    -2869853.39449  -1998569.75545  24324794.246    24324819.432
  20402779.135      297849.30149    231584.25748  20402778.580    20402786.293
  21492727.291    -4482298.06249  -3474247.15747  21492726.435    21492736.914
  24841215.720     6013666.55949   4673567.54045  24841215.463    24841237.107
  24498097.577     6450549.25649   5013032.05145  24498097.489    24498109.486
 02  4  3 19 26 30.0000000  0  8G24G 6G30G23G 5G10G 9G 4
  21531475.664     3666518.38949   2694516.69547  21531475.420    21531483.880
  22855085.374    -3272698.58949  -2540634.46046  22855085.174    22855095.543
  20494783.632    -3495165.30049  -2717979.74348  20494783.876    20494791.012
  24304870.055    -2974557.12549  -2080156.56745  24304869.459    24304894.425
  20407268.574      321441.19949    249967.51048  20407268.002    20407275.744
  21479852.630    -4549954.53949  -3526966.35947  21479851.778    21479862.251
  24858591.591     6104975.65849   4744717.00245  24858591.344    24858613.123
  24517063.051     6550212.71549   5090691.70645  24517063.050    24517075.099
 02  4  3 19 27  0.0000000  0  8G24G 6G30G23G 5G10G 9G 4
  21543888.705     3731749.12349   2745345.78047  21543888.456    21543896.927
  22842101.267    -3340930.20149  -2593801.85246  22842101.092    22842111.370
  20488123.914    -3530162.45449  -2745250.25148  20488124.157    20488131.279
  24284946.141    -3079255.92949  -2161739.55245  24284945.652    24284970.367
  20411860.199      345570.26649    268769.33348  20411859.644    20411867.414
  21467067.176    -4617142.11149  -3579320.19247  21467066.350    21467076.801
  24875949.020     6196187.83149   4815790.90645  24875948.688    24875970.619
  24536024.032     6649852.66549   5168333.03345  24536024.024    24536036.190
 02  4  3 19 27 30.0000000  0  8G24G 6G30G23G 5G10G 9G 4
  21556345.218     3797208.15449   2796352.76647  21556344.983    21556353.454
  22829127.184    -3409109.08049  -2646928.15346  22829126.994    22829137.181
  20481565.219    -3564628.71349  -2772107.06848  20481565.457    20481572.570
  24265024.840    -3183940.80649  -2243311.67545  24265024.404    24265049.033
  20416555.169      370242.36649    287994.30148  20416554.613    20416562.397
  21454372.650    -4683851.98049  -3631301.77047  21454371.828    21454382.247
  24893288.771     6287306.74149   4886792.14245  24893288.463    24893310.544
  24554981.490     6749474.07649   5245959.92145  24554981.330    24554993.752
 02  4  3 19 28  0.0000000  0  8G24G 6G30G23G 5G10G 9G 4
  21568844.520     3862892.05449   2847534.96747  21568844.289    21568852.755
  22816163.028    -3477235.78249  -2700013.79546  22816162.829    22816172.980
  20475107.655    -3598563.49049  -2798549.74648  20475107.898    20475115.028
  24245106.561    -3288610.04649  -2324871.63445  24245106.123    24245130.568
  20421353.217      395455.97649    307641.22648  20421352.652    20421360.444
  21441769.373    -4750082.41849  -3682909.79547  21441768.533    21441778.885
  24910610.101     6378328.88949   4957718.01045  24910609.812    24910631.830
  24573934.915     6849074.07049   5323570.11945  24573934.899    24573947.170
 02  4  3 19 28 30.0000000  0  8G24G 6G30G23G 5G10G 9G 4
  21581386.257     3928799.10749   2898891.06147  21581386.037    21581394.510
  22803208.820    -3545310.07449  -2753058.59546  22803208.638    22803218.793
  20468751.469    -3631965.54649  -2824577.31648  20468751.728    20468758.840
  24225191.629    -3393261.25849  -2406417.55145  24225191.240    24225215.569
  20426254.244      421210.74849    327709.83548  20426253.679    20426261.457
  21429257.748    -4815830.96349  -3734142.31847  21429256.914    21429267.221
  24927912.455     6469251.56649   5028566.37645  24927912.304    24927934.158
  24592883.933     6948650.96449   5401162.31345  24592883.890    24592896.401
 02  4  3 19 29  0.0000000  0  8G24G 6G30G23G 5G10G 9G 4
  21593969.983     3994926.73549   2950419.02747  21593969.766    21593978.250
  22790264.616    -3613331.81249  -2806062.44846  22790264.408    22790274.599
  20462496.896    -3664833.49949  -2850188.70148  20462497.138    20462504.265
  24205280.680    -3497892.18549  -2487947.66145  24205280.284    24205304.426
  20431258.062      447505.82049    348199.45648  20431257.495    20431265.277
  21416838.276    -4881095.36749  -3784997.58247  21416837.442    21416847.682
  24945195.327     6560071.70449   5099334.80845  24945195.211    24945217.121
  24611828.246     7048203.17349   5478735.25445  24611828.256    24611840.796
 02  4  3 19 29 30.0000000  0  8G24G 6G30G23G 5G10G 9G 4
  21606595.211     4061272.54649   3002117.00847  21606594.975    21606603.494
  22777330.515    -3681300.40949  -2859024.90346  22777330.312    22777340.497
  20456344.272    -3697165.76649  -2875382.67048  20456344.527    20456351.635
  24185374.109    -3602499.95949  -2569459.72845  24185373.835    24185397.733
  20436364.635      474340.84949    369109.82448  20436364.069    20436371.873
  21404511.386    -4945873.11049  -3835473.59147  21404510.566    21404520.758
  24962458.240     6650786.91149   5170021.48745  24962457.910    24962480.175
  24630767.466     7147729.05849   5556287.65345  24630767.464    24630780.171
 02  4  3 19 30  0.0000000  0  8G24G 6G30G23G 5G10G 9G 4
  21619261.565     4127834.49849   3053983.40447  21619261.327    21619269.899
  22764406.614    -3749215.51549  -2911945.67646  22764406.440    22764416.643
  20450293.880    -3728960.86849  -2900158.07248  20450294.126    20450301.225
  24165472.478    -3707082.01449  -2650951.76445  24165472.163    24165495.970
  20441573.851      501715.29549    390440.51148  20441573.293    20441581.099
  21392277.628    -5010161.47949  -3885568.28047  21392276.815    21392286.987
  24979700.724     6741394.63549   5240624.43445  24979700.273    24979722.782
  24649701.493     7247227.13949   5633818.41745  24649701.536    24649714.231
 02  4  3 19 30 30.0000000  0  8G24G 6G30G23G 5G10G 9G 4
  21631968.527     4194609.76249   3106016.02147  21631968.280    21631976.885
  22751492.928    -3817077.07549  -2964824.71346  22751492.730    22751502.935
  20444345.878    -3760217.86849  -2924514.17448  20444346.134    20444353.240
  24145576.169    -3811636.05049  -2732421.95545  24145575.816    24145599.568
  20446885.539      529628.15249    412190.74448  20446884.976    20446892.812
  21380137.397    -5073958.46249  -3935280.07547  21380136.570    21380146.686
  24996922.148     6831891.84949   5311141.25545  24996921.711    24996944.121
  24668629.863     7346695.33849   5711325.92045  24668629.892    24668642.606
 02  4  3 19 31  0.0000000  0  8G24G 6G30G23G 5G10G 9G 4
  21644715.828     4261597.08249   3158213.87147  21644715.595    21644724.221
  22738589.606    -3884884.22949  -3017661.36846  22738589.433    22738599.609
  20438500.660    -3790934.80149  -2948449.44448  20438500.910    20438508.009
  24125685.697    -3916159.06649  -2813867.97345  24125685.276    24125708.934
  20452299.597      558079.20049    434360.34548  20452299.048    20452306.911
  21368091.128    -5137261.42349  -3984606.94747  21368090.329    21368100.397
  25014122.088     6922276.37649   5381570.26245  25014121.593    25014144.321
  24687552.323     7446132.54049   5788809.25445  24687552.443    24687565.059
 02  4  3 19 31 30.0000000  0  8G24G 6G30G23G 5G10G 9G 4
  21657502.952     4328793.73749   3210574.83947  21657502.713    21657511.369
  22725696.689    -3952636.72349  -3070455.42346  22725696.518    22725706.645
  20432758.365    -3821110.70249  -2971963.13148  20432758.606    20432765.710
  24105801.571    -4020648.76949  -2895288.03445  24105801.192    24105824.682
  20457815.947      587067.58849    456948.65448  20457815.399    20457823.286
  21356139.387    -5200067.90949  -4033546.95947  21356138.573    21356148.625
  25031300.033     7012545.25349   5451909.16545  25031299.691    25031322.186
  24706468.473     7545536.73049   5866266.86445  24706468.607    24706481.340
 02  4  3 19 32  0.0000000  0  8G24G 6G30G23G 5G10G 9G 4
  21670329.732     4396198.52249   3263097.98347  21670329.483    21670338.136
  22712814.357    -4020333.54649  -3123206.10746  22712814.186    22712824.279
  20427119.471    -3850743.28449  -2995053.45648  20427119.709    20427126.817
  24085924.456    -4125101.75649  -2976679.46745  24085923.873    24085947.537
  20463434.559      616593.34949    479955.69348  20463434.009    20463441.903
  21344282.636    -5262375.17049  -4082097.96547  21344281.801    21344291.841
  25048455.666     7102696.61349   5522156.48245  25048455.425    25048477.966
  24725378.175     7644907.17149   5943698.16245  24725378.377    24725390.961
 02  4  3 19 32 30.0000000  0  7G24G 6G30G23G 5G10G 4
  21683195.945     4463810.71949   3315782.74947  21683195.706    21683204.366
  22699943.024    -4087972.64549  -3175911.80346  22699942.846    22699952.914
  20421584.548    -3879829.57249  -3017718.09648  20421584.801    20421591.893
  24066055.102    -4229513.79449  -3058039.00345  24066054.518    24066078.063
  20469155.648      646657.65149    503382.37348  20469155.089    20469162.988
  21332521.637    -5324178.90449  -4130256.59747  21332520.833    21332530.874
  24744281.537     7744244.03649   6021103.32045  24744281.699    24744294.383
 02  4  3 19 33  0.0000000  0  7G24G 6G30G23G 5G10G 4
  21696101.029     4531626.99149   3368626.53247  21696100.792    21696109.438
  22687082.529    -4155554.72749  -3228573.07046  22687082.320    22687092.391
  20416153.571    -3908369.53149  -3039957.02648  20416153.831    20416160.902
  24046193.800    -4333883.45649  -3139365.49545  24046193.317    24046216.759
  20474978.833      677258.42449    527227.08548  20474978.277    20474986.169
  21320856.797    -5385477.66049  -4178021.72447  21320855.999    21320866.019
  24763177.980     7843544.44549   6098480.05445  24763178.058    24763190.986
 02  4  3 19 33 30.0000000  0  7G24G 6G30G23G 5G10G 4
  21709044.302     4599644.09349   3421626.80847  21709044.061    21709052.716
  22674232.745    -4223080.59049  -3281190.52946  22674232.525    22674242.575
  20410826.575    -3936362.99749  -3061770.11748  20410826.839    20410833.909
  24026340.876    -4438209.18949  -3220657.76145  24026340.432    24026363.601
  20480903.786      708393.87849    551488.43448  20480903.246    20480911.116
  21309288.257    -5446270.39449  -4225392.55847  21309287.437    21309297.465
  24782066.961     7942805.95449   6175826.46445  24782067.012    24782080.004
 02  4  3 19 34  0.0000000  0  6G24G 6G30G23G 5G10
  21722025.041     4667858.09449   3474780.51047  21722024.805    21722033.453
  22661393.449    -4290551.12949  -3333764.88246  22661393.284    22661403.278
  20405603.618    -3963810.02249  -3083157.41548  20405603.874    20405610.933
  24006496.502    -4542489.90249  -3301914.94245  24006496.070    24006519.130
  20486930.017      740061.64349    576164.56448  20486929.474    20486937.329
  21297816.166    -5506556.29049  -4272368.47547  21297815.369    21297825.350
 02  4  3 19 34 30.0000000  0  6G24G 6G30G23G 5G10
  21735043.408     4736269.71549   3528088.20247  21735043.163    21735051.829
  22648565.205    -4357963.57449  -3386293.96246  22648565.055    22648575.013
  20400485.269    -3990707.10149  -3104116.18248  20400485.518    20400492.598
  23986661.694    -4646720.55449  -3383133.10945  23986661.181    23986684.052
  20493057.872      772263.43549    601256.81948  20493057.322    20493065.177
  21286441.367    -5566330.80349  -4318945.91247  21286440.554    21286450.497
 02  4  3 19 35  0.0000000  0  6G24G 6G30G23G 5G10
  21748099.088     4804877.59049   3581548.81947  21748098.874    21748107.533
  22635748.282    -4425316.62249  -3438776.77246  22635748.148    22635758.074
  20395472.043    -4017051.90349  -3124644.60048  20395472.288    20395479.384
  23966837.095    -4750897.73149  -3464309.61445  23966836.495    23966859.280
  20499287.393      804999.50649    626765.39748  20499286.839    20499294.703
  21275164.514    -5625590.84549  -4365122.46847  21275163.691    21275173.594
 02  4  3 19 35 30.0000000  0  6G24G 6G30G23G 5G10
  21761191.640     4873679.32049   3635160.49347  21761191.401    21761200.129
  22622942.735    -4492609.80949  -3491212.92446  22622942.593    22622952.446
  20390564.068    -4042843.48649  -3144741.94448  20390564.296    20390571.430
  23947023.141    -4855018.88549  -3545442.46445  23947022.532    23947045.236
  20505618.424      838269.02149    652689.64148  20505617.866    20505625.744
  21263985.993    -5684333.96749  -4410896.21747  21263985.159    21263995.044
 02  4  3 19 36  0.0000000  0  6G24G 6G30G23G 5G10
  21774320.761     4942673.08849   3688921.80247  21774320.531    21774329.271
  22610148.704    -4559842.71349  -3543602.10546  22610148.600    22610158.395
  20385761.603    -4068080.59849  -3164407.22848  20385761.841    20385768.990
  23927220.305    -4959081.31049  -3626529.54945  23927219.751    23927242.362
  20512050.758      872070.87449    679028.69448  20512050.193    20512058.100
  21252906.299    -5742557.89849  -4456265.40047  21252905.440    21252915.298
 02  4  3 19 36 30.0000000  0  6G24G 6G30G23G 5G10
  21787485.957     5011856.38349   3742830.79147  21787485.727    21787494.515
  22597366.124    -4627015.32749  -3595944.30946  22597366.009    22597375.788
  20381064.772    -4092762.53949  -3183639.91448  20381065.022    20381072.188
  23907429.133    -5063082.81049  -3707569.17145  23907428.512    23907451.143
  20518584.140      906403.89749    705781.64548  20518583.580    20518591.514
  21241925.716    -5800260.87049  -4501228.64747  21241924.851    21241934.658
 02  4  3 19 37  0.0000000  0  6G24G 6G30G23G 5G10
  21800686.916     5081227.52449   3796886.16247  21800686.688    21800695.488
  22584595.201    -4694126.61849  -3648238.73246  22584595.071    22584604.858
  20376473.915    -4116887.70849  -3202438.75048  20376474.161    20376481.326
  23887650.183    -5167020.20349  -3788558.82245  23887649.635    23887672.031
  20525218.556      941267.73349    732948.21248  20525218.007    20525225.953
  21231044.779    -5857440.19649  -4545783.85247  21231043.904    21231053.674
 02  4  3 19 37 30.0000000  0  6G24G 6G30G23G 5G10
  21813923.222     5150784.46749   3851086.31347  21813922.995    21813931.813
  22571836.094    -4761175.73049  -3700484.70446  22571835.963    22571845.717
  20371989.359    -4140454.19649  -3220802.25048  20371989.625    20371996.778
  23867884.018    -5270890.51949  -3869496.20645  23867883.279    23867905.582
  20531953.877      976661.95349    760528.06848  20531953.324    20531961.302
  21220263.986    -5914093.24749  -4589928.97347  21220263.098    21220272.829
 02  4  3 19 38  0.0000000  0  6G24G 6G30G23G 5G10
  21827194.418     5220524.84049   3905429.39847  21827194.208    21827203.048
  22559088.850    -4828162.58749  -3752682.17146  22559088.718    22559098.489
  20367611.183    -4163461.64649  -3238730.13948  20367611.456    20367618.586
  23848130.947    -5374691.67449  -3950379.69345  23848130.214    23848152.320
  20538789.843     1012585.07149    788520.04948  20538789.292    20538797.296
  21209583.586    -5970218.59049  -4633662.91547  21209582.732    21209592.423
 02  4  3 19 38 30.0000000  0  6G24G 6G30G23G 5G10
  21840500.240     5290447.04549   3959914.16847  21840500.026    21840508.887
  22546353.687    -4895086.02949  -3804830.22146  22546353.544    22546363.301
  20363339.781    -4185908.25349  -3256221.00948  20363340.053    20363347.168
  23828391.636    -5478420.30449  -4031206.65045  23828390.979    23828412.927
  20545726.420     1049036.72949    816923.87948  20545725.870    20545733.892
  21199004.141    -6025813.44749  -4676983.50047  21199003.316    21199013.002
 02  4  3 19 39  0.0000000  0  7G24G 6G30G23G 5G17G10
  21853840.171     5360548.47049   4014538.59247  21853839.951    21853848.835
  22533630.551    -4961946.13549  -3856928.92446  22533630.402    22533640.139
  20359175.163    -4207793.40349  -3273274.38148  20359175.436    20359182.542
  23808666.548    -5582074.31349  -4111975.47845  23808665.875    23808687.716
  20552763.294     1086015.54949    845738.47848  20552762.738    20552770.776
  24920998.868    -3489804.61649  -2697774.37345  24920998.423    24921021.533
  21188526.001    -6080875.88349  -4719889.21547  21188525.179    21188534.846
 02  4  3 19 39 30.0000000  0  7G24G 6G30G23G 5G17G10
  21867213.525     5430825.67149   4069299.98447  21867213.313    21867222.197
  22520919.339    -5028743.77349  -3908978.95346  22520919.172    22520928.903
  20355117.322    -4229117.60649  -3289890.65348  20355117.585    20355124.687
  23788955.875    -5685652.62549  -4192685.29945  23788955.230    23788976.946
  20559900.040     1123519.07349    874961.94048  20559899.488    20559907.524
  24903881.571    -3579754.96649  -2767865.15745  24903881.103    24903904.206
  21178149.355    -6135405.14949  -4762379.46847  21178148.543    21178158.211
 02  4  3 19 40  0.0000000  0  7G24G 6G30G23G 5G17G10
  21880620.535     5501279.64049   4124199.11947  21880620.322    21880629.227
  22508220.691    -5095475.25649  -3960977.44146  22508220.543    22508230.201
  20351167.021    -4249876.64349  -3306066.53648  20351167.280    20351174.398
  23769260.722    -5789149.37449  -4273331.57145  23769260.084    23769281.684
  20567137.025     1161549.54949    904596.01348  20567136.478    20567144.518
  24886788.474    -3669577.75749  -2837856.55645  24886788.095    24886811.214
  21167875.107    -6189396.24749  -4804450.36247  21167874.286    21167883.938
 02  4  3 19 40 30.0000000  0  7G24G 6G30G23G 5G17G10
  21894060.810     5571908.49349   4179234.52347  21894060.587    21894069.494
  22495534.810    -5162139.99449  -4012923.92246  22495534.636    22495544.237
  20347324.466    -4270069.47749  -3321801.22048  20347324.720    20347331.849
  23749581.573    -5892561.85649  -4353912.17545  23749580.978    23749602.422
  20574474.113     1200105.88349    934639.84548  20574473.558    20574481.616
  24869719.901    -3759272.20549  -2907747.95145  24869719.361    24869742.576
  21157703.707    -6242847.14849  -4846100.32047  21157702.867    21157712.484
 02  4  3 19 41  0.0000000  0  7G24G 6G30G23G 5G17G10
  21907533.824     5642709.21849   4234403.86547  21907533.590    21907542.502
  22482861.519    -5228738.40449  -4064818.71746  22482861.359    22482870.929
  20343589.648    -4289696.05549  -3337094.66648  20343589.916    20343597.085
  23729918.741    -5995888.42449  -4434425.82245  23729918.181    23729939.538
  20581910.882     1239186.14549    965091.92948  20581910.330    20581918.383
  24852675.710    -3848838.48749  -2977539.49345  24852675.291    24852698.205
  21147635.302    -6295756.79949  -4887328.53047  21147634.458    21147644.018
 02  4  3 19 41 30.0000000  0  7G24G 6G30G23G 5G17G10
  21921039.200     5713680.19649   4289705.86247  21921038.970    21921047.873
  22470201.079    -5295269.14149  -4116660.77846  22470200.944    22470210.461
  20339962.956    -4308754.57049  -3351945.46748  20339963.216    20339970.405
  23710272.915    -6099125.70449  -4514869.89645  23710272.411    23710293.490
  20589447.264     1278789.87049    995951.90648  20589446.723    20589454.798
  24835656.220    -3938274.91649  -3047229.86045  24835655.804    24835678.486
  21137670.478    -6348122.17749  -4928132.62347  21137669.606    21137679.122
 02  4  3 19 42  0.0000000  0  7G24G 6G30G23G 5G17G10
  21934576.648     5784819.59849   4345139.10147  21934576.429    21934585.316
  22457553.631    -5361731.78949  -4168449.77946  22457553.460    22457562.995
  20336444.550    -4327244.21549  -3366352.99348  20336444.802    20336451.974
  23690644.555    -6202271.19249  -4595242.46045  23690644.070    23690665.082
  20597083.070     1318916.03949   1027218.98048  20597082.526    20597090.607
  24818661.582    -4027581.07549  -3116818.71345  24818661.298    24818683.643
  21127809.469    -6399941.61649  -4968511.33047  21127808.623    21127818.085
 02  4  3 19 42 30.0000000  0  7G24G 6G30G23G 5G17G10
  21948145.678     5856125.01949   4400701.70247  21948145.455    21948154.359
  22444919.191    -5428125.99449  -4220185.45946  22444919.026    22444928.542
  20333034.474    -4345164.40049  -3380316.78348  20333034.733    20333041.876
  23671034.129    -6305322.67249  -4675541.76845  23671033.525    23671054.519
  20604818.058     1359563.36449   1058892.14848  20604817.522    20604825.629
  24801691.884    -4116756.30549  -3186305.54945  24801691.467    24801713.584
  21118052.722    -6451213.27949  -5008463.21247  21118051.857    21118061.329
 02  4  3 19 43  0.0000000  0  7G24G 6G30G23G 5G17G10
  21961745.945     5927594.52949   4456392.16947  21961745.710    21961754.634
  22432297.952    -5494450.72549  -4271866.98646  22432297.753    22432307.294
  20329733.094    -4362513.44849  -3393835.53148  20329733.348    20329740.483
  23651442.229    -6408276.64449  -4755765.10945  23651441.719    23651462.460
  20612652.067     1400731.11149   1090970.84348  20612651.528    20612659.651
  24784747.218    -4205799.41849  -3255689.44845  24784746.777    24784769.060
  21108400.737    -6501934.51149  -5047986.18547  21108399.889    21108409.342
 02  4  3 19 43 30.0000000  0  7G24G 6G30G23G 5G17G10
  21975377.202     5999227.04549   4512209.65247  21975376.973    21975385.892
  22419690.052    -5560705.38149  -4323493.91846  22419689.862    22419699.422
  20326540.566    -4379290.41549  -3406908.50448  20326540.819    20326547.933
  23631869.360    -6511130.37549  -4835910.33445  23631868.808    23631889.490
  20620584.946     1442418.27849   1123454.27748  20620584.396    20620592.551
  24767828.009    -4294709.35049  -3324969.57045  24767827.541    24767849.511
  21098853.926    -6552103.06049  -5087078.49047  21098853.078    21098862.515
 02  4  3 19 44  0.0000000  0  7G24G 6G30G23G 5G17G10
  21989038.950     6071019.80149   4568151.99447  21989038.725    21989047.650
  22407095.472    -5626889.87449  -4375066.18146  22407095.301    22407104.849
  20323456.910    -4395495.09149  -3419535.53948  20323457.183    20323464.293
  23612316.061    -6613881.80749  -4915975.85845  23612315.425    23612336.056
  20628616.349     1484623.24149   1156341.18448  20628615.806    20628623.950
  24750934.096    -4383486.01749  -3394145.85545  24750933.715    24750955.576
  21089412.429    -6601718.18249  -5125739.55447  21089411.584    21089420.992
 02  4  3 19 44 30.0000000  0  7G24G 6G30G23G 5G17G10
  22002730.961     6142971.42349   4624218.12447  22002730.746    22002739.697
  22394514.578    -5693002.59749  -4426582.52246  22394514.431    22394523.953
  20320482.546    -4411125.59549  -3431715.16748  20320482.812    20320489.930
  23592782.823    -6716527.37949  -4995958.89645  23592782.287    23592802.777
  20636746.222     1527345.70449   1189631.34148  20636745.688    20636753.812
  24734065.915    -4472127.50549  -3463216.78845  24734065.654    24734087.312
  21080076.858    -6650776.64449  -5163966.85347  21080076.017    21080085.395
 02  4  3 19 45  0.0000000  0  7G24G 6G30G23G 5G17G10
  22016452.656     6215079.21849   4680405.94647  22016452.437    22016461.398
  22381947.318    -5759043.71649  -4478043.06346  22381947.170    22381956.708
  20317617.425    -4426181.90549  -3443447.37048  20317617.696    20317624.837
  23573270.159    -6819065.24949  -5075858.03545  23573269.576    23573289.957
  20644974.219     1570583.64849   1223323.16948  20644973.682    20644981.813
  24717223.403    -4560634.22049  -3532182.70845  24717222.983    24717244.770
  21070847.385    -6699277.47249  -5201759.64347  21070846.557    21070855.899
 02  4  3 19 45 30.0000000  0  7G24G 6G30G23G 5G17G10
  22030203.880     6287342.07849   4736714.60347  22030203.657    22030212.647
  22369393.981    -5825011.69749  -4529446.60646  22369393.811    22369403.345
  20314861.917    -4440662.36649  -3454730.86448  20314862.184    20314869.328
  23553778.647    -6921491.86049  -5155670.46945  23553778.110    23553798.347
  20653300.226     1614336.84049   1257416.48748  20653299.688    20653307.841
  24700406.934    -4649004.21849  -3601042.09645  24700406.504    24700428.313
  21061724.614    -6747217.85349  -5239115.71247  21061723.782    21061733.108
 02  4  3 19 46  0.0000000  0  7G24G 6G30G23G 5G17G10
  22043984.134     6359757.47649   4793142.11847  22043983.887    22043992.868
  22356854.558    -5890906.56249  -4580793.18746  22356854.382    22356863.933
  20312216.053    -4454566.60049  -3465565.34948  20312216.315    20312223.465
  23534308.747    -7023804.92249  -5235394.44645  23534308.238    23534328.299
  20661723.963     1658603.50649   1291909.91248  20661723.426    20661731.599
  24683616.528    -4737237.33049  -3669794.82545  24683615.999    24683637.825
  21052708.738    -6794596.34249  -5276033.94747  21052707.914    21052717.223
 02  4  3 19 46 30.0000000  0  7G24G 6G30G23G 5G17G10
  22057793.160     6432323.90449   4849687.31347  22057792.908    22057801.852
  22344329.289    -5956727.01349  -4632081.77946  22344329.113    22344338.625
  20309680.080    -4467893.28349  -3475949.79548  20309680.341    20309687.497
  23514861.039    -7126001.27549  -5315027.47945  23514860.522    23514880.412
  20670245.267     1703382.92449   1326802.88548  20670244.727    20670252.913
  24666852.361    -4825332.32949  -3738439.90945  24666851.765    24666873.397
  21043800.234    -6841410.57349  -5312512.52347  21043799.411    21043808.715
 02  4  3 19 47  0.0000000  0  7G24G 6G30G23G 5G17G10
  22071630.465     6505039.15249   4906348.47047  22071630.218    22071639.174
  22331818.332    -6022472.39749  -4683311.88246  22331818.154    22331827.633
  20307254.127    -4480641.87849  -3485883.78348  20307254.390    20307261.526
  23495436.094    -7228078.35149  -5394567.57545  23495435.559    23495455.269
  20678863.904     1748673.75749   1362094.36048  20678863.361    20678871.575
  24650114.595    -4913288.59849  -3806976.89545  24650113.972    24650135.525
  21034999.444    -6887659.04249  -5348550.24147  21034998.594    21035007.885
 02  4  3 19 47 30.0000000  0  7G24G 6G30G23G 5G17G10
  22085495.875     6577902.01849   4963124.65147  22085495.619    22085504.562
  22319321.848    -6088141.47449  -4734482.52846  22319321.695    22319331.105
  20304938.460    -4492810.87549  -3495366.13748  20304938.703    20304945.859
  23476034.433    -7330032.93749  -5474012.23145  23476033.880    23476053.478
  20687579.697     1794475.22149   1397783.72848  20687579.157    20687587.380
  24633403.443    -5001104.83349  -3875404.77345  24633402.781    24633424.403
  21026306.680    -6933339.38849  -5384145.26547  21026305.842    21026315.129
 02  4  3 19 48  0.0000000  0  7G24G 6G30G23G 5G17G10
  22099389.070     6650910.82149   5020014.55947  22099388.791    22099397.751
  22306840.029    -6153733.76449  -4785593.33146  22306839.896    22306849.232
  20302733.195    -4504399.83049  -3504396.51048  20302733.440    20302740.573
  23456656.538    -7431862.46049  -5553359.43245  23456655.996    23456675.471
  20696392.414     1840785.89749   1433869.88848  20696391.866    20696400.108
  24616719.096    -5088780.42249  -3943723.06245  24616718.510    24616739.869
  21017722.412    -6978449.81949  -5419296.19747  21017721.584    21017730.857
 02  4  3 19 48 30.0000000  0  7G24G 6G30G23G 5G17G10
  22113309.515     6724063.03449   5077016.20847  22113309.254    22113318.218
  22294372.878    -6219248.89149  -4836644.01746  22294372.757    22294382.050
  20300638.353    -4515408.32049  -3512974.57248  20300638.610    20300645.753
  23437302.954    -7533564.37649  -5632607.20945  23437302.384    23437321.732
  20705301.723     1887604.41449   1470351.76748  20705301.178    20705309.438
  24600061.564    -5176314.76449  -4011931.28445  24600061.083    24600082.368
  21009246.871    -7022988.85049  -5454001.87947  21009246.052    21009255.283
 02  4  3 19 49  0.0000000  0  7G24G 6G30G23G 5G17G10
  22127256.908     6797356.73349   5134128.11147  22127256.649    22127265.623
  22281920.601    -6284685.93849  -4887633.85246  22281920.467    22281929.726
  20298654.126    -4525835.50049  -3521099.66648  20298654.394    20298661.551
  23417974.215    -7635136.04949  -5711753.49745  23417973.605    23417992.801
  20714307.401     1934929.26649   1507228.19148  20714306.864    20714315.151
  24583431.057    -5263707.23849  -4080028.96945  24583430.636    24583451.808
  21000880.359    -7066954.95649  -5488261.11047  21000879.544    21000888.783
 02  4  3 19 49 30.0000000  0  7G24G 6G30G23G 5G17G10
  22141231.049     6870790.96349   5191349.51147  22141230.775    22141239.767
  22269483.462    -6350043.46349  -4938561.73646  22269483.307    22269492.558
  20296780.804    -4535679.91849  -3528770.66648  20296781.071    20296788.249
  23398670.914    -7736573.97449  -5790795.58745  23398670.269    23398689.365
  20723409.359     1982760.01049   1544498.81048  20723408.822    20723417.139
  24566827.863    -5350956.19349  -4148014.81745  24566827.380    24566848.642
  20992623.428    -7110345.38349  -5522071.78147  20992622.610    20992631.824
 02  4  3 19 50  0.0000000  0  7G24G 6G30G23G 5G17G10
  22155231.289     6944362.52649   5248677.92347  22155231.033    22155240.044
  22257061.337    -6415321.86049  -4989427.94846  22257061.167    22257070.391
  20295018.252    -4544942.12049  -3535987.98748  20295018.531    20295025.717
  23379393.272    -7837876.58249  -5869732.24245  23379392.694    23379411.625
  20732607.159     2031094.33749   1582161.83948  20732606.625    20732614.961
  24550251.937    -5438062.08349  -4215889.20345  24550251.445    24550272.546
  20984476.074    -7153159.69849  -5555433.54147  20984475.270    20984484.464
 02  4  3 19 50 30.0000000  0  7G24G 6G30G23G 5G17G10
  22169257.594     7018070.94349   5306112.97547  22169257.332    22169266.391
  22244654.702    -6480518.96149  -5040230.81846  22244654.526    22244663.740
  20293366.898    -4553620.16349  -3542750.12148  20293367.184    20293374.371
  23360142.135    -7939039.83149  -5948560.31145  23360141.571    23360160.492
  20741900.788     2079932.28949   1620217.29648  20741900.241    20741908.608
  24533703.526    -5525022.92149  -4283650.57245  24533703.161    24533723.992
  20976438.973    -7195394.76449  -5588343.95647  20976438.184    20976447.368
 02  4  3 19 51  0.0000000  0  7G24G 6G30G23G 5G17G10
  22183309.490     7091914.02849   5363652.96147  22183309.244    22183318.357
  22232263.581    -6545634.49149  -5090970.12346  22232263.414    22232272.623
  20291826.748    -4561713.80349  -3549056.87248  20291827.040    20291834.241
  23340918.050    -8040061.37649  -6027277.96345  23340917.480    23340936.248
  20751289.846     2129271.79449   1658663.57748  20751289.301    20751297.707
  24517182.815    -5611838.40049  -4351298.67445  24517182.408    24517203.268
  20968512.410    -7237049.15749  -5620801.85747  20968511.602    20968520.794
 02  4  3 19 51 30.0000000  0  7G24G 6G30G23G 5G17G10
  22197386.642     7165889.54449   5421296.13847  22197386.399    22197395.574
  22219888.093    -6610667.78449  -5141645.34846  22219887.932    22219897.132
  20290397.889    -4569222.60049  -3554907.90548  20290398.170    20290405.393
  23321721.388    -8140938.75849  -6105883.28545  23321720.790    23321739.421
  20760774.068     2179111.55249   1697499.65948  20760773.525    20760781.958
  24500689.941    -5698507.85449  -4418833.00145  24500689.397    24500710.340
  20960696.492    -7278121.81649  -5652806.45247  20960695.682    20960704.880
 02  4  3 19 52  0.0000000  0  7G24G 6G30G23G 5G17G10
  22211488.754     7239996.39349   5479041.65947  22211488.536    22211497.763
  22207528.510    -6675617.45149  -5192255.40747  22207528.358    22207537.550
  20289080.572    -4576145.29249  -3560302.23448  20289080.862    20289088.093
  23302552.797    -8241668.51249  -6184373.57645  23302552.189    23302570.706
  20770353.382     2229450.67449   1736724.85448  20770352.844    20770361.298
  24484225.061    -5785030.01949  -4486252.55545  24484224.505    24484245.493
  20952991.722    -7318610.29949  -5684355.84347  20952990.916    20953000.123
 02  4  3 19 52 30.0000000  0  7G24G 6G30G23G 5G17G10
  22225615.311     7314231.78749   5536887.34047  22225615.067    22225624.356
  22195184.774    -6740484.04749  -5242800.73547  22195184.634    22195193.810
  20287874.603    -4582482.68949  -3565240.48848  20287874.886    20287882.136
  23283412.632    -8342249.21949  -6262747.73445  23283412.021    23283430.395
  20780027.198     2280286.54449   1776337.12948  20780026.657    20780035.133
  24467788.086    -5871405.35949  -4553557.71845  24467787.554    24467808.464
  20945398.204    -7358514.22149  -5715449.74747  20945397.393    20945406.611
 02  4  3 19 53  0.0000000  0  7G24G 6G30G23G 5G17G10
  22239766.439     7388596.09949   5594833.47147  22239766.200    22239775.560
  22182857.436    -6805264.40749  -5293278.87047  22182857.288    22182866.440
  20286780.580    -4588231.96549  -3569720.46948  20286780.854    20286788.126
  23264301.723    -8442675.77849  -6341001.77445  23264301.170    23264319.397
  20789795.691     2331619.93649   1816337.07948  20789795.154    20789803.640
  24451379.700    -5957630.98549  -4620746.21745  24451379.203    24451400.015
  20937916.624    -7397829.85649  -5746085.26247  20937915.823    20937925.038
 02  4  3 19 53 30.0000000  0  7G24G 6G30G23G 5G17G10
  22253941.372     7463085.80349   5652877.30447  22253941.147    22253950.570
  22170546.441    -6869959.02949  -5343690.19647  22170546.290    22170555.385
  20285798.343    -4593393.94349  -3573742.81848  20285798.624    20285805.893
  23245220.389    -8542946.86549  -6419134.67645  23245219.840    23245238.033
  20799658.350     2383448.01049   1856722.48948  20799657.816    20799666.312
  24434999.687    -6043707.52349  -4687818.54545  24434999.143    24435019.735
  20930546.984    -7436557.19949  -5776262.36647  20930546.204    20930555.391
 02  4  3 19 54  0.0000000  0  7G24G 6G30G23G 5G17G10
  22268139.925     7537699.46049   5711017.73246  22268139.698    22268149.186
  22158251.884    -6934567.25249  -5394034.19247  22158251.732    22158260.780
  20284927.874    -4597968.24749  -3577307.23948  20284928.146    20284935.455
  23226169.166    -8643059.75249  -6497144.29145  23226168.669    23226186.676
  20809614.865     2435769.34249   1897492.26148  20809614.324    20809622.825
  24418648.121    -6129634.23749  -4754774.13345  24418647.612    24418668.183
  20923289.632    -7474694.58549  -5805979.77147  20923288.859    20923298.021
 02  4  3 19 54 30.0000000  0  7G24G 6G30G23G 5G17G10
  22282361.653     7612434.94149   5769253.08246  22282361.452    22282370.936
  22145973.878    -6999088.37249  -5444310.32147  22145973.731    22145982.762
  20284169.330    -4601954.41649  -3580413.37348  20284169.622    20284176.930
  23207148.545    -8743012.03249  -6575028.76945  23207148.066    23207166.008
  20819664.877     2488582.13849   1938644.98948  20819664.346    20819672.860
  24402325.189    -6215410.60949  -4821612.56545  24402324.633    24402345.186
  20916144.872    -7512240.40049  -5835236.19647  20916144.075    20916153.224
 02  4  3 19 55  0.0000000  0  7G24G 6G30G23G 5G17G10
  22296606.343     7687290.93349   5827582.33846  22296606.141    22296615.647
  22133712.683    -7063521.01349  -5494517.49947  22133712.540    22133721.523
  20283522.910    -4605351.57849  -3583060.54448  20283523.199    20283530.502
  23188159.073    -8842800.49849  -6652785.59045  23188158.652    23188176.502
  20829808.272     2541885.46949   1980179.95248  20829807.724    20829816.239
  24386031.069    -6301035.64749  -4888333.07145  24386030.413    24386050.817
  20909112.982    -7549193.05849  -5864030.42847  20909112.203    20909121.358
 02  4  3 19 55 30.0000000  0  7G24G 6G30G23G 5G17G10
  22310873.731     7762266.14149   5886004.48446  22310873.514    22310883.050
  22121468.669    -7127863.64749  -5544654.55047  22121468.516    22121477.456
  20282988.772    -4608158.72549  -3585247.96148  20282989.059    20282996.327
  23169201.507    -8942421.67549  -6730412.05945  23169201.016    23169218.795
  20840044.837     2595678.47949   2022096.48548  20840044.287    20840052.808
  24369766.025    -6386507.63149  -4954934.33445  24369765.383    24369785.787
  20902194.435    -7585550.16949  -5892360.58747  20902193.643    20902202.802
 02  4  3 19 56  0.0000000  0  7G24G 6G30G23G 5G17G10
  22325163.235     7837357.70749   5944517.30646  22325163.031    22325172.621
  22109241.687    -7192116.76349  -5594721.84747  22109241.531    22109250.450
  20282566.761    -4610376.59149  -3586976.19548  20282567.031    20282574.311
  23150276.040    -9041874.18649  -6807907.09045  23150275.478    23150293.182
  20850373.977     2649958.18749   2064392.26148  20850373.427    20850381.977
  24353529.866    -6471827.49249  -5021417.03245  24353529.333    24353549.676
  20895389.158    -7621311.80649  -5920226.72647  20895388.374    20895397.532
 02  4  3 19 56 30.0000000  0  7G24G 6G30G23G 5G17G10
  22339474.759     7912564.80249   6003120.13846  22339474.544    22339484.117
  22097032.065    -7256278.58749  -5644718.00747  22097031.893    22097040.790
  20282257.116    -4612003.97249  -3588244.31848  20282257.395    20282264.644
  23131383.265    -9141154.32349  -6885267.81045  23131382.748    23131400.376
  20860795.671     2704724.23149   2107067.00148  20860795.112    20860803.710
  24337323.098    -6556993.40249  -5087779.77645  24337322.493    24337342.852
  20888697.722    -7656475.40249  -5947626.87847  20888696.936    20888706.091
 02  4  3 19 57  0.0000000  0  7G24G 6G30G23G 5G17G10
  22353807.952     7987885.72349   6061811.67046  22353807.741    22353817.328
  22084840.011    -7320347.99049  -5694642.15947  22084839.844    22084848.704
  20282059.953    -4613040.34449  -3589051.91148  20282060.232    20282067.488
  23112523.928    -9240259.22049  -6962491.98545  23112523.434    23112540.879
  20871309.607     2759975.13549   2150119.55148  20871309.073    20871317.701
  24321145.765    -6642004.59449  -5154021.95745  24321145.132    24321165.561
  20882120.303    -7691039.79949  -5974560.11447  20882119.510    20882128.654
 02  4  3 19 57 30.0000000  0  7G24G 6G30G23G 5G17G10
  22368162.266     8063317.68349   6120589.72346  22368162.043    22368171.665
  22072665.507    -7384325.16349  -5744494.45047  22072665.332    22072674.193
  20281975.061    -4613486.58649  -3589399.66248  20281975.331    20281982.602
  23093698.254    -9339187.27449  -7039578.36245  23093697.726    23093715.048
  20881915.349     2815708.13749   2193547.75448  20881914.811    20881923.471
  24304997.851    -6726861.33049  -5220143.78945  24304997.271    24305017.616
  20875657.026    -7725004.47449  -6001026.03847  20875656.224    20875665.339
 02  4  3 19 58  0.0000000  0  7G24G 6G30G23G 5G17G10
  22382537.618     8138860.34249   6179454.03146  22382537.411    22382547.014
  22060508.933    -7448207.93449  -5794273.17347  22060508.777    22060517.645
  20282002.779    -4613340.98649  -3589286.24048  20282003.051    20282010.341
  23074907.030    -9437934.31049  -7116523.68246  23074906.565    23074923.692
  20892612.710     2871922.82849   2237351.30248  20892612.165    20892620.856
  24288879.587    -6811562.06549  -5286144.06445  24288879.079    24288899.161
  20869308.399    -7758366.55149  -6027022.40847  20869307.589    20869316.672
 02  4  3 19 58 30.0000000  0  7G24G 6G30G23G 5G17G10
  22396933.723     8214511.94249   6238403.22246  22396933.525    22396943.147
  22048370.474    -7511995.73549  -5843977.89947  22048370.331    22048379.188
  20282143.157    -4612603.54149  -3588711.63748  20282143.424    20282150.730
  23056150.660    -9536498.03849  -7193326.17346  23056150.190    23056167.193
  20903401.409     2928617.34549   2281528.73948  20903400.867    20903409.561
  24272791.168    -6896106.11649  -5352022.24745  24272790.737    24272810.630
  20863074.611    -7791125.25949  -6052548.60847  20863073.805    20863082.864
 02  4  3 19 59  0.0000000  0  7G24G 6G30G23G 5G17G10
  22411350.132     8290270.10149   6297435.45446  22411349.905    22411359.528
  22036250.198    -7575687.94749  -5893608.14347  22036250.052    22036258.914
  20282396.135    -4611274.33449  -3587675.92548  20282396.399    20282403.694
  23037429.663    -9634875.90949  -7269983.83046  23037429.201    23037446.072
  20914281.062     2985789.75749   2326078.56048  20914280.515    20914289.234
  24256732.599    -6980493.31749  -5417778.19445  24256732.194    24256751.987
  20856955.774    -7823279.83449  -6077604.06947  20856954.970    20856963.990
 02  4  3 19 59 30.0000000  0  7G24G 6G30G23G 5G17G10
  22425786.502     8366133.37549   6356549.59246  22425786.301    22425795.942
  22024148.306    -7639283.63149  -5943163.17547  22024148.150    22024157.041
  20282761.759    -4609353.16249  -3586178.94148  20282762.026    20282769.314
  23018744.515    -9733065.23049  -7346494.57346  23018744.066    23018760.880
  20925251.355     3043438.58149   2370999.60748  20925250.810    20925259.553
  24240704.016    -7064723.06449  -5483411.45845  24240703.631    24240723.358
  20850952.204    -7854828.82549  -6102187.64847  20850951.387    20850960.384
 02  4  3 20  0  0.0000000  0  7G24G 6G30G23G 5G17G10
  22440242.746     8442100.77249   6415744.85846  22440242.523    22440252.147
  22012065.173    -7702780.74549  -5992641.39247  22012065.004    22012073.925
  20283240.296    -4606838.69849  -3584219.65548  20283240.555    20283247.830
  23000095.999    -9831062.23349  -7422855.46146  23000095.566    23000112.298
  20936312.206     3101563.23049   2416291.42647  20936311.663    20936320.431
  24224705.714    -7148793.53349  -5548920.59045  24224705.286    24224725.016
  20845064.248    -7885769.99049  -6126297.62147  20845063.443    20845072.404
 02  4  3 20  0 30.0000000  0  7G24G 6G30G23G 5G17G10
  22454718.371     8518170.13249   6475019.57346  22454718.132    22454727.770
  22000000.802    -7766179.24149  -6042042.77647  22000000.637    22000009.552
  20283831.612    -4603731.52449  -3581798.51248  20283831.865    20283839.134
  22981484.501    -9928864.89349  -7499064.92046  22981484.001    22981500.691
  20947463.128     3160161.19549   2461952.06747  20947462.583    20947471.377
  24208737.711    -7232704.64649  -5614305.55245  24208737.320    24208756.847
  20839292.073    -7916102.91449  -6149933.63947  20839291.269    20839300.211
 02  4  3 20  1  0.0000000  0  7G24G 6G30G23G 5G17G10
  22469213.109     8594340.15849   6534372.73546  22469212.887    22469222.521
  21987955.443    -7829477.85649  -6091366.32847  21987955.275    21987964.175
  20284535.833    -4600031.17149  -3578915.16048  20284536.078    20284543.328
  22962910.530   -10026470.41449  -7575120.77146  22962910.039    22962926.618
  20958703.826     3219230.96749   2507980.34347  20958703.271    20958712.085
  24192800.162    -7316455.83149  -5679565.88945  24192799.794    24192819.124
  20833635.879    -7945826.25049  -6173094.63647  20833635.075    20833644.008
 02  4  3 20  1 30.0000000  0  7G24G 6G30G23G 5G17G10
  22483726.299     8670607.01649   6593801.34146  22483726.070    22483735.731
  21975928.897    -7892677.59749  -6140612.83047  21975928.731    21975937.606
  20285352.509    -4595739.66249  -3575571.16248  20285352.752    20285359.997
  22944374.127   -10123878.18349  -7651022.53246  22944373.641    22944390.130
  20970033.559     3278768.79649   2554373.34347  20970033.018    20970041.880
  24176892.836    -7400048.34149  -5744702.58445  24176892.476    24176911.649
  20828095.532    -7974940.89949  -6195781.33647  20828094.720    20828103.641
 02  4  3 20  2  0.0000000  0  7G24G 6G30G23G 5G17G10
  22498258.201     8746972.27949   6653306.63746  22498257.980    22498267.663
  21963922.046    -7955773.99849  -6189778.80647  21963921.893    21963930.728
  20286282.363    -4590853.36249  -3571763.68848  20286282.629    20286289.876
  22925876.604   -10221081.94149  -7726765.33446  22925876.137    22925892.520
  20981452.714     3338776.53149   2601132.50647  20981452.173    20981461.059
  24161016.418    -7483478.34949  -5809712.65245  24161016.047    24161035.110
  20822671.878    -8003442.25849  -6217990.16047  20822671.065    20822679.977
 02  4  3 20  2 30.0000000  0  7G24G 6G30G23G 5G17G10
  22512808.192     8823432.50649   6712885.92946  22512807.967    22512817.683
  21951934.603    -8018768.27249  -6238865.19847  21951934.442    21951943.285
  20287325.023    -4585374.19449  -3567494.23948  20287325.277    20287332.551
  22907418.033   -10318081.01549  -7802348.64046  22907417.555    22907433.799
  20992960.571     3399250.33949   2648254.84647  20992960.026    20992968.960
  24145170.700    -7566747.10749  -5874597.04945  24145170.237    24145189.294
  20817364.742    -8031331.20449  -6239721.77947  20817363.929    20817372.840
 02  4  3 20  3  0.0000000  0  7G24G 6G30G23G 5G17G10
  22527375.982     8899986.27949   6772538.11646  22527375.732    22527385.517
  21939966.887    -8081658.83449  -6287870.77747  21939966.727    21939975.532
  20288480.578    -4579301.66349  -3562762.43048  20288480.837    20288488.152
  22888999.025   -10414872.18349  -7877769.95746  22888998.517    22889014.679
  21004556.903     3460189.04049   2695739.43647  21004556.368    21004565.339
  24129355.837    -7649853.33949  -5939354.81845  24129355.425    24129374.435
  20812174.499    -8058605.90849  -6260974.76647  20812173.702    20812182.591
 02  4  3 20  3 30.0000000  0  7G24G 6G30G23G 5G17G10
  22541961.348     8976632.49149   6832262.32846  22541961.095    22541970.925
  21928019.154    -8144444.31549  -6336794.47947  21928018.999    21928027.794
  20289749.144    -4572635.24149  -3557567.85148  20289749.419    20289756.755
  22870620.180   -10511452.17649  -7953026.73046  22870619.630    22870635.723
  21016241.461     3521591.29249   2743585.23147  21016240.909    21016249.922
  24113572.088    -7732796.28049  -6003985.34245  24113571.612    24113590.661
  20807101.384    -8085265.23849  -6281748.23647  20807100.574    20807109.469
 02  4  3 20  4  0.0000000  0  7G24G 6G30G23G 5G17G10
  22556563.931     9053369.09149   6892056.97846  22556563.706    22556573.556
  21916091.495    -8207124.42649  -6385636.06947  21916091.356    21916100.124
  20291130.673    -4565375.52249  -3551910.96148  20291130.932    20291138.287
  22852281.896   -10607819.00749  -8028117.41246  22852281.385    22852297.307
  21028013.713     3583454.46049   2791790.18447  21028013.159    21028022.200
  24097819.417    -7815575.87549  -6068488.57345  24097818.898    24097837.909
  20802145.425    -8111308.85149  -6302041.92647  20802144.625    20802153.501
 02  4  3 20  4 30.0000000  0  7G24G 6G30G23G 5G17G10
  22571183.505     9130195.02249   6951921.23946  22571183.265    22571193.167
  21904184.216    -8269697.61849  -6434394.35247  21904184.039    21904192.838
  20292625.102    -4557522.24249  -3545791.55848  20292625.378    20292632.749
  22833984.726   -10703969.71049  -8103039.68946  22833984.243    22834000.057
  21039873.455     3645777.27049   2840353.29647  21039872.899    21039881.972
  24082097.915    -7898191.29449  -6132863.89645  24082097.392    24082116.453
  20797306.882    -8136735.35249  -6321854.75047  20797306.095    20797314.974
 02  4  3 20  5  0.0000000  0  7G24G 6G30G23G 5G17G10
  22585819.783     9207108.69249   7011853.86346  22585819.542    22585829.471
  21892297.504    -8332162.56849  -6483068.28847  21892297.328    21892306.103
  20294232.606    -4549075.06249  -3539209.37748  20294232.875    20294240.232
  22815729.314   -10799901.15249  -8177791.12346  22815728.800    22815744.516
  21051820.366     3708558.10649   2889273.30847  21051819.798    21051828.888
  24066407.902    -7980641.47549  -6197110.45945  24066407.404    24066426.334
  20792586.062    -8161543.25049  -6341185.55447  20792585.283    20792594.158
 02  4  3 20  5 30.0000000  0  7G24G 6G30G23G 5G17G10
  22600472.438     9284108.46949   7071853.58346  22600472.198    22600482.147
  21880431.500    -8394518.53849  -6531657.31047  21880431.333    21880440.106
  20295953.017    -4540034.43749  -3532164.77448  20295953.274    20295960.639
  22797516.051   -10895611.06449  -8252369.94546  22797515.549    22797531.191
  21063854.019     3771794.83349   2938548.55847  21063853.467    21063862.570
  24050749.311    -8062926.34849  -6261228.21645  24050748.874    24050767.755
  20787983.055    -8185732.07649  -6360033.96247  20787982.269    20787991.140
 02  4  3 20  6  0.0000000  0  7G24G 6G30G23G 5G17G10
  22615141.130     9361192.58049   7131919.00846  22615140.904    22615150.865
  21868586.434    -8456764.52349  -6580160.63047  21868586.273    21868595.034
  20297786.365    -4530400.25049  -3524657.65748  20297786.625    20297793.997
  22779345.476   -10991096.79549  -8326774.08846  22779344.968    22779360.518
  21075974.103     3835485.70749   2988177.68247  21075973.557    21075982.683
  24035122.415    -8145045.09949  -6325216.55445  24035121.952    24035140.790
  20783498.017    -8209300.93749  -6378399.27547  20783497.224    20783506.117
 02  4  3 20  6 30.0000000  0  7G24G 6G30G23G 5G17G10
  22629825.697     9438359.95249   7192049.31946  22629825.448    22629835.423
  21856762.557    -8518899.08249  -6628577.12547  21856762.399    21856771.164
  20299732.736    -4520172.25449  -3516687.83748  20299733.007    20299740.361
  22761218.204   -11086355.11449  -8401001.05046  22761217.707    22761233.102
  21088180.316     3899629.36549   3038159.62447  21088179.787    21088188.921
  24019527.224    -8226996.94149  -6389074.81445  24019526.769    24019545.549
  20779131.241    -8232248.40649  -6396280.39247  20779130.457    20779139.340
 02  4  3 20  7  0.0000000  0  7G24G 6G30G23G 5G17G10
  22644525.680     9515608.48649   7252242.87146  22644525.431    22644535.448
  21844960.020    -8580921.59349  -6676906.30747  21844959.859    21844968.610
  20301791.992    -4509350.97049  -3508255.70948  20301792.262    20301799.615
  22743134.600   -11181383.84449  -8475049.09146  22743134.126    22743149.422
  21100472.228     3964223.30649   3088492.43947  21100471.697    21100480.848
  24003963.833    -8308781.65949  -6452802.86545  24003963.343    24003982.081
  20774882.806    -8254573.99749  -6413676.92247  20774882.019    20774890.895
 02  4  3 20  7 30.0000000  0  7G24G 6G30G23G 5G17G10
  22659240.793     9592936.55549   7312498.40146  22659240.594    22659250.584
  21833178.938    -8642831.40749  -6725147.67247  21833178.765    21833187.502
  20303964.037    -4497936.94549  -3499361.70548  20303964.308    20303971.679
  22725095.158   -11276180.67249  -8548916.44046  22725094.645    22725109.865
  21112849.326     4029264.95749   3139174.12047  21112848.789    21112857.989
  23988432.362    -8390399.01749  -6516400.48845  23988431.895    23988450.511
  20770752.751    -8276277.55149  -6430588.74147  20770751.948    20770760.811
 02  4  3 20  8  0.0000000  0  7G24G 6G30G23G 5G17G10
  22673970.960     9670343.69549   7372815.54046  22673970.747    22673980.779
  21821419.750    -8704626.16649  -6773299.38747  21821419.595    21821428.321
  20306249.054    -4485929.30449  -3490005.14648  20306249.316    20306256.697
  22707100.610   -11370741.61549  -8622599.99746  22707100.132    22707115.202
  21125311.535     4094753.85449   3190204.29947  21125311.011    21125320.242
  23972933.001    -8471847.54149  -6579866.56545  23972932.455    23972951.011
  20766741.496    -8297356.91049  -6447014.18747  20766740.685    20766749.514
 02  4  3 20  8 30.0000000  0  7G24G 6G30G23G 5G17G10
  22688715.455     9747825.85749   7433191.14546  22688715.239    22688725.293
  21809682.270    -8766306.86849  -6821362.22747  21809682.121    21809690.823
  20308646.562    -4473330.40749  -3480187.86448  20308646.836    20308654.217
  22689150.997   -11465066.26149  -8696099.41446  22689150.518    22689165.522
  21137858.113     4160685.91949   3241579.80347  21137857.576    21137866.820
  23957465.478    -8553128.69049  -6643202.23145  23957464.973    23957483.385
  20762848.628    -8317813.88449  -6462954.66347  20762847.800    20762856.626
 02  4  3 20  9  0.0000000  0  7G24G 6G30G23G 5G17G10
  22703474.405     9825384.18549   7493626.09446  22703474.162    22703484.248
  21797967.192    -8827869.86849  -6869333.34747  21797967.031    21797975.735
  20311157.063    -4460137.83849  -3469907.98948  20311157.328    20311164.716
  22671247.387   -11559149.42949  -8769410.67046  22671246.863    22671261.783
  21150489.115     4227061.75049   3293301.09547  21150488.581    21150497.843
  23942030.385    -8634239.39849  -6706405.07345  23942029.868    23942048.261
  20759074.934    -8337644.78249  -6478407.28347  20759074.112    20759082.894
 02  4  3 20  9 30.0000000  0  7G24G 6G30G23G 5G17G10
  22718247.595     9903017.25349   7554119.28746  22718247.344    22718257.445
  21786274.672    -8889314.40649  -6917212.15847  21786274.516    21786283.222
  20313780.468    -4446351.91949  -3459165.75548  20313780.732    20313788.138
  22653390.187   -11652988.51649  -8842531.73946  22653389.645    22653404.483
  21163204.165     4293879.33849   3345366.61547  21163203.629    21163212.918
  23926627.896    -8715179.09249  -6769474.67145  23926627.391    23926645.647
  20755420.493    -8356849.00049  -6493371.57447  20755419.672    20755428.422
 02  4  3 20 10  0.0000000  0  7G24G 6G30G23G 5G17G10
  22733034.282     9980721.26349   7614667.75846  22733034.028    22733044.108
  21774604.463    -8950641.53449  -6964999.48247  21774604.285    21774612.996
  20316516.314    -4431975.22449  -3447963.18148  20316516.578    20316523.997
  22635579.498   -11746583.00949  -8915462.21946  22635578.985    22635593.738
  21176002.508     4361134.49149   3397773.09247  21176001.959    21176011.265
  23911257.571    -8795949.69549  -6832412.51445  23911257.092    23911275.242
  20751884.948    -8375428.31349  -6507848.92747  20751884.130    20751892.869
 02  4  3 20 10 30.0000000  0  7G24G 6G30G23G 5G17G10
  22747834.427    10058496.18249   7675271.48546  22747834.192    22747844.265
  21762957.111    -9011848.76949  -7012693.38347  21762956.929    21762965.641
  20319364.747    -4417006.76249  -3436299.48848  20319365.016    20319372.459
  22617816.119   -11839928.89549  -8988198.97846  22617815.603    22617830.297
  21188883.984     4428826.59349   3450520.04847  21188883.451    21188892.781
  23895919.814    -8876549.35949  -6895217.14345  23895919.260    23895937.307
  20748468.737    -8393380.56649  -6521837.67347  20748467.915    20748476.636
 02  4  3 20 11  0.0000000  0  7G24G 6G30G23G 5G17G10
  22762647.678    10136339.98949   7735928.89446  22762647.437    22762657.529
  21751332.690    -9072935.38049  -7060293.28647  21751332.506    21751341.193
  20322325.697    -4401447.07549  -3424175.10348  20322325.956    20322333.404
  22600100.452   -11933024.10649  -9060740.41446  22600099.947    22600114.556
  21201848.148     4496953.21649   3503605.59047  21201847.606    21201856.962
  23880614.579    -8956977.87849  -6957888.42745  23880614.065    23880631.924
  20745171.896    -8410705.52649  -6535337.62247  20745171.067    20745179.788
 02  4  3 20 11 30.0000000  0  7G24G 6G30G23G 5G17G10
  22777474.209    10214253.55749   7796640.65846  22777473.993    22777484.133
  21739731.894    -9133897.84849  -7107796.45247  21739731.707    21739740.384
  20325399.510    -4385294.26649  -3411588.54648  20325399.778    20325407.224
  22582433.426   -12025863.60049  -9133082.58646  22582432.937    22582447.459
  21214895.118     4565514.93649   3557030.16847  21214894.574    21214903.946
  23865342.485    -9037232.27349  -7020424.02045  23865341.968    23865359.708
  20741994.997    -8427400.03649  -6548346.30947  20741994.176    20742002.880
 02  4  3 20 12  0.0000000  0  7G24G 6G30G23G 5G17G10
  22792313.101    10292232.01149   7857402.97946  22792312.880    22792323.076
  21728154.220    -9194738.72949  -7155204.87947  21728154.032    21728162.728
  20328585.416    -4368552.47149  -3398543.04148  20328585.693    20328593.135
  22564814.934   -12118448.43049  -9205226.32246  22564814.425    22564828.841
  21228023.794     4634506.05349   3610789.33947  21228023.265    21228032.660
  23850102.846    -9117315.93149  -7082826.57545  23850102.308    23850119.991
  20738937.432    -8443467.41049  -6560866.31547  20738936.613    20738945.338
 02  4  3 20 12 30.0000000  0  7G24G 6G30G23G 5G17G10
  22807164.712    10370277.48149   7918217.51846  22807164.478    22807174.737
  21716600.601    -9255453.23449  -7202514.83447  21716600.420    21716609.119
  20331884.050    -4351218.31749  -3385035.96348  20331884.319    20331891.768
  22547246.056   -12210772.22549  -9277166.66146  22547245.557    22547259.866
  21241234.484     4703927.96149   3664884.19347  21241233.959    21241243.378
  23834896.482    -9197224.64449  -7145092.80445  23834895.985    23834913.557
  20736000.016    -8458903.39649  -6572894.32347  20735999.216    20736007.954
 02  4  3 20 13  0.0000000  0  7G24G 6G30G23G 5G17G10
  22822028.194    10448385.27849   7979080.62646  22822027.949    22822038.251
  21705070.640    -9316043.17549  -7249727.72847  21705070.443    21705079.155
  20335294.735    -4333295.22949  -3371069.97148  20335294.998    20335302.452
  22529726.832   -12302835.23049  -9348903.78846  22529726.355    22529740.560
  21254526.185     4773775.68049   3719310.84447  21254525.638    21254535.110
  23819722.978    -9276960.89149  -7207224.65645  23819722.430    23819739.916
  20733182.325    -8473710.42749  -6584432.24347  20733181.527    20733190.256
 02  4  3 20 13 30.0000000  0  7G24G 6G30G23G 5G17G10
  22836903.524    10526555.15849   8039992.10346  22836903.290    22836913.617
  21693564.873    -9376506.09849  -7296841.64947  21693564.688    21693573.399
  20338817.624    -4314782.54349  -3356644.55648  20338817.889    20338825.358
  22512257.909   -12394633.65249  -9420434.74346  22512257.439    22512271.585
  21267898.743     4844048.47449   3774068.72247  21267898.210    21267907.709
  23804582.584    -9356523.03049  -7269220.83245  23804582.021    23804599.407
  20730484.633    -8487886.92549  -6595478.83947  20730483.805    20730492.544
 02  4  3 20 14  0.0000000  0  7G24G 6G30G23G 5G17G10
  22851790.509    10604786.43949   8100951.42146  22851790.264    22851800.653
  21682083.547    -9436840.53449  -7343855.44947  21682083.356    21682092.082
  20342452.737    -4295680.13849  -3341759.62148  20342453.013    20342460.493
  22494839.994   -12486164.42649  -9491757.15846  22494839.497    22494853.567
  21281351.884     4914744.62049   3829156.48347  21281351.347    21281360.878
  23789475.420    -9435910.14649  -7331080.62345  23789474.920    23789492.222
  20727907.117    -8501431.79349  -6606033.25647  20727906.279    20727915.012
 02  4  3 20 14 30.0000000  0  7G24G 6G30G23G 5G17G10
  22866688.810    10683077.01649   8161956.93446  22866688.550    22866698.947
  21670626.781    -9497046.08849  -7390768.82747  21670626.598    21670635.321
  20346199.795    -4275989.34949  -3326416.20748  20346200.059    20346207.559
  22477473.286   -12577425.83549  -9562869.67446  22477472.780    22477486.842
  21294885.001     4985861.09249   3884571.77147  21294884.458    21294894.034
  23774401.594    -9515122.43449  -7392804.20545  23774400.986    23774418.381
  20725449.648    -8514345.79049  -6616096.09047  20725448.830    20725457.546
 02  4  3 20 15  0.0000000  0  7G24G 6G30G23G 5G17G10
  22881598.352    10761426.57749   8223008.41346  22881598.099    22881608.470
  21659194.951    -9557120.38049  -7437579.93047  21659194.792    21659203.488
  20350058.959    -4255709.59649  -3310613.86648  20350059.217    20350066.742
  22460158.558   -12668414.08849  -9633769.34446  22460158.067    22460172.097
  21308497.941     5057396.88449   3940313.79847  21308497.394    21308506.987
  23759361.275    -9594158.44449  -7454390.42345  23759360.658    23759378.100
  20723112.540    -8526627.20149  -6625666.00347  20723111.708    20723120.442
 02  4  3 20 15 30.0000000  0  7G24G 6G30G23G 5G17G10
  22896518.421    10839831.47749   8284103.02546  22896518.190    22896528.583
  21647788.023    -9617064.15049  -7484289.33047  21647787.878    21647796.556
  20354029.693    -4234843.31349  -3294354.48648  20354029.968    20354037.522
  22442895.976   -12759128.39749  -9704455.55746  22442895.507    22442909.486
  21322189.895     5129348.06549   3996379.49847  21322189.375    21322199.000
  23744354.235    -9673019.59849  -7515840.40245  23744353.676    23744371.055
  20720895.589    -8538277.40849  -6634744.07047  20720894.763    20720903.496
 02  4  3 20 16  0.0000000  0  7G24G 6G30G23G 5G17G10
  22911448.808    10918290.62749   8345239.90146  22911448.604    22911458.939
  21636406.161    -9676876.04449  -7530895.96447  21636406.018    21636414.698
  20358111.981    -4213390.94949  -3277638.41448  20358112.262    20358119.822
  22425686.068   -12849566.04749  -9774926.19146  22425685.611    22425699.542
  21335960.532     5201712.71849   4052767.39447  21335960.012    21335969.694
  23729380.624    -9751705.33849  -7577153.68145  23729380.062    23729397.323
  20718798.764    -8549296.12549  -6643330.06447  20718797.945    20718806.682
 02  4  3 20 16 30.0000000  0  7G24G 6G30G23G 5G17G10
  22926389.924    10996806.20349   8406420.76046  22926389.691    22926400.122
  21625050.330    -9736551.30449  -7577396.12447  21625050.189    21625058.855
  20362306.395    -4191349.55549  -3260463.36148  20362306.668    20362314.225
  22408529.942   -12939720.98149  -9845176.53046  22408529.478    22408543.366
  21349810.131     5274492.16249   4109478.50047  21349809.594    21349819.338
  23714441.145    -9830211.74749  -7638327.22845  23714440.655    23714457.871
  20716822.875    -8559679.36449  -6651420.87447  20716822.063    20716830.823
 02  4  3 20 17  0.0000000  0  7G24G 6G30G23G 5G17G10
  22941340.781    11075373.09449   8467641.60146  22941340.580    22941351.050
  21613719.977    -9796092.65749  -7623791.94847  21613719.833    21613728.518
  20366612.020    -4168723.62449  -3242832.82448  20366612.298    20366619.855
  22391427.324   -13029594.58649  -9915207.65446  22391426.888    22391440.720
  21363737.456     5347680.35549   4166508.11447  21363736.923    21363746.715
  23699535.149    -9908542.19849  -7699363.66845  23699534.654    23699551.795
  20714967.247    -8569430.61449  -6659019.22947  20714966.447    20714975.225
 02  4  3 20 17 30.0000000  0  7G24G 6G30G23G 5G17G10
  22956301.398    11153991.22349   8528902.36446  22956301.173    22956311.632
  21602415.636    -9855497.36049  -7670081.29447  21602415.509    21602424.159
  20371029.062    -4145512.30749  -3224746.14748  20371029.330    20371036.883
  22374379.092   -13119182.69749  -9985016.31946  22374378.650    22374392.424
  21377742.494     5421276.73549   4223855.79447  21377741.947    21377751.817
  23684663.083    -9986694.67649  -7760261.44045  23684662.590    23684679.639
  20713232.202    -8578548.22049  -6666123.84647  20713231.398    20713240.183
 02  4  3 20 18  0.0000000  0  7G24G 6G30G23G 5G17G10
  22971271.410    11232658.58249   8590201.49546  22971271.190    22971281.643
  21591137.403    -9914764.86249  -7716263.72947  21591137.257    21591145.923
  20375557.293    -4121716.74249  -3206204.21148  20375557.555    20375565.108
  22357385.567   -13208483.36949 -10054601.00546  22357385.115    22357398.825
  21391824.639     5495278.34149   4281519.23447  21391824.098    21391834.022
  23669824.772   -10064669.60049  -7821020.85445  23669824.302    23669841.280
  20711617.680    -8587032.60049  -6672735.02847  20711616.876    20711625.656
 02  4  3 20 18 30.0000000  0  7G24G 6G30G23G 5G17G10
  22986250.652    11311374.80049   8651538.69346  22986250.459    22986260.928
  21579885.585    -9973893.59749  -7762338.03247  21579885.446    21579894.105
  20380196.555    -4097337.54349  -3187207.49748  20380196.813    20380204.371
  22340447.269   -13297493.67649 -10123959.43846  22340446.831    22340460.466
  21405983.519     5569683.21349   4339496.90647  21405982.986    21405992.963
  23655020.431   -10142465.87649  -7881641.07645  23655019.951    23655036.889
  20710123.733    -8594883.26049  -6678852.40747  20710122.920    20710131.708
 02  4  3 20 19  0.0000000  0  7G24G 6G30G23G 5G17G10
  23001239.065    11390138.97649   8712913.26646  23001238.853    23001249.338
  21568660.559   -10032881.41049  -7808302.52947  21568660.407    21568669.049
  20384946.922    -4072374.40349  -3167755.76348  20384947.185    20384954.756
  22323564.905   -13386210.16049 -10193088.91946  22323564.468    22323578.037
  21420218.970     5644490.33449   4397788.01847  21420218.441    21420228.475
  23640250.361   -10220082.45049  -7942121.26345  23640249.866    23640266.693
  20708750.608    -8602098.92249  -6684474.98747  20708749.811    20708758.562
 02  4  3 20 19 30.0000000  0  7G24G 6G30G23G 5G17G10
  23016235.954    11468947.71349   8774322.53846  23016235.742    23016246.266
  21557462.203   -10091728.98849  -7854157.74847  21557462.060    21557470.681
  20389807.900    -4046830.03349  -3147851.12548  20389808.169    20389815.743
  22306738.604   -13474632.27349 -10261989.03246  22306738.137    22306751.663
  21434530.111     5719695.45549   4456389.25647  21434529.584    21434539.701
  23625514.093   -10297521.03049  -8002462.76645  23625513.608    23625530.355
  20707497.921    -8608681.93649  -6689604.59247  20707497.108    20707505.832
 02  4  3 20 20  0.0000000  0  7G24G 6G30G23G 5G17G10
  23031241.445    11547801.67649   8835767.07146  23031241.233    23031251.812
  21546291.209   -10150432.91349  -7899901.03247  21546291.073    21546299.662
  20394779.684    -4020703.28049  -3127492.68248  20394779.968    20394787.550
  22289969.146   -13562755.41749 -10330656.17646  22289968.676    22289982.107
  21448916.972     5795298.47249   4515300.54447  21448916.444    21448926.621
  23610812.258   -10374778.94749  -8062663.49045  23610811.806    23610828.452
  20706366.078    -8614629.83849  -6694239.31147  20706365.242    20706373.963
 02  4  3 20 20 30.0000000  0  7G24G 6G30G23G 5G17G10
  23046255.167    11626698.93749   8897245.33746  23046254.919    23046265.589
  21535147.660   -10208992.63649  -7945531.94847  21535147.488    21535156.069
  20399862.014    -3993995.68049  -3106681.63348  20399862.299    20399869.908
  22273256.881   -13650577.90449 -10399089.05246  22273256.406    22273269.768
  21463378.934     5871296.12849   4574519.33847  21463378.412    21463388.644
  23596144.691   -10451856.77149  -8122723.89045  23596144.200    23596160.751
  20705354.938    -8619943.27649  -6698379.64647  20705354.112    20705362.829
 02  4  3 20 21  0.0000000  0  7G24G 6G30G23G 5G17G10
  23061276.936    11705638.46349   8958756.54446  23061276.690    23061287.405
  21524031.808   -10267406.57049  -7991049.26047  21524031.653    21524040.210
  20405054.819    -3966707.43649  -3085418.13448  20405055.114    20405062.770
  22256602.442   -13738096.74549 -10467285.32446  22256601.975    22256615.269
  21477915.723     5947686.82449   4634044.39347  21477915.218    21477925.490
  23581511.459   -10528753.61249  -8182643.26145  23581510.950    23581527.480
  20704464.665    -8624621.74249  -6702025.19947  20704463.838    20704472.527
 02  4  3 20 21 30.0000000  0  7G24G 6G30G23G 5G17G10
  23076306.553    11784619.17749   9020299.81446  23076306.316    23076317.127
  21512943.924   -10325673.68749  -8036452.17047  21512943.779    21512952.313
  20410357.896    -3938839.90149  -3063703.24348  20410358.173    20410365.864
  22240006.177   -13825309.61849 -10535243.17846  22240005.725    22240018.974
  21492526.819     6024467.92649   4693873.65547  21492526.284    21492536.604
  23566912.665   -10605469.43849  -8242421.59045  23566912.217    23566928.726
  20703695.151    -8628665.47749  -6705176.15247  20703694.331    20703703.005
 02  4  3 20 22  0.0000000  0  7G24G 6G30G23G 5G17G10
  23091343.726    11863639.79949   9081874.20346  23091343.525    23091354.353
  21501884.221   -10383792.48149  -8081739.50947  21501884.085    21501892.608
  20415771.094    -3910393.60649  -3041537.36948  20415771.376    20415779.097
  22223468.674   -13912213.87649 -10602960.56246  22223468.224    22223481.408
  21507211.792     6101637.44949   4754005.58147  21507211.257    21507221.608
  23552348.558   -10682003.45849  -8302058.25045  23552348.089    23552364.511
  20703046.513    -8632074.01949  -6707832.15647  20703045.730    20703054.358
 02  4  3 20 22 30.0000000  0  7G24G 6G30G23G 5G17G10
  23106388.104    11942698.11149   9143477.94646  23106387.921    23106398.810
  21490852.820   -10441762.84749  -8126911.17647  21490852.672    21490861.177
  20421294.059    -3881370.53949  -3018922.05648  20421294.352    20421302.099
  22206990.166   -13998808.16349 -10670436.41346  22206989.691    22207002.850
  21521970.127     6179192.13749   4814437.63947  21521969.590    21521979.952
  23537818.892   -10758356.48949  -8361553.88545  23537818.388    23537834.748
  20702518.505    -8634848.66549  -6709994.21447  20702517.725    20702526.338
 02  4  3 20 23  0.0000000  0  7G24G 6G30G23G 5G17G10
  23121439.503    12021793.40849   9205110.51446  23121439.331    23121450.280
  21479850.012   -10499582.85349  -8171965.68847  21479849.860    21479858.337
  20426926.698    -3851770.91949  -2995857.48448  20426927.003    20426934.778
  22190571.200   -14085089.38149 -10737668.31646  22190570.728    22190583.832
  21536801.404     6257130.31549   4875168.51447  21536800.863    21536811.224
  23523323.774   -10834527.58149  -8420907.73845  23523323.293    23523339.560
  20702111.265    -8636988.87249  -6711661.89947  20702110.467    20702119.068
 02  4  3 20 23 30.0000000  0  7G24G 6G30G23G 5G17G10
  23136497.849    12100924.82749   9266771.24646  23136497.655    23136508.649
  21468876.224   -10557250.43649  -8216901.42547  21468876.076    21468884.531
  20432669.062    -3821594.97149  -2972343.82948  20432669.357    20432677.140
  22174212.462   -14171054.29049 -10804653.74146  22174211.973    22174225.026
  21551705.331     6335450.16249   4936196.79947  21551704.775    21551715.141
  23508863.491   -10910515.67549  -8480119.00345  23508862.983    23508879.213
  20701824.829    -8638494.17949  -6712834.86547  20701824.045    20701832.604
 02  4  3 20 24  0.0000000  0  7G24G 6G30G23G 5G17G10
  23151562.907    12180091.84449   9328459.70046  23151562.696    23151573.721
  21457931.749   -10614763.87849  -8261717.05047  21457931.603    21457940.039
  20438520.961    -3790843.47149  -2948381.68548  20438521.256    20438529.048
  22157914.439   -14256699.98549 -10871390.42646  22157913.976    22157927.012
  21566681.551     6414149.91249   4997521.10447  21566680.997    21566691.346
  23494438.116   -10986320.11249  -8539187.15045  23494437.650    23494453.846
  20701659.240    -8639364.29449  -6713512.87247  20701658.470    20701667.026
 02  4  3 20 24 30.0000000  0  7G24G 6G30G23G 5G17G10
  23166634.057    12259290.58049   9390172.86546  23166633.873    23166644.885
  21447016.378   -10672124.38549  -8306413.50647  21447016.240    21447024.661
  20444481.725    -3759519.80149  -2923973.69948  20444482.019    20444489.816
  22141677.115   -14342026.52849 -10937878.42746  22141676.657    22141689.667
  21581729.162     6493224.79749   5059137.72547  21581728.610    21581738.954
  23480047.349   -11061943.01149  -8598113.84445  23480046.873    23480062.972
  20701614.070    -8639601.63749  -6713697.81047  20701613.301    20701621.864
 02  4  3 20 25  0.0000000  0  7G24G 6G30G23G 5G17G10
  23181711.287    12338521.42949   9451911.07246  23181711.115    23181722.146
  21436130.675   -10729329.01949  -8350988.50247  21436130.536    21436138.938
  20450551.465    -3727623.34949  -2899119.38748  20450551.758    20450559.580
  22125501.367   -14427029.82649 -11004114.55346  22125500.905    22125513.894
  21596847.931     6572673.80949   5121045.87347  21596847.393    21596857.757
  23465691.510   -11137382.40149  -8656897.54445  23465691.080    23465707.056
  20701689.533    -8639205.23449  -6713388.92047  20701688.729    20701697.343
 02  4  3 20 25 30.0000000  0  7G24G 6G30G23G 5G17G10
  23196794.663    12417784.62049   9513674.46246  23196794.453    23196805.564
  21425275.166   -10786374.96849  -8395439.85147  21425275.041    21425283.427
  20456730.290    -3695153.73849  -2873818.46048  20456730.570    20456738.428
  22109387.840   -14511706.10249 -11070095.86946  22109387.350    22109400.294
  21612037.727     6652496.08049   5183244.86147  21612037.198    21612047.552
  23451370.946   -11212636.53649  -8715536.87445  23451370.474    23451386.513
  20701885.879    -8638173.45949  -6712584.93447  20701885.073    20701893.712
 02  4  3 20 26  0.0000000  0  7G24G 6G30G23G 5G17G10
  23211883.799    12497078.18749   9575461.52546  23211883.567    23211894.769
  21414449.882   -10843261.92349  -8439767.31247  21414449.755    21414458.141
  20463017.792    -3662113.02149  -2848072.51648  20463018.067    20463025.939
  22093336.838   -14596053.86849 -11135821.19246  22093336.362    22093349.265
  21627297.940     6732688.30449   5245732.13247  21627297.423    21627307.785
  23437085.529   -11287706.18749  -8774032.46145  23437085.004    23437100.971
  20702202.904    -8636507.42649  -6711286.72447  20702202.104    20702210.751
 02  4  3 20 26 30.0000000  0  7G24G 6G30G23G 5G17G10
  23226977.878    12576397.41549   9637268.59646  23226977.687    23226988.859
  21403654.483   -10899991.88849  -8483972.43847  21403654.349    21403662.737
  20469413.098    -3628505.60349  -2821884.98448  20469413.380    20469421.275
  22077348.202   -14680073.91249 -11201291.14747  22077347.721    22077360.583
  21642627.432     6813244.77349   5308503.22647  21642626.921    21642637.345
  23422834.593   -11362594.35149  -8832386.63345  23422834.140    23422849.966
  20702639.884    -8634211.02349  -6709497.31147  20702639.091    20702647.760
 02  4  3 20 27  0.0000000  0  7G24G 6G30G23G 5G17G10
  23242077.624    12655746.62849   9699099.02146  23242077.444    23242088.631
  21392890.424   -10956557.42349  -8528049.43947  21392890.280    21392898.645
  20475917.195    -3594326.61249  -2795252.07047  20475917.477    20475925.402
  22061423.546   -14763757.87449 -11266499.22847  22061423.035    22061435.866
  21658026.925     6894169.06949   5371560.93947  21658026.430    21658036.909
  23408619.424   -11437294.67149  -8890594.40845  23408618.941    23408634.743
  20703197.930    -8631278.49149  -6707212.21447  20703197.135    20703205.821
 02  4  3 20 27 30.0000000  0  7G24G 6G30G23G 5G17G10
  23257182.107    12735120.69349   9760948.80346  23257181.908    23257193.096
  21382156.954   -11012961.95849  -8572000.98947  21382156.841    21382165.179
  20482528.915    -3559581.94749  -2768178.37647  20482529.200    20482537.158
  22045562.372   -14847108.11349 -11331447.26147  22045561.875    22045574.642
  21673495.115     6975454.15649   5434899.78447  21673494.621    21673505.163
  23394439.110   -11511811.73349  -8948659.41445  23394438.638    23394454.339
  20703876.058    -8627714.75349  -6704435.27147  20703875.275    20703883.971
 02  4  3 20 28  0.0000000  0  7G24G 6G30G23G 5G17G10
  23272291.548    12814520.60949   9822818.72546  23272291.328    23272302.511
  21371454.836   -11069201.70549  -8615824.13247  21371454.730    21371463.052
  20489248.521    -3524270.36049  -2740662.92147  20489248.808    20489256.804
  22029765.608   -14930119.79249 -11396131.49647  22029765.121    22029777.859
  21689031.939     7057100.00549   5498519.73847  21689031.436    21689042.007
  23380294.205   -11586142.59749  -9006579.31445  23380293.740    23380309.465
  20704674.717    -8623517.79849  -6701164.91347  20704673.933    20704682.620
 02  4  3 20 28 30.0000000  0  7G24G 6G30G23G 5G17G10
  23287405.170    12893942.67649   9884705.92446  23287404.975    23287416.121
  21360783.915   -11125277.79149  -8659519.74947  21360783.787    21360792.089
  20496075.332    -3488395.41749  -2712708.49147  20496075.622    20496083.646
  22014033.282   -15012792.88749 -11460551.89847  22014032.802    22014045.495
  21704636.490     7139101.68149   5562416.96447  21704635.973    21704646.605
  23366184.336   -11660289.77349  -9064356.08946  23366183.788    23366199.504
  20705593.294    -8618690.72749  -6697403.55447  20705592.497    20705601.171
 02  4  3 20 29  0.0000000  0  7G24G 6G30G23G 5G17G10
  23302523.515    12973389.61749   9946612.50046  23302523.328    23302534.492
  21350145.101   -11181185.03449  -8703083.80347  21350144.972    21350153.245
  20503009.836    -3451954.63349  -2684313.14847  20503010.121    20503018.171
  21998366.515   -15095121.47049 -11524703.85647  21998366.038    21998378.663
  21720309.011     7221460.48849   5626592.47147  21720308.483    21720319.162
  23352110.236   -11734248.90149  -9121986.34146  23352109.641    23352125.350
  20706632.419    -8613230.07249  -6693148.49947  20706631.607    20706640.288
 02  4  3 20 29 30.0000000  0  7G24G 6G30G23G 5G17G10
  23317646.156    13052858.92749  10008536.50046  23317645.979    23317657.141
  21339538.486   -11236923.08649  -8746516.02247  21339538.345    21339546.611
  20510051.649    -3414949.95549  -2655478.40947  20510051.916    20510059.973
  21982765.581   -15177104.07649 -11588586.21547  21982765.099    21982777.669
  21736048.849     7304173.24849   5691043.77847  21736048.327    21736059.066
  23338071.710   -11808020.87849  -9179470.75546  23338071.070    23338086.749
  20707791.898    -8607136.94349  -6688400.60347  20707791.085    20707799.774
 02  4  3 20 30  0.0000000  0  8G24G 6G30G23G 5G15G17G10
  23332770.278    13132336.31849  10070466.81046  23332770.119    23332781.275
  21328961.729   -11292504.25149  -8789825.98547  21328961.587    21328969.878
  20517197.832    -3377396.85249  -2626216.32347  20517198.109    20517206.185
  21967228.298   -15258752.22949 -11652207.96147  21967227.825    21967240.342
  21751852.975     7387223.67049   5755758.20347  21751852.456    21751863.250
  24716351.455    -3965375.16949  -3067988.14344  24716350.996    24716374.420
  23324066.253   -11881619.10349  -9236819.78546  23324065.646    23324081.255
  20709068.941    -8600425.92649  -6683171.23147  20709068.150    20709076.831
 02  4  3 20 30 30.0000000  0  8G24G 6G30G23G 5G15G17G10
  23347898.476    13211834.82649  10132413.56946  23347898.306    23347909.526
  21318417.818   -11347912.76749  -8833001.42147  21318417.677    21318425.965
  20524450.877    -3339282.04949  -2596516.55647  20524451.168    20524459.260
  21951757.850   -15340049.13749 -11715556.01847  21951757.385    21951769.861
  21767723.648     7470623.78749   5820745.11547  21767723.108    21767733.949
  24699283.087    -4055068.67849  -3137878.83744  24699282.593    24699305.914
  23310096.564   -11955029.13749  -9294022.16746  23310095.987    23310111.519
  20710466.276    -8593082.96949  -6677449.43647  20710465.473    20710474.134
 02  4  3 20 31  0.0000000  0  8G24G 6G30G23G 5G15G17G10
  23363030.806    13291355.54549  10194377.63146  23363030.660    23363041.942
  21307907.429   -11403145.10149  -8876039.57147  21307907.283    21307915.563
  20531810.998    -3300604.69949  -2566378.44047  20531811.283    20531819.383
  21936355.160   -15420990.27549 -11778626.85747  21936354.708    21936367.105
  21783660.780     7554373.18349   5886004.19247  21783660.236    21783671.125
  24682240.756    -4144625.07549  -3207662.68544  24682240.171    24682263.603
  23296163.195   -12028248.57049  -9351076.02946  23296162.622    23296178.063
  20711984.101    -8585106.69449  -6671234.15547  20711983.302    20711991.955
 02  4  3 20 31 30.0000000  0  8G24G 6G30G23G 5G15G17G10
  23378166.860    13370895.88249  10256356.97346  23378166.801    23378178.084
  21297430.601   -11458201.16649  -8918940.37247  21297430.446    21297438.700
  20539277.705    -3261367.15349  -2535803.80847  20539277.984    20539286.085
  21921020.357   -15501574.57649 -11841419.64047  21921019.884    21921032.172
  21799663.632     7638468.00249   5951532.42947  21799663.077    21799674.025
  24665224.443    -4234044.97849  -3277340.14944  24665224.102    24665247.244
  23282265.948   -12101278.22749  -9407982.01446  23282265.383    23282280.771
  20713622.154    -8576498.63349  -6664526.57247  20713621.338    20713630.015
 02  4  3 20 32  0.0000000  0  8G24G 6G30G23G 5G15G17G10
  23393306.722    13450455.60549  10318351.42346  23393306.591    23393317.953
  21286987.690   -11513078.87649  -8961702.18747  21286987.535    21286995.767
  20546850.853    -3221570.47349  -2504793.48847  20546851.131    20546859.216
  21905754.025   -15581799.17549 -11903932.13047  21905753.553    21905765.755
  21815731.864     7722906.37849   6017328.37647  21815731.293    21815742.322
  24648234.396    -4323327.24849  -3346910.37945  24648233.813    24648257.148
  23268404.979   -12174117.32049  -9464739.52046  23268404.519    23268419.730
  20715380.469    -8567258.64849  -6657326.57847  20715379.671    20715388.351
 02  4  3 20 32 30.0000000  0  8G24G 6G30G23G 5G15G17G10
  23408449.434    13530030.50349  10380357.69346  23408449.328    23408460.652
  21276578.487   -11567779.66349  -9004326.14647  21276578.341    21276586.555
  20554529.580    -3181218.89549  -2473350.78647  20554529.855    20554537.899
  21890556.018   -15661664.58049 -11966164.74047  21890555.554    21890567.676
  21831864.448     7807682.90849   6083387.81247  21831863.885    21831874.962
  24631270.069    -4412474.15049  -3416375.10445  24631269.397    24631292.649
  23254579.692   -12246768.72849  -9521350.79146  23254579.220    23254594.421
  20717258.338    -8557390.45849  -6649637.08247  20717257.541    20717266.205
 02  4  3 20 33  0.0000000  0  8G24G 6G30G23G 5G15G17G10
  23423594.771    13609619.09549  10442374.65646  23423594.652    23423605.957
  21266203.013   -11622302.92049  -9046811.76347  21266202.864    21266211.055
  20562313.556    -3140314.22049  -2441477.09547  20562313.826    20562321.879
  21875426.626   -15741169.38649 -12028116.36147  21875426.128    21875438.201
  21848060.761     7892794.58249   6149708.40347  21848060.212    21848071.350
  24614331.489    -4501485.68749  -3485734.36045  24614330.734    24614354.074
  23240790.070   -12319232.75349  -9577816.03846  23240789.597    23240804.778
  20719255.509    -8546895.11849  -6641458.88947  20719254.708    20719263.392
 02  4  3 20 33 30.0000000  0  8G24G 6G30G23G 5G15G17G10
  23438742.840    13689221.90849  10504402.67346  23438742.646    23438754.017
  21255861.952   -11676645.46749  -9089156.57047  21255861.813    21255869.993
  20570202.806    -3098856.38149  -2409172.37147  20570203.065    20570211.147
  21860366.631   -15820309.60049 -12089783.88747  21860366.124    21860378.120
  21864320.725     7978240.45049   6216289.40447  21864320.176    21864331.384
  24597419.083    -4590359.60549  -3554986.40045  24597418.382    24597441.478
  23227036.466   -12391507.50049  -9634133.81246  23227036.008    23227051.162
  20721372.182    -8535771.89449  -6632791.44047  20721371.393    20721380.046
 02  4  3 20 34  0.0000000  0  8G24G 6G30G23G 5G15G17G10
  23453893.385    13768838.11349  10566441.13046  23453893.237    23453904.633
  21245555.654   -11730805.28649  -9131358.99147  21245555.508    21245563.694
  20578197.120    -3056846.18249  -2376437.23747  20578197.390    20578205.489
  21845376.557   -15899082.31949 -12151165.05547  21845376.041    21845388.015
  21880643.900     8064018.63549   6283129.34347  21880643.365    21880654.616
  24580533.098    -4679095.05149  -3624130.53145  24580532.302    24580555.385
  23213319.076   -12463592.24149  -9690303.52746  23213318.544    23213333.600
  20723608.338    -8524020.91849  -6623634.83347  20723607.535    20723616.199
 02  4  3 20 34 30.0000000  0  8G24G 6G30G23G 5G15G17G10
  23469045.665    13848463.27849  10628486.57646  23469045.518    23469056.935
  21235283.725   -11784784.50849  -9173420.69047  21235283.579    21235291.759
  20586295.623    -3014288.74249  -2343275.68147  20586295.894    20586304.017
  21830456.102   -15977488.95649 -12212260.96247  21830455.620    21830467.561
  21897029.164     8150122.97349   6350223.43547  21897028.622    21897039.924
  24563672.769    -4767695.25149  -3693169.26245  24563672.153    24563695.055
  23199637.148   -12535490.38849  -9746327.86346  23199636.596    23199651.599
  20725963.092    -8511646.61249  -6613992.51647  20725962.285    20725970.927
 02  4  3 20 35  0.0000000  0  8G24G 6G30G23G 5G15G17G10
  23484200.216    13928100.45549  10690541.38945  23484200.017    23484211.541
  21225047.191   -11838577.91949  -9215337.60047  21225047.046    21225055.216
  20594498.647    -2971181.73549  -2309685.89147  20594498.935    20594507.083
  21815606.553   -16055523.26549 -12273066.73647  21815606.050    21815617.939
  21913476.777     8236554.95749   6417572.83647  21913476.206    21913487.582
  24546839.078    -4856155.50549  -3762098.96645  24546838.438    24546861.279
  23185991.485   -12607197.82449  -9802203.58146  23185990.973    23186005.892
  20728437.114    -8498645.57649  -6603861.83647  20728436.312    20728444.926
 02  4  3 20 35 30.0000000  0  8G24G 6G30G23G 5G15G17G10
  23499356.161    14007745.01649  10752601.95945  23499355.964    23499367.516
  21214845.675   -11892187.19549  -9257111.02847  21214845.518    21214853.686
  20602805.413    -2927529.73549  -2275671.43547  20602805.704    20602813.865
  21800827.641   -16133186.23049 -12333583.15847  21800827.152    21800838.984
  21929985.603     8323308.66949   6485172.92147  21929985.047    21929996.476
  24530031.519    -4944478.47349  -3830921.71245  24530030.914    24530053.572
  23172381.539   -12678717.67249  -9857933.12946  23172381.045    23172395.848
  20731029.615    -8485021.74349  -6593245.86147  20731028.818    20731037.432
 02  4  3 20 36  0.0000000  0  8G24G 6G30G23G 5G15G17G10
  23514513.780    14087398.20549  10814669.24345  23514513.601    23514525.116
  21204679.911   -11945608.50149  -9298737.98747  21204679.756    21204687.931
  20611216.038    -2883332.07049  -2241231.78647  20611216.322    20611224.507
  21786120.249   -16210473.48749 -12393806.82347  21786119.753    21786131.518
  21946555.648     8410384.08149   6553023.68747  21946555.096    21946566.554
  24513250.556    -5032661.41949  -3899635.35545  24513250.040    24513272.496
  23158807.740   -12750047.49749  -9913514.61746  23158807.242    23158822.012
  20733740.894    -8470773.86949  -6582143.62947  20733740.110    20733748.726
 02  4  3 20 36 30.0000000  0  8G24G 6G30G23G 5G15G17G10
  23529672.901    14167059.37549  10876742.74845  23529672.726    23529684.260
  21194550.225   -11998840.17249  -9340217.17547  21194550.079    21194558.264
  20619730.204    -2838590.27549  -2206368.13947  20619730.488    20619738.687
  21771484.788   -16287382.80049 -12453735.98447  21771484.275    21771496.005
  21963186.400     8497778.48449   6621123.01247  21963185.852    21963197.376
  24496496.417    -5120703.80449  -3968239.45945  24496495.890    24496518.278
  23145270.172   -12821186.82549  -9968947.66446  23145269.683    23145284.495
  20736570.823    -8455902.55749  -6570555.59647  20736570.041    20736578.639
 02  4  3 20 37  0.0000000  0  8G24G 6G30G23G 5G15G17G10
  23544833.244    14246727.00149  10938821.28345  23544833.151    23544844.697
  21184456.770   -12051881.51449  -9381548.05447  21184456.636    21184464.822
  20628347.493    -2793306.34649  -2171082.05347  20628347.782    20628356.018
  21756921.497   -16363912.47249 -12513369.31847  21756920.997    21756932.683
  21979877.263     8585488.74149   6689468.46247  21979876.718    21979888.267
  24479768.956    -5208605.52349  -4036733.98045  24479768.430    24479790.850
  23131768.832   -12892136.23549 -10024232.73546  23131768.350    23131783.065
  20739519.055    -8440409.56849  -6558483.13847  20739518.280    20739526.848
 02  4  3 20 37 30.0000000  0  8G24G 6G30G23G 5G15G17G10
  23559994.251    14326397.98149  11000902.43545  23559994.115    23560005.732
  21174399.460   -12104732.92149  -9422730.93147  21174399.318    21174407.490
  20637067.269    -2747483.86349  -2135376.31147  20637067.555    20637075.825
  21742430.572   -16440062.13349 -12572706.53447  21742430.059    21742441.734
  21996627.386     8673510.47349   6758056.61147  21996626.862    21996638.463
  24463068.144    -5296368.01849  -4105120.03545  24463067.512    24463089.851
  23118303.335   -12962897.49449 -10079371.17446  23118302.833    23118317.460
  20742585.117    -8424297.31549  -6545928.14347  20742584.338    20742592.903
 02  4  3 20 38  0.0000000  0  8G24G 6G30G23G 5G15G17G10
  23575156.330    14406074.47449  11062987.89345  23575156.128    23575167.787
  21164379.132   -12157389.91349  -9463762.31247  21164378.985    21164387.155
  20645889.817    -2701121.41149  -2099249.81747  20645890.108    20645898.376
  21728012.921   -16515826.79449 -12631743.75847  21728012.420    21728024.036
  22013436.873     8761843.93449   6826887.66647  22013436.325    22013447.961
  24446394.390    -5383987.80949  -4173394.86145  24446393.664    24446415.919
  23104874.164   -13033467.35649 -10134360.49746  23104873.739    23104888.257
  20745769.459    -8407563.63049  -6532888.90847  20745768.683    20745777.247
 02  4  3 20 38 30.0000000  0  8G24G 6G30G23G 5G15G17G10
  23590318.733    14485752.82349  11125074.78845  23590318.542    23590330.203
  21154395.535   -12209853.84049  -9504643.25547  21154395.387    21154403.581
  20654814.280    -2654223.44549  -2062706.04147  20654814.569    20654822.861
  21713668.462   -16591206.87449 -12690481.30847  21713667.951    21713679.523
  22030304.666     8850483.94849   6895957.59247  22030304.147    22030315.835
  24429747.372    -5471467.24349  -4241560.34245  24429746.629    24429768.682
  23091480.966   -13103848.46049 -10189202.73446  23091480.551    23091495.006
  20749071.282    -8390212.51149  -6519368.56447  20749070.497    20749079.057
 02  4  3 20 39  0.0000000  0  8G24G 6G30G23G 5G15G17G10
  23605481.934    14565435.29549  11187164.90145  23605481.755    23605493.423
  21144449.609   -12262119.90849  -9545370.02747  21144449.452    21144457.632
  20663840.993    -2606788.14649  -2025743.56247  20663841.280    20663849.612
  21699398.165   -16666197.03649 -12748915.03047  21699397.660    21699409.170
  22047230.936     8939431.05749   6965266.81347  22047230.410    22047242.119
  24413127.752    -5558802.46449  -4309613.44745  24413127.154    24413149.118
  23078124.345   -13174037.35449 -10243895.18346  23078123.898    23078138.348
  20752491.024    -8372241.58849  -6505365.25947  20752490.240    20752498.785
 02  4  3 20 39 30.0000000  0  8G24G 6G30G23G 5G15G17G10
  23620645.130    14645117.79849  11249255.01545  23620644.898    23620656.634
  21134541.054   -12314189.52949  -9585943.72347  21134540.902    21134549.068
  20672969.064    -2558820.17149  -1988366.01447  20672969.361    20672977.714
  21685201.911   -16740798.06549 -12807045.54047  21685201.428    21685212.888
  22064214.625     9028679.98549   7034811.20947  22064214.112    22064225.822
  24396535.173    -5645995.90449  -4377556.07545  24396534.622    24396556.514
  23064803.793   -13244036.80949 -10298440.02846  23064803.319    23064817.692
  20756028.004    -8353654.70649  -6490881.98247  20756027.211    20756035.754
 02  4  3 20 40  0.0000000  0  8G24G 6G30G23G 5G15G17G10
  23635808.487    14724801.17849  11311345.81845  23635808.210    23635820.080
  21124670.442   -12366059.72549  -9626362.02547  21124670.295    21124678.439
  20682198.467    -2510319.83449  -1950573.63847  20682198.742    20682207.140
  21671080.407   -16815006.50549 -12864870.13447  21671079.934    21671091.344
  22081255.501     9118229.53349   7104589.85346  22081255.005    22081266.730
  24379969.929    -5733045.64149  -4445386.72245  24379969.299    24379991.174
  23051519.518   -13313845.23249 -10352836.01546  23051519.026    23051533.350
  20759682.316    -8334451.26549  -6475918.26747  20759681.532    20759690.072
 02  4  3 20 40 30.0000000  0  8G24G 6G30G23G 5G15G17G10
  23650971.683    14804483.74449  11373435.97245  23650971.403    23650983.319
  21114838.022   -12417729.39349  -9666624.07247  21114837.872    21114845.999
  20691528.774    -2461289.29949  -1912368.12147  20691529.052    20691537.459
  21657033.918   -16888820.59149 -12922387.44747  21657033.448    21657044.800
  22098353.016     9208076.61649   7174600.35446  22098352.499    22098364.275
  24363432.099    -5819951.46649  -4513105.22445  24363431.448    24363453.138
  23038271.581   -13383462.98049 -10407083.42946  23038271.097    23038285.326
  20763453.678    -8314632.76449  -6460475.29047  20763452.871    20763461.410
 02  4  3 20 41  0.0000000  0  8G24G 6G30G23G 5G15G17G10
  23666134.573    14884164.53249  11435524.73745  23666134.286    23666146.186
  21105043.977   -12469197.33049  -9706728.92547  21105043.822    21105051.920
  20700959.570    -2411730.45149  -1873750.93047  20700959.854    20700968.265
  21643062.882   -16962238.34649 -12979595.92947  21643062.390    21643073.724
  22115506.659     9298218.58449   7244840.63146  22115506.123    22115517.961
  24346921.606    -5906713.26549  -4580711.49145  24346920.889    24346942.596
  23025059.892   -13452890.17649 -10461182.35846  23025059.383    23025073.650
  20767341.794    -8294200.59549  -6444554.11947  20767340.989    20767349.538
 02  4  3 20 41 30.0000000  0  8G24G 6G30G23G 5G15G17G10
  23681297.091    14963843.46649  11497612.04746  23681296.810    23681308.794
  21095288.810   -12520460.94249  -9746674.56847  21095288.646    21095296.746
  20710490.783    -2361644.05649  -1834722.66847  20710491.075    20710499.494
  21629167.811   -17035256.73549 -13036493.22247  21629167.319    21629178.629
  22132716.047     9388653.81649   7315309.40746  22132715.509    22132727.432
  24330438.846    -5993329.48349  -4648204.31545  24330438.038    24330459.847
  23011884.762   -13522125.58049 -10515131.84246  23011884.284    23011898.445
  20771346.666    -8273154.92449  -6428154.90247  20771345.866    20771354.409
 02  4  3 20 42  0.0000000  0  8G24G 6G30G23G 5G15G17G10
  23696458.368    15043515.66049  11559694.12546  23696458.083    23696470.084
  21085572.015   -12571522.91449  -9786463.08347  21085571.852    21085579.941
  20720121.215    -2311036.08849  -1795287.98247  20720121.498    20720129.931
  21615348.323   -17107877.84849 -13093080.95147  21615347.846    21615359.127
  22149979.919     9479375.33749   7386001.28046  22149979.398    22149991.367
  24313983.035    -6079803.97749  -4715586.70245  24313982.440    24314003.944
  22998745.267   -13591173.30649 -10568935.08646  22998744.780    22998758.877
  20775467.312    -8251500.89249  -6411281.63647  20775466.504    20775475.066
 02  4  3 20 42 30.0000000  0  8G24G 6G30G23G 5G15G17G10
  23711619.149    15123185.51749  11621774.36845  23711618.847    23711630.891
  21075894.879   -12622376.30149  -9826089.07147  21075894.722    21075902.808
  20729851.657    -2259902.74149  -1755443.91147  20729851.932    20729860.394
  21601605.870   -17180094.24249 -13149353.31047  21601605.430    21601616.672
  22167298.797     9570385.82149   7456918.31046  22167298.238    22167310.308
  24297555.291    -6166130.73849  -4782853.96345  24297554.663    24297576.163
  22985642.553   -13660027.92749 -10622587.85646  22985642.022    22985656.143
  20779704.553    -8229234.05549  -6393930.86047  20779703.750    20779712.308
 02  4  3 20 43  0.0000000  0  8G24G 6G30G23G 5G15G17G10
  23726779.174    15202851.62149  11683851.69745  23726778.922    23726790.995
  21066257.667   -12673020.01149  -9865551.67147  21066257.514    21066265.596
  20739681.598    -2208246.41949  -1715192.33347  20739681.857    20739690.357
  21587940.767   -17251904.29349 -13205309.04547  21587940.310    21587951.510
  22184672.101     9661682.35949   7528058.23946  22184671.551    22184683.683
  24281155.736    -6252309.40949  -4850005.80945  24281155.176    24281176.489
  22972576.523   -13728689.36649 -10676090.10246  22972576.057    22972590.164
  20784058.103    -8206356.03449  -6376103.83547  20784057.297    20784065.859
 02  4  3 20 43 30.0000000  0  8G24G 6G30G23G 5G15G17G10
  23741938.183    15282512.28549  11745924.78645  23741937.948    23741950.077
  21056660.409   -12723453.74749  -9904850.65547  21056660.267    21056668.344
  20749610.475    -2156070.14549  -1674535.59147  20749610.743    20749619.276
  21574353.078   -17323307.35549 -13260947.64347  21574352.627    21574363.773
  22202099.131     9753261.16849   7599418.12246  22202098.596    22202110.796
  24264784.090    -6338341.33049  -4917043.31445  24264783.491    24264804.963
  22959546.998   -13797159.22449 -10729443.06446  22959546.497    22959560.650
  20788527.455    -8182869.37349  -6357802.54547  20788526.643    20788535.215
 02  4  3 20 44  0.0000000  0  8G24G 6G30G23G 5G15G17G10
  23757095.747    15362165.51049  11807992.06945  23757095.554    23757107.666
  21047103.319   -12773676.51649  -9943985.25347  21047103.174    21047111.243
  20759637.835    -2103376.42649  -1633475.64747  20759638.101    20759646.656
  21560843.171   -17394301.96149 -13316267.96547  21560842.719    21560853.801
  22219579.209     9845118.77649   7670995.24446  22219578.675    22219590.928
  24248440.400    -6424226.39449  -4983966.38145  24248439.755    24248461.283
  22946553.844   -13865437.99249 -10782647.11646  22946553.342    22946567.440
  20793112.252    -8158776.17249  -6339028.62647  20793111.439    20793120.032
 02  4  3 20 44 30.0000000  0  8G24G 6G30G23G 5G15G17G10
  23772252.169    15441812.13949  11870054.22445  23772251.892    23772264.052
  21037586.905   -12823685.40449  -9982953.19347  21037586.762    21037594.834
  20769763.512    -2050165.82949  -1592012.94447  20769763.791    20769772.367
  21547411.610   -17464884.78049 -13371267.42047  21547411.148    21547422.223
  22237112.162     9937254.06349   7742788.73346  22237111.628    22237123.930
  24232124.986    -6509962.82449  -5050773.63045  24232124.429    24232145.731
  22933597.374   -13933523.93049 -10835700.92246  22933596.911    22933610.974
  20797812.520    -8134076.00349  -6319781.75047  20797811.725    20797820.315
 02  4  3 20 45  0.0000000  0  8G24G 6G30G23G 5G15G17G10
  23787406.830    15521449.90549  11932109.46145  23787406.601    23787418.800
  21028111.249   -12873480.06049 -10021754.19747  21028111.122    21028119.201
  20779987.026    -1996441.37949  -1550149.83547  20779987.314    20779995.906
  21534058.533   -17535055.10149 -13425945.45147  21534058.062    21534069.096
  22254697.191    10029663.18949   7814795.60646  22254696.684    22254709.015
  24215837.715    -6595551.49149  -5117465.74545  24215837.105    24215858.439
  22920677.275   -14001418.42949 -10888605.55146  22920676.846    22920690.907
  20802627.817    -8108771.47449  -6300063.94547  20802627.021    20802635.617
 02  4  3 20 45 30.0000000  0  8G24G 6G30G23G 5G15G17G10
  23802559.726    15601078.19049  11994157.32145  23802559.481    23802571.678
  21018676.739   -12923058.72749 -10060386.89647  21018676.613    21018684.704
  20790307.945    -1942205.04349  -1507887.85447  20790308.239    20790316.862
  21520784.348   -17604810.76249 -13480300.37447  21520783.872    21520794.889
  22272333.850    10122343.70249   7887013.95246  22272333.344    22272345.743
  24199578.680    -6680991.76949  -5184042.23145  24199578.122    24199599.245
  22907793.731   -14069121.18949 -10941360.77746  22907793.295    22907807.317
  20807557.941    -8082863.66449  -6279876.05247  20807557.148    20807565.732
 02  4  3 20 46  0.0000000  0  8G24G 6G30G23G 5G15G17G10
  23817710.685    15680696.40049  12056197.33245  23817710.411    23817722.665
  21009283.707   -12972419.39949 -10098849.72947  21009283.576    21009291.668
  20800726.035    -1887457.97749  -1465227.90547  20800726.327    20800734.990
  21507589.521   -17674149.41049 -13534330.35047  21507589.046    21507600.039
  22290021.730    10215293.18949   7959441.88246  22290021.219    22290033.677
  24183348.068    -6766282.77649  -5250502.41245  24183347.528    24183368.540
  22894946.776   -14136631.85649 -10993966.31946  22894946.289    22894960.319
  20812602.608    -8056353.59849  -6259218.86847  20812601.826    20812610.405
 02  4  3 20 46 30.0000000  0  8G24G 6G30G23G 5G15G17G10
  23832860.150    15760306.66349  12118231.15245  23832859.854    23832872.160
  20999932.926   -13021557.94349 -10137139.47547  20999932.789    20999940.873
  20811241.385    -1832199.83549  -1422169.71847  20811241.667    20811250.355
  21494474.961   -17743066.41149 -13588031.77447  21494474.475    21494485.435
  22307760.813    10308511.91849   8032079.61146  22307760.299    22307772.852
  24167146.466    -6851421.56049  -5316843.97445  24167145.924    24167166.842
  22882136.849   -14203947.61249 -11046419.98446  22882136.407    22882150.344
  20817762.187    -8029239.72249  -6238091.18847  20817761.414    20817770.004
 02  4  3 20 47  0.0000000  0  8G24G 6G30G23G 5G15G17G10
  23848006.791    15839902.38749  12180253.63645  23848006.598    23848018.823
  20990623.689   -13070478.29749 -10175259.19947  20990623.544    20990631.613
  20821852.584    -1776437.92549  -1378718.97847  20821852.861    20821861.588
  21481439.936   -17811565.38449 -13641407.45647  21481439.439    21481450.339
  22325549.512    10401991.39749   8104920.51946  22325549.004    22325561.628
  24150972.877    -6936413.13249  -5383070.83645  24150972.390    24150993.188
  22869362.984   -14271074.03049 -11098726.09846  22869362.530    22869376.421
  20823035.398    -8001528.97349  -6216498.40847  20823034.593    20823043.191
 02  4  3 20 47 30.0000000  0  8G24G 6G30G23G 5G15G17G10
  23863151.308    15919486.46949  12242267.03445  23863151.094    23863163.342
  20981356.888   -13119175.61149 -10213205.13147  20981356.739    20981364.797
  20832559.922    -1720170.98449  -1334874.71647  20832560.208    20832568.938
  21468485.409   -17879641.22249 -13694453.42847  21468484.937    21468495.778
  22343387.992    10495732.24449   8177965.08846  22343387.454    22343400.191
  24134828.047    -7021253.81349  -5449180.11345  24134827.627    24134848.244
  22856625.798   -14338007.55949 -11150881.91746  22856625.398    22856639.212
  20828422.527    -7973219.28449  -6194438.92147  20828421.724    20828430.345
 02  4  3 20 48  0.0000000  0  8G24G 6G30G23G 5G15G17G10
  23878293.093    15999056.25149  12304269.31845  23878292.941    23878305.171
  20972132.559   -13167649.65449 -10250977.08247  20972132.425    20972140.454
  20843362.694    -1663402.42149  -1290639.57947  20843362.990    20843371.747
  21455611.494   -17947293.56749 -13747169.40647  21455611.020    21455621.816
  22361275.399    10589730.34749   8251210.11946  22361274.871    22361287.681
  24118711.739    -7105944.63049  -5515172.62145  24118711.244    24118731.838
  22843925.159   -14404749.54049 -11202888.48746  22843924.740    22843938.472
  20833923.048    -7944313.95449  -6171915.30147  20833922.246    20833930.857
 02  4  3 20 48 30.0000000  0  8G24G 6G30G23G 5G15G17G10
  23893432.470    16078613.35349  12366261.71345  23893432.350    23893444.567
  20962951.511   -13215896.31849 -10288571.85547  20962951.351    20962959.385
  20854261.021    -1606131.80149  -1246013.23247  20854261.325    20854270.096
  21442818.991   -18014518.02249 -13799551.96247  21442818.516    21442829.266
  22379211.751    10683985.56349   8324655.49046  22379211.204    22379224.071
  24102624.512    -7190482.85049  -5581046.22945  24102623.901    24102644.395
  22831261.381   -14471297.71649 -11254744.04046  22831260.917    22831274.563
  20839537.170    -7914811.50649  -6148926.39847  20839536.379    20839544.988
 02  4  3 20 49  0.0000000  0  8G24G 6G30G23G 5G15G17G10
  23908568.574    16158153.62049  12428240.98745  23908568.492    23908580.666
  20953813.308   -13263917.78749 -10325991.15647  20953813.157    20953821.181
  20865253.774    -1548364.72449  -1201000.03647  20865254.085    20865262.886
  21430107.635   -18081316.04249 -13851602.23247  21430107.166    21430117.878
  22397195.885    10778491.71249   8398296.38146  22397195.344    22397208.240
  24086565.651    -7274871.52449  -5646803.29545  24086565.039    24086585.322
  22818633.766   -14537655.64349 -11306451.34446  22818633.269    22818646.879
  20845263.929    -7884717.28349  -6125476.37247  20845263.155    20845271.765
 02  4  3 20 49 30.0000000  0  8G24G 6G30G23G 5G15G17G10
  23923702.137    16237680.58049  12490209.88345  23923702.015    23923714.342
  20944719.118   -13311707.98749 -10363230.24347  20944718.973    20944726.972
  20876341.436    -1490098.98449  -1155598.27447  20876341.749    20876350.580
  21417478.547   -18147681.68149 -13903315.58347  21417478.109    21417488.764
  22415228.029    10873250.33049   8472134.00446  22415227.520    22415240.451
  24070536.144    -7359105.77449  -5712440.03845  24070535.515    24070555.774
  22806043.209   -14603818.79149 -11358006.87746  22806042.716    22806056.288
  20851103.890    -7854028.36849  -6101562.94847  20851103.092    20851111.680
 02  4  3 20 50  0.0000000  0  8G24G 6G30G23G 5G15G17G10
  23938832.568    16317191.19049  12552166.06145  23938832.452    23938844.847
  20935668.835   -13359267.42849 -10400289.52147  20935668.678    20935676.690
  20887523.214    -1431338.77549  -1109811.21247  20887523.518    20887532.401
  21404931.768   -18213615.20649 -13954692.22647  21404931.305    21404941.914
  22433307.345    10968256.46749   8546164.49246  22433306.815    22433319.779
  24054535.653    -7443187.61549  -5777958.01045  24054534.913    24054555.185
  22793489.293   -14669789.39649 -11409412.36946  22793488.816    22793502.316
  20857056.301    -7822748.33049  -6077188.90847  20857055.491    20857064.089
 02  4  3 20 50 30.0000000  0  8G24G 6G30G23G 5G15G17G10
  23953959.783    16396684.70349  12614108.92145  23953959.639    23953972.137
  20926662.751   -13406594.57649 -10437167.79547  20926662.603    20926670.598
  20898798.665    -1372086.26649  -1063640.54647  20898798.972    20898807.887
  21392467.484   -18279114.79949 -14005730.74347  21392467.024    21392477.589
  22451433.291    11063507.69249   8620385.96446  22451432.726    22451445.733
  24038564.266    -7527116.53849  -5843356.82445  24038563.540    24038583.792
  22780972.118   -14735567.32249 -11460667.72346  22780971.582    22780985.060
  20863120.863    -7790878.84649  -6052355.56047  20863120.062    20863128.652
 02  4  3 20 51  0.0000000  0  8G24G 6G30G23G 5G15G17G10
  23969083.287    16476158.92649  12676036.75645  23969083.129    23969095.706
  20917700.891   -13453689.41049 -10473865.04447  20917700.747    20917708.753
  20910167.128    -1312344.98349  -1017089.01147  20910167.442    20910176.396
  21380085.845   -18344180.17349 -14056430.90747  21380085.395    21380095.938
  22469604.987    11158999.49349   8694794.89046  22469604.466    22469617.531
  24022621.733    -7610893.93449  -5908637.57645  24022621.016    24022641.062
  22768491.259   -14801154.10649 -11511774.15046  22768490.693    22768504.136
  20869297.011    -7758423.09149  -6027065.37747  20869296.187    20869304.791
 02  4  3 20 51 30.0000000  0  8G24G 6G30G23G 5G15G17G10
  23984203.685    16555616.73349  12737951.80445  23984203.511    23984216.149
  20908784.187   -13500546.76749 -10510377.24247  20908784.040    20908792.064
  20921628.881    -1252113.44349   -970155.45747  20921629.207    20921638.153
  21367787.885   -18408805.98849 -14106788.54447  21367787.419    21367797.956
  22487822.671    11254733.02049   8769392.18046  22487822.124    22487835.266
  24006708.785    -7694515.74249  -5973797.07845  24006708.033    24006728.031
  22756047.421   -14866546.13249 -11562728.78946  22756046.877    22756060.254
  20875585.126    -7725378.72549  -6001316.53047  20875584.324    20875592.938
 02  4  3 20 52  0.0000000  0  8G24G 6G30G23G 5G15G17G10
  23999320.287    16635054.47449  12799851.20645  23999320.176    23999332.799
  20899912.437   -13547168.03349 -10546705.47847  20899912.322    20899920.304
  20933183.010    -1191396.72549   -922843.84647  20933183.329    20933192.286
  21355573.299   -18472993.43049 -14156804.60547  21355572.825    21355583.354
  22506085.265    11350702.52249   8844173.33046  22506084.721    22506097.935
  23990824.891    -7777984.43749  -6038837.27345  23990824.129    23990844.085
  22743640.118   -14931746.40849 -11613534.03846  22743639.566    22743652.856
  20881984.433    -7691750.13849  -5975112.45447  20881983.643    20881992.268
 02  4  3 20 52 30.0000000  0  8G24G 6G30G23G 5G15G17G10
  24014433.227    16714473.08849  12861735.71045  24014433.063    24014445.744
  20891086.255   -13593549.85049 -10582847.12847  20891086.132    20891094.123
  20944829.342    -1130195.43749   -875154.65147  20944829.656    20944838.623
  21343442.799   -18536739.06549 -14206476.39947  21343442.343    21343452.855
  22524392.600    11446906.91849   8919137.52546  22524392.028    22524405.291
  23974970.471    -7861298.02349  -6103756.61445  23974969.824    23974989.709
  22731269.611   -14996753.21749 -11664188.52146  22731269.060    22731282.305
  20888494.889    -7657537.37149  -5948453.17347  20888494.106    20888502.726
 02  4  3 20 53  0.0000000  0  8G24G 6G30G23G 5G15G17G10
  24029542.056    16793869.88149  12923603.19445  24029541.874    24029554.630
  20882305.570   -13639692.57149 -10618802.46347  20882305.441    20882313.409
  20956567.067    -1068513.63949   -827091.02847  20956567.380    20956576.384
  21331396.338   -18600043.18349 -14255804.15047  21331395.872    21331406.393
  22542743.685    11543341.59649   8994281.15946  22542743.133    22542756.445
  23959145.403    -7944458.05449  -6168556.30045  23959144.779    23959164.556
  22718935.525   -15061568.56449 -11714693.81146  22718934.999    22718948.214
  20895115.792    -7622744.40549  -5921341.78747  20895115.003    20895123.653
 02  4  3 20 53 30.0000000  0  8G24G 6G30G23G 5G15G17G10
  24044647.096    16873246.96649  12985455.32645  24044646.847    24044659.712
  20873571.277   -13685591.54749 -10654567.87747  20873571.137    20873579.082
  20968396.377    -1006350.65549   -778652.46147  20968396.701    20968405.735
  21319434.780   -18662901.02649 -14304784.16547  21319434.333    21319444.828
  22561138.586    11640006.63549   9069604.28546  22561138.068    22561151.445
  23943350.153    -8027461.39749  -6233233.89345  23943349.445    23943369.245
  22706638.405   -15126189.54149 -11765047.66246  22706637.902    22706651.054
  20901847.333    -7587369.90549  -5893777.26347  20901846.573    20901855.212
 02  4  3 20 54  0.0000000  0  8G24G 6G30G23G 5G15G17G10
  24059748.124    16952602.71449  13047290.82345  24059747.883    24059760.820
  20864883.433   -13731246.43649 -10690143.08947  20864883.312    20864891.233
  20980316.595     -943709.95149   -729841.64547  20980316.899    20980325.980
  21307558.191   -18725312.39549 -14353416.27847  21307557.755    21307568.203
  22579576.645    11736898.19249   9145103.91846  22579576.185    22579589.584
  23927584.493    -8110308.85849  -6297790.05145  23927583.749    23927603.577
  22694378.063   -15190617.34249 -11815250.97946  22694377.590    22694390.659
  20908689.004    -7551416.70649  -5865761.79547  20908688.226    20908696.899
 02  4  3 20 54 30.0000000  0  8G24G 6G30G23G 5G15G17G10
  24074844.622    17031934.69649  13109107.77745  24074844.351    24074857.382
  20856242.010   -13776657.25749 -10725528.12047  20856241.884    20856249.789
  20992326.962     -880595.62649   -680661.77547  20992327.274    20992336.383
  21295766.551   -18787277.32349 -14401700.51947  21295766.098    21295776.542
  22598056.972    11834011.62549   9220776.44546  22598056.440    22598069.931
  23911848.278    -8193001.92249  -6362225.87545  23911847.463    23911867.264
  22682154.119   -15254853.94549 -11865305.30846  22682153.632    22682166.658
  20915640.127    -7514888.31549  -5837298.13647  20915639.344    20915648.045
 02  4  3 20 55  0.0000000  0  8G24G 6G30G23G 5G15G17G10
  24089936.603    17111242.95349  13170906.27345  24089936.344    24089949.527
  20847647.572   -13821821.15549 -10760720.74547  20847647.444    20847655.358
  21004427.307     -817008.40449   -631113.41547  21004427.607    21004436.747
  21284060.435   -18848792.77249 -14449634.51847  21284060.002    21284070.426
  22616579.198    11931345.61649   9296620.82446  22616578.658    22616592.259
  23896141.710    -8275538.91849  -6426540.12045  23896141.017    23896160.659
  22669966.822   -15318897.85749 -11915209.50646  22669966.349    22669979.353
  20922700.651    -7477784.92849  -5808386.42647  20922699.896    20922708.602
 02  4  3 20 55 30.0000000  0  8G24G 6G30G23G 5G15G17G10
  24105023.912    17190526.63149  13232685.60245  24105023.679    24105036.904
  20839100.374   -13866736.94549 -10795720.03847  20839100.231    20839108.155
  21016617.110     -752950.94349   -581198.64147  21016617.408    21016626.575
  21272440.092   -18909857.43749 -14497217.25847  21272439.677    21272450.059
  22635142.841    12028897.18849   9372634.74646  22635142.307    22635156.001
  23880464.939    -8357919.92249  -6490732.80445  23880464.139    23880483.730
  22657816.150   -15382749.62249 -11964963.97146  22657815.691    22657828.625
  20929870.181    -7440108.90349  -5779028.50347  20929869.413    20929878.127
 02  4  3 20 56  0.0000000  0  8G24G 6G30G23G 5G15G17G10
  24120106.969    17269788.02549  13294447.57145  24120106.687    24120119.928
  20830601.176   -13911400.32449 -10830522.64647  20830601.035    20830608.936
  21028896.447     -688423.01149   -530917.26147  21028896.758    21028905.965
  21260906.394   -18970466.99849 -14544445.37447  21260905.971    21260916.296
  22653747.891    12126666.29549   9448818.16846  22653747.367    22653761.115
  23864818.432    -8440141.94949  -6554801.62945  23864817.791    23864837.063
  22645702.537   -15446406.39249 -12014566.49446  22645702.047    22645714.974
  20937148.893    -7401859.20049  -5749223.55447  20937148.134    20937156.846
 02  4  3 20 56 30.0000000  0  8G24G 6G30G23G 5G15G17G10
  24135185.011    17349023.12449  13356189.04745  24135184.689    24135197.961
  20822149.765   -13955812.79349 -10865129.73647  20822149.636    20822157.519
  21041264.305     -623430.03949   -480273.51247  21041264.605    21041273.854
  21249459.008   -19030623.09749 -14591320.14547  21249458.586    21249468.882
  22672393.187    12224646.74249   9525166.27846  22672392.639    22672406.496
  23849201.557    -8522208.04149  -6618748.94245  23849200.932    23849220.127
  22633625.344   -15509871.73749 -12064019.85646  22633624.868    22633637.767
  20944535.829    -7363040.69049  -5718975.38347  20944535.070    20944543.787
 02  4  3 20 57  0.0000000  0  8G24G 6G30G23G 5G15G17G10
  24150258.276    17428232.97549  13417910.87245  24150258.044    24150271.281
  20813746.803   -13999970.69049 -10899538.46247  20813746.673    20813754.527
  21053720.609     -557972.29649   -429267.60247  21053720.902    21053730.174
  21238098.560   -19090322.05249 -14637838.68947  21238098.121    21238108.411
  22691078.554    12322837.89349   9601678.55746  22691077.984    22691091.947
  23833614.824    -8604115.59849  -6682572.71845  23833614.313    23833633.335
  22621585.021   -15573143.41049 -12113322.30846  22621584.553    22621597.401
  20952031.062    -7323653.07449  -5688283.75247  20952030.301    20952039.041
 02  4  3 20 57 30.0000000  0  8G24G 6G30G23G 5G15G17G10
  24165326.369    17507415.70249  13479611.56845  24165326.123    24165339.405
  20805392.275   -14043873.86649 -10933748.71047  20805392.137    20805399.978
  21066264.642     -492053.50949   -377902.44747  21066264.938    21066274.215
  21226825.113   -19149563.89549 -14684001.04947  21226824.685    21226834.966
  22709803.215    12421235.56249   9678351.75846  22709802.660    22709816.683
  23818058.046    -8685865.77849  -6746273.87245  23818057.533    23818076.632
  22609581.228   -15636223.16649 -12162475.21446  22609580.743    22609593.554
  20959633.890    -7283700.16849  -5657151.64347  20959633.108    20959641.863
 02  4  3 20 58  0.0000000  0  8G24G 6G30G23G 5G15G17G10
  24180389.508    17586572.05249  13541291.71345  24180389.244    24180402.513
  20797086.739   -14087519.66449 -10967758.39747  20797086.597    20797094.438
  21078896.124     -425675.25249   -326179.25747  21078896.413    21078905.687
  21215639.165   -19208346.10749 -14729805.25247  21215638.719    21215648.972
  22728566.829    12519837.96649   9755184.48446  22728566.270    22728580.383
  23802531.544    -8767457.27249  -6809851.37845  23802531.020    23802549.942
  22597614.160   -15699109.79949 -12211477.65046  22597613.668    22597626.423
  20967344.132    -7243182.63649  -5625579.56047  20967343.340    20967352.106
 02  4  3 20 58 30.0000000  0  8G24G 6G30G23G 5G15G17G10
  24195447.113    17665699.72349  13602949.51845  24195446.870    24195460.136
  20788830.222   -14130907.86849 -11001567.36947  20788830.082    20788837.921
  21091614.398     -358840.90549   -274100.67447  21091614.679    21091623.969
  21204540.771   -19266668.31149 -14775251.01647  21204540.322    21204550.539
  22747368.626    12618641.10549   9832173.63446  22747368.114    22747382.309
  23787034.988    -8848891.25649  -6873306.14245  23787034.449    23787053.253
  22585683.557   -15761804.76349 -12260330.71646  22585683.097    22585695.807
  20975161.273    -7202103.36249  -5593569.75847  20975160.469    20975169.244
 02  4  3 20 59  0.0000000  0  8G24G 6G30G23G 5G15G17G10
  24210499.301    17744799.13149  13664585.26945  24210499.070    24210512.383
  20780623.212   -14174035.92649 -11035173.62647  20780623.064    20780630.894
  21104419.105     -291552.32349   -221668.14047  21104419.374    21104428.681
  21193530.338   -19324528.15949 -14820336.49747  21193529.885    21193540.045
  22766208.294    12717643.02349   9909317.67646  22766207.762    22766222.032
  23771568.527    -8930166.63649  -6936637.32545  23771568.047    23771586.755
  22573789.584   -15824307.30149 -12309033.84646  22573789.141    22573801.810
  20983085.086    -7160463.53849  -5561123.15747  20983084.303    20983093.083
 02  4  3 20 59 30.0000000  0  8G24G 6G30G23G 5G15G17G10
  24225546.458    17823871.95949  13726200.29445  24225546.243    24225559.605
  20772466.471   -14216899.80949 -11068574.03047  20772466.331    20772474.149
  21117310.305     -223809.15649   -168881.38747  21117310.570    21117319.894
  21182608.611   -19381921.76849 -14865058.67947  21182608.166    21182618.277
  22785085.715    12816843.28949   9986616.26946  22785085.153    22785099.519
  23756132.778    -9011280.68049  -6999842.80245  23756132.293    23756150.988
  22561932.708   -15886615.18449 -12357585.31146  22561932.250    22561944.805
  20991115.662    -7118262.72649  -5528239.42747  20991114.864    20991123.632
 02  4  3 21  0  0.0000000  0  8G24G 6G30G23G 5G15G17G10
  24240587.774    17902913.91849  13787791.27645  24240587.569    24240600.882
  20764359.643   -14259501.38649 -11101770.04147  20764359.483    20764367.325
  21130286.804     -155617.54749   -115745.19947  21130287.077    21130296.439
  21171775.204   -19438851.32849 -14909419.26347  21171774.755    21171784.816
  22803999.697    12916235.81949  10064064.66546  22803999.200    22804013.582
  23740727.164    -9092236.63449  -7062925.07945  23740726.657    23740745.278
  22550112.189   -15948731.88549 -12405987.79646  22550111.733    22550124.255
  20999251.919    -7075506.60849  -5494922.99447  20999251.101    20999259.868
 02  4  3 21  0 30.0000000  0  8G24G 6G30G23G 5G15G17G10
  24255623.049    17981923.85849  13849357.29445  24255622.742    24255636.021
  20756302.981   -14301839.42949 -11134760.69947  20756302.821    20756310.640
  21143348.173      -86980.16149    -62261.64747  21143348.444    21143357.852
  21161030.343   -19495315.73849 -14953417.38947  21161029.874    21161039.923
  22822949.693    13015817.28449  10141660.28646  22822949.141    22822963.635
  23725351.609    -9173034.64849  -7125884.29345  23725351.112    23725369.539
  22538327.940   -16010657.99549 -12454241.76746  22538327.481    22538339.977
  21007493.404    -7032197.38849  -5461175.56847  21007492.576    21007501.346
 02  4  3 21  1  0.0000000  0  8G24G 6G30G23G 5G15G17G10
  24270652.959    18060905.92049  13910901.56845  24270652.687    24270666.035
  20748297.610   -14343907.88849 -11167541.29147  20748297.463    20748305.271
  21156494.634      -17895.38149     -8429.48347  21156494.913    21156504.374
  21150375.050   -19551309.26549 -14997048.60547  21150374.571    21150384.576
  22841935.949    13115589.32549  10219404.39846  22841935.416    22841949.928
  23710007.031    -9253670.03449  -7188716.78245  23710006.454    23710024.945
  22526580.804   -16072389.27149 -12502343.93046  22526580.343    22526592.786
  21015840.624    -6988332.48949  -5426995.14847  21015839.807    21015848.564
 02  4  3 21  1 30.0000000  0  8G24G 6G30G23G 5G15G17G10
  24285677.075    18139857.81749  13972422.38345  24285676.896    24285690.257
  20740343.508   -14385706.92249 -11200111.94747  20740343.359    20740351.149
  21169725.543       51632.94349     45748.29347  21169725.834    21169735.321
  21139809.302   -19606832.15549 -15040313.09447  21139808.825    21139818.804
  22860957.622    13215547.45749  10297293.51546  22860957.058    22860971.646
  23694693.053    -9334144.28849  -7251423.70645  23694692.466    23694710.811
  22514870.374   -16133927.48549 -12550295.65646  22514869.920    22514882.310
  21024292.859    -6943915.81249  -5392384.77447  21024292.055    21024300.791
 02  4  3 21  2  0.0000000  0  9G24G 6G30G23G 5G15G17G10G26
  24300692.609    18218764.27549  14033907.79945  24300692.410    24300705.784
  20732438.245   -14427249.30049 -11232482.60747  20732438.072    20732445.861
  21183037.513      121587.36449    100258.10047  21183037.808    21183047.307
  21129330.642   -19661897.57549 -15083221.10647  21129330.159    21129340.118
  22880011.382    13315674.43249  10375314.20046  22880010.828    22880025.514
  23679407.079    -9414471.64749  -7314016.16145  23679406.459    23679424.773
  22503193.896   -16195287.35849 -12598108.40446  22503193.414    22503205.771
  21032846.960    -6898963.84449  -5357357.29147  21032846.154    21032854.896
  24445577.295    -2132482.19049  -1446869.05445  24445577.300    24445605.911
 02  4  3 21  2 30.0000000  0  9G24G 6G30G23G 5G15G17G10G26
  24315703.171    18297644.78849  14095372.96645  24315702.949    24315716.412
  20724585.994   -14468513.21849 -11264636.28647  20724585.818    20724593.602
  21196434.071      191986.06249    155114.09347  21196434.354    21196443.884
  21118943.146   -19716483.82549 -15125755.74547  21118942.670    21118952.589
  22899100.606    13415987.64649  10453479.99546  22899100.082    22899114.813
  23664152.902    -9494631.79449  -7376478.32645  23664152.259    23664170.557
  22491555.156   -16256448.66949 -12645766.43646  22491554.691    22491566.999
  21041506.421    -6853458.23749  -5321898.39847  21041505.619    21041514.359
  24428180.868    -2223898.08549  -1518101.36945  24428180.804    24428209.109
 02  4  3 21  3  0.0000000  0  9G24G 6G30G23G 5G15G17G10G26
  24330708.245    18376496.34249  14156815.58645  24330707.952    24330721.501
  20716786.563   -14509499.43549 -11296573.57947  20716786.397    20716794.166
  21209914.182      262823.92849    210312.29247  21209914.471    21209924.042
  21108646.616   -19770592.05949 -15167917.90447  21108646.139    21108656.016
  22918224.326    13516481.88949  10531786.85546  22918223.773    22918238.589
  23648930.119    -9574626.77549  -7438811.79045  23648929.537    23648947.719
  22479953.738   -16317413.94449 -12693271.71846  22479953.263    22479965.581
  21050270.290    -6807403.98349  -5286011.99447  21050269.492    21050278.214
  24410785.870    -2315306.19549  -1589327.65545  24410785.986    24410813.825
 02  4  3 21  3 30.0000000  0  9G24G 6G30G23G 5G15G17G10G26
  24345707.257    18455315.92749  14218233.28245  24345706.967    24345720.611
  20709039.693   -14550209.39549 -11328295.60248  20709039.520    20709047.293
  21223476.789      334095.31849    265848.29947  21223477.072    21223486.671
  21098440.711   -19824224.09749 -15209708.99947  21098440.244    21098450.087
  22937381.281    13617151.19549  10610230.11746  22937380.721    22937395.666
  23633738.232    -9654459.46749  -7501018.78645  23633737.635    23633755.819
  22468388.968   -16378186.53549 -12740626.85146  22468388.489    22468400.815
  21059137.611    -6760806.12849  -5249701.99647  21059136.783    21059145.525
  24393392.533    -2406706.33949  -1660547.71645  24393392.638    24393420.104
 02  4  3 21  4  0.0000000  0 10G24G 6G30G23G 5G15G17G10G18G26
  24360699.452    18534099.82049  14279623.18945  24360699.218    24360712.722
  20701345.232   -14590643.92549 -11359803.00648  20701345.077    20701352.846
  21237120.961      405795.28149    321718.25647  21237121.247    21237130.867
  21088325.211   -19877380.87049 -15251129.75847  21088324.747    21088334.580
  22956570.577    13717990.40149  10688805.76646  22956570.017    22956585.046
  23618576.835    -9734131.89149  -7563100.91345  23618576.150    23618594.333
  22456860.394   -16438768.90349 -12787833.76746  22456859.920    22456872.259
  21068107.551    -6713668.83049  -5212971.65947  21068106.753    21068115.496
                  -1228990.92849   -439069.53343
  24376000.658    -2498097.76949  -1731760.98145  24376000.737    24376028.273
 02  4  3 21  4 30.0000000  0 10G24G 6G30G23G 5G15G17G10G18G26
  24375684.755    18612847.84449  14340985.11045  24375684.544    24375698.060
  20693703.547   -14630801.33349 -11391094.47848  20693703.397    20693711.158
  21250846.208      477921.39149    377920.27147  21250846.485    21250856.155
  21078300.408   -19930061.13149 -15292179.21847  21078299.937    21078309.751
  22975791.686    13818996.87849  10767511.75546  22975791.160    22975806.300
  23603445.888    -9813644.08149  -7625058.19545  23603445.286    23603463.350
  22445368.015   -16499161.17249 -12834892.55446  22445367.545    22445379.890
  21077179.676    -6665994.43249  -5175822.80647  21077178.873    21077187.611
                  -1341024.55649   -526363.07143
  24358610.962    -2589477.22249  -1802964.93445  24358611.136    24358638.407
 02  4  3 21  5  0.0000000  0 10G24G 6G30G23G 5G15G17G10G18G26
  24390663.792    18691562.63049  14402321.11345  24390663.495    24390677.202
  20686115.527   -14670676.59049 -11422166.08248  20686115.370    20686123.134
  21264652.679      550474.26149    434454.83047  21264652.947    21264662.658
  21068367.165   -19982260.30449 -15332853.79747  21068366.693    21068376.478
  22995044.764    13920171.05549  10846348.40946  22995044.222    22995059.460
  23588346.116    -9892992.67049  -7686887.98045  23588345.479    23588363.580
  22433912.437   -16559360.11349 -12881800.69146  22433911.946    22433924.308
  21086354.198    -6617781.91649  -5138254.63547  21086353.401    21086362.182
                  -1453010.20049   -359512.62143
  24341225.148    -2680838.13549  -1874154.44345  24341225.222    24341252.295
 02  4  3 21  5 30.0000000  0 10G24G 6G30G23G 5G15G17G10G18G26
  24405636.485    18770244.12049  14463631.19745  24405636.279    24405649.893
  20678581.559   -14710267.70949 -11453016.28448  20678581.416    20678589.160
  21278539.963      623451.86349    491320.34347  21278540.243    21278549.971
  21058525.727   -20033976.85849 -15373152.31147  21058525.276    21058535.053
  23014329.305    14021510.59749  10925313.92946  23014328.791    23014344.091
  23573277.556    -9972177.03349  -7748589.79645  23573276.941    23573295.027
  22422493.714   -16619365.47449 -12928557.99246  22422493.221    22422505.557
  21095630.830    -6569032.93749  -5100268.44347  21095630.029    21095638.820
                  -1564945.08749   -446733.92143                  24719820.664
  24323843.356    -2772177.14449  -1945326.89345  24323843.395    24323870.077
 02  4  3 21  6  0.0000000  0 10G24G 6G30G23G 5G15G17G10G18G26
  24420602.834    18848892.22549  14524915.27745  24420602.599    24420616.305
  20671102.092   -14749572.56749 -11483643.42148  20671101.944    20671109.666
  21292507.581      696851.83949    548514.98047  21292507.863    21292517.626
  21048776.461   -20085209.16049 -15413073.48147  21048775.996    21048785.758
  23033644.840    14123013.15149  11004406.45846  23033644.329    23033659.675
  23558240.422   -10051196.45649  -7810163.10245  23558239.771    23558257.823
  22411111.829   -16679177.15349 -12975164.36846  22411111.341    22411123.621
  21105009.246    -6519749.00249  -5061865.40347  21105008.457    21105017.266
  24698508.055    -1676826.72249   -533913.82044  24698506.820    24698531.546
  24306466.328    -2863490.54449  -2016479.37745  24306466.265    24306492.950
 02  4  3 21  6 30.0000000  0 10G24G 6G30G23G 5G15G17G10G18G26
  24435562.002    18927502.75549  14586170.07345  24435561.682    24435575.730
  20663676.722   -14788593.19349 -11514049.08248  20663676.574    20663684.288
  21306554.441      770668.07349    606033.97147  21306554.719    21306564.530
  21039118.919   -20135959.53349 -15452619.12947  21039118.452    21039128.183
  23052990.150    14224672.29449  11083621.00346  23052989.677    23053005.083
  23543234.076   -10130054.28649  -7871610.47345  23543233.469    23543251.388
  22399766.097   -16738798.91149 -13021622.75546  22399765.615    22399777.859
  21114488.387    -6469935.91149  -5023050.02747  21114487.604    21114496.425
  24677227.120    -1788656.45749   -621053.34845  24677224.193    24677249.476
  24289094.082    -2954778.71449  -2087612.23445  24289094.062    24289120.630
 02  4  3 21  7  0.0000000  0 10G24G 6G30G23G 5G15G17G10G18G26
  24450514.337    19006076.96649  14647396.57845  24450514.032    24450528.065
  20656306.102   -14827326.01249 -11544230.47448  20656305.937    20656313.643
  21320680.385      844899.86249    663876.76847  21320680.660    21320690.513
  21029553.662   -20186224.81449 -15491786.78447  21029553.193    21029562.904
  23072365.147    14326487.14449  11162956.88246  23072364.674    23072380.170
  23528258.867   -10208748.31949  -7932930.21345  23528258.246    23528276.122
  22388456.882   -16798228.75549 -13067931.60446  22388456.384    22388468.575
  21124068.132    -6419594.07849  -4983822.64747  21124067.323    21124076.176
  24655956.920    -1900430.26849   -708149.27245  24655954.157    24655979.057
  24271727.723    -3046036.48849  -2158721.41845  24271727.724    24271754.136
 02  4  3 21  7 30.0000000  0 10G24G 6G30G23G 5G15G17G10G18G26
  24465459.941    19084616.10349  14708595.75245  24465459.744    24465473.792
  20648990.866   -14865767.80149 -11574185.09148  20648990.711    20648998.412
  21334885.253      919546.31449    722042.68447  21334885.516    21334895.404
  21020081.283   -20236002.21049 -15530574.27047  21020080.811    21020090.495
  23091769.526    14428456.58249  11242413.20146  23091769.070    23091784.666
  23513315.169   -10287276.95249  -7994121.06845  23513314.522    23513332.263
  22377184.487   -16857465.23449 -13114089.76846  22377183.998    22377196.115
  21133748.396    -6368723.97649  -4944183.62547  21133747.601    21133756.446
  24634698.002    -2012144.26249   -795198.56345  24634695.706    24634720.597
  24254367.920    -3137258.97749  -2229803.10445  24254367.942    24254394.416
 02  4  3 21  8  0.0000000  0 10G24G 6G30G23G 5G15G17G10G18G26
  24480398.257    19163116.69249  14769764.86245  24480398.032    24480412.075
  20641730.672   -14903920.14849 -11603914.16948  20641730.527    20641738.227
  21349167.900      994601.56749    780527.14247  21349168.168    21349178.072
  21010701.353   -20285293.75249 -15568983.17047  21010700.875    21010710.523
  23111202.222    14530574.59449  11321985.31146  23111201.717    23111217.434
  23498402.363   -10365643.14849  -8055185.34345  23498401.736    23498419.380
  22365948.189   -16916511.71249 -13160099.88246  22365947.717    22365959.768
  21143528.139    -6317331.27849  -4904137.37947  21143527.361    21143536.176
  24613450.416    -2123799.11749   -882201.81045  24613448.693    24613473.466
  24237014.954    -3228446.02449  -2300857.18345  24237014.965    24237041.273
 02  4  3 21  8 30.0000000  0 10G24G 6G30G23G 5G15G17G10G18G26
  24495329.376    19241579.06049  14830904.22245  24495329.095    24495343.027
  20634526.104   -14941780.36349 -11633415.60948  20634525.955    20634533.657
  21363528.041     1070063.93449    839328.82847  21363528.307    21363538.227
  21001414.257   -20334097.32149 -15607011.82747  21001413.774    21001423.410
  23130662.839    14632839.27349  11401671.68746  23130662.285    23130678.126
  23483520.685   -10443845.62949  -8116122.06245  23483520.118    23483537.650
  22354748.214   -16975367.49949 -13205961.40446  22354747.750    22354759.771
  21153407.111    -6265417.09749  -4863684.79147  21153406.331    21153415.116
  24592214.620    -2235392.04449   -969156.78645  24592213.226    24592237.871
  24219669.494    -3319593.66149  -2371880.56745  24219669.553    24219695.672
 02  4  3 21  9  0.0000000  0 10G24G 6G30G23G 5G15G17G10G18G26
  24510253.359    19320004.25249  14892014.59645  24510253.055    24510266.886
  20627377.683   -14979345.35049 -11662687.00448  20627377.524    20627385.223
  21377965.394     1145932.11749    898446.73847  21377965.642    21377975.586
  20992220.529   -20382410.37349 -15644658.26547  20992220.039    20992229.652
  23150151.112    14735249.19149  11481471.24946  23150150.553    23150166.468
  23468670.479   -10521882.99249  -8176930.10545  23468669.838    23468687.393
  22343584.754   -17034031.35949 -13251673.37846  22343584.309    22343596.292
  21163385.176    -6212982.16849  -4822826.42347  21163384.404    21163393.180
  24570991.340    -2346919.37049  -1056060.68845  24570990.068    24571014.648
  24202332.502    -3410697.07449  -2442869.48345  24202332.615    24202358.515
 02  4  3 21  9 30.0000000  0 10G24G 6G30G23G 5G15G17G10G18G26
  24525169.506    19398388.43849  14953092.97245  24525169.219    24525183.198
  20620285.221   -15016616.42849 -11691729.37848  20620285.074    20620292.757
  21392478.926     1222200.55449    957876.52647  21392479.194    21392489.170
  20983119.789   -20430234.74449 -15681923.90947  20983119.289    20983128.890
  23169665.953    14837798.84949  11561379.68346  23169665.454    23169681.421
  23453851.226   -10599757.75649  -8237611.45245  23453850.518    23453868.036
  22332457.237   -17092506.37149 -13297238.18746  22332456.782    22332468.742
  21173461.257    -6160032.09949  -4781566.64747  21173460.478    21173469.257
  24549780.351    -2458381.78049  -1142913.98045  24549779.171    24549803.760
  24185004.014    -3501755.92949  -2513823.68845  24185004.171    24185029.737
 02  4  3 21 10  0.0000000  0 10G24G 6G30G23G 5G15G17G10G18G26
  24540078.786    19476736.40149  15014143.12845  24540078.567    24540092.338
  20613249.973   -15053586.78849 -11720537.42948  20613249.824    20613257.512
  21407069.037     1298871.64249   1017620.06947  21407069.324    21407079.327
  20974113.188   -20477564.29849 -15718803.98647  20974112.694    20974122.254
  23189207.841    14940490.51649  11641398.77746  23189207.295    23189223.421
  23439063.952   -10677464.74949  -8298162.07445  23439063.234    23439080.618
  22321366.561   -17150787.63249 -13342652.02846  22321366.110    22321378.045
  21183635.996    -6106563.68049  -4739902.96247  21183635.205    21183643.999
  24528583.081    -2569771.97749  -1229711.00345  24528582.097    24528606.580
  24167685.568    -3592761.96849  -2584736.74245  24167685.811    24167711.004
 02  4  3 21 10 30.0000000  0 10G24G 6G30G23G 5G15G17G10G18G26
  24554979.993    19555041.84149  15075160.14345  24554979.681    24554993.626
  20606271.120   -15090260.84249 -11749114.59348  20606270.975    20606278.672
  21421734.155     1375936.60649   1077670.52747  21421734.451    21421744.479
  20965199.801   -20524404.22249 -15755302.53847  20965199.305    20965208.843
  23208775.037    15043315.33849  11721521.62146  23208774.429    23208790.708
  23424307.396   -10755009.98649  -8358586.64345  23424306.680    23424324.001
  22310311.620   -17208881.28749 -13387919.68046  22310311.164    22310323.069
  21193907.716    -6052585.37749  -4697841.97047  21193906.923    21193915.727
  24507398.852    -2681093.51649  -1316454.53045  24507398.082    24507422.274
  24150376.674    -3683717.99749  -2655610.82945  24150376.874    24150402.033
 02  4  3 21 11  0.0000000  0 10G24G 6G30G23G 5G15G17G10G18G26
  24569873.994    19633309.74549  15136147.95245  24569873.610    24569887.575
  20599349.982   -15126631.49049 -11777455.33648  20599349.837    20599357.530
  21436474.743     1453398.14249   1138030.00847  21436475.027    21436485.061
  20956380.827   -20570747.76849 -15791414.29947  20956380.350    20956389.864
  23228368.106    15146275.97849  11801750.29446  23228367.524    23228383.893
  23409582.623   -10832387.71749  -8418880.68845  23409581.934    23409599.250
  22299293.329   -17266782.16149 -13433037.10146  22299292.851    22299304.748
  21204277.071    -5998094.24149  -4655381.36247  21204276.275    21204285.093
  24486229.121    -2792338.91549  -1403138.73745  24486228.457    24486252.425
  24133079.021    -3774615.23249  -2726439.12145  24133079.099    24133104.103
 02  4  3 21 11 30.0000000  0 10G24G 6G30G23G 5G15G17G10G18G26
  24584760.069    19711536.36849  15197103.58745  24584759.825    24584773.933
  20592486.217   -15162700.69349 -11805561.19248  20592486.069    20592493.757
  21451289.607     1531250.00849   1198693.63547  21451289.901    21451299.943
  20947655.828   -20616597.53249 -15827141.29747  20947655.350    20947664.849
  23247985.823    15249366.09749  11882079.85946  23247985.244    23248001.685
  23394889.133   -10909601.46249  -8479046.95645  23394888.466    23394905.695
  22288311.019   -17324494.01649 -13478007.24946  22288310.564    22288322.455
  21214742.915    -5943096.04549  -4612525.65047  21214742.120    21214750.929
  24465073.696    -2903509.57049  -1489764.67645  24465073.133    24465096.849
  24115792.641    -3865453.93449  -2797221.79545  24115792.496    24115817.241
 02  4  3 21 12  0.0000000  0 10G24G 6G30G23G 5G15G17G10G18G26
  24599638.406    19789721.71049  15258027.06445  24599638.175    24599652.374
  20585680.317   -15198465.79549 -11833430.08248  20585680.180    20585687.853
  21466178.420     1609490.57749   1259660.15147  21466178.693    21466188.763
  20939025.179   -20661951.44149 -15862481.91047  20939024.725    20939034.198
  23267627.826    15352583.91049  11962508.91846  23267627.236    23267643.733
  23380227.079   -10986650.13349  -8539084.60445  23380226.456    23380243.516
  22277364.914   -17382015.94649 -13522829.39446  22277364.432    22277376.311
  21225304.984    -5887592.13649  -4569275.87247  21225304.198    21225313.003
  24443933.074    -3014602.05149  -1576329.70545  24443932.599    24443956.126
  24098517.897    -3956229.79249  -2867955.49245  24098517.904    24098542.506
 02  4  3 21 12 30.0000000  0 10G24G 6G30G23G 5G15G17G10G18G26
  24614509.155    19867867.22549  15318919.44445  24614508.900    24614523.339
  20578932.893   -15233923.73249 -11861059.62748  20578932.751    20578940.414
  21481140.954     1688118.54049   1320928.52647  21481141.225    21481151.367
  20930489.352   -20706807.21249 -15897434.36447  20930488.894    20930498.340
  23287293.885    15455928.12149  12043036.46346  23287293.302    23287309.853
  23365596.813   -11063531.83649  -8598992.14145  23365596.125    23365613.124
  22266455.110   -17439346.66049 -13567502.54146  22266454.644    22266466.489
  21235963.097    -5831583.38349  -4525632.70947  21235962.309    21235971.118
  24422808.026    -3125612.87849  -1662831.10845  24422807.463    24422830.901
  24081256.109    -4046938.13649  -2938636.60445  24081256.185    24081280.447
 02  4  3 21 13  0.0000000  0 10G24G 6G30G23G 5G15G17G10G18G26
  24629371.574    19945968.96349  15379777.78245  24629371.390    24629385.638
  20572243.672   -15269075.87849 -11888450.89448  20572243.522    20572251.184
  21496176.051     1767128.11449   1382494.26347  21496176.366    21496186.548
  20922047.910   -20751166.97349 -15932000.31647  20922047.448    20922056.865
  23306982.905    15559392.81249  12123657.88846  23306982.301    23306998.923
  23350997.640   -11140249.72549  -8658772.02045  23350997.002    23351013.895
  22255581.067   -17496489.56049 -13612029.34146  22255580.602    22255592.415
  21246716.247    -5775075.35049  -4481600.49847  21246715.465    21246724.280
  24401698.346    -3236542.84049  -1749269.47145  24401697.777    24401721.014
  24064007.344    -4137578.63849  -3009264.84445  24064007.356    24064031.459
 02  4  3 21 13 30.0000000  0 10G24G 6G30G23G 5G15G17G10G18G26
  24644226.632    20024031.63049  15440605.63945  24644226.486    24644240.600
  20565613.775   -15303916.07949 -11915599.08848  20565613.642    20565621.281
  21511284.135     1846521.15249   1444358.79447  21511284.457    21511294.693
  20913701.887   -20795025.26149 -15966175.51547  20913701.426    20913710.825
  23326695.179    15662979.79149  12204374.58846  23326694.605    23326711.278
  23336430.603   -11216799.17449  -8718420.65845  23336429.877    23336446.750
  22244743.632   -17553440.20149 -13656406.33246  22244743.185    22244754.975
  21257564.827    -5718065.87249  -4437177.54947  21257564.045    21257572.816
  24380605.330    -3347385.22049  -1835639.59445  24380604.799    24380627.958
  24046772.993    -4228143.51549  -3079834.16645  24046772.927    24046796.916
 02  4  3 21 14  0.0000000  0 10G24G 6G30G23G 5G15G17G10G18G26
  24659073.413    20102051.23649  15501399.95445  24659073.068    24659087.397
  20559042.968   -15338445.81249 -11942505.35648  20559042.831    20559050.478
  21526464.080     1926291.55049   1506517.37447  21526464.398    21526474.699
  20905450.899   -20838384.26049 -15999961.65847  20905450.428    20905459.813
  23346429.558    15766683.12849  12285181.96346  23346429.033    23346445.772
  23321895.071   -11293182.95749  -8777940.20445  23321894.319    23321911.080
  22233942.102   -17610201.98249 -13700636.15846  22233941.653    22233953.399
  21268507.760    -5660560.43949  -4392368.14447  21268506.979    21268515.748
  24359528.778    -3458141.00349  -1921942.24145  24359528.380    24359551.185
  24029552.886    -4318632.49449  -3150344.35745  24029552.758    24029576.597
 02  4  3 21 14 30.0000000  0 10G24G 6G30G23G 5G15G17G10G18G26
  24673911.860    20180026.58349  15562159.77345  24673911.536    24673925.776
  20552531.378   -15372664.41349 -11969169.18248  20552531.229    20552538.885
  21541715.134     2006435.80049   1568967.27147  21541715.430    21541725.805
  20897294.906   -20881243.95449 -16033358.73047  20897294.434    20897303.819
  23366185.390    15870499.24449  12366077.21745  23366184.866    23366201.780
  23307390.857   -11369402.05549  -8837331.43345  23307390.120    23307406.768
  22223176.328   -17666776.04149 -13744719.69846  22223175.906    22223187.605
  21279544.429    -5602562.45849  -4347174.93447  21279543.638    21279552.407
  24338469.018    -3568808.77949  -2008176.28845  24338468.650    24338491.376
  24012347.860    -4409043.28849  -3220793.61545  24012347.789    24012371.363
 02  4  3 21 15  0.0000000  0 10G24G 6G30G23G 5G15G17G10G18G26
  24688742.100    20257959.98249  15622886.90045  24688741.819    24688756.214
  20546079.804   -15406567.49149 -11995587.15148  20546079.645    20546087.338
  21557037.339     2086953.73349   1631708.34747  21557037.643    21557048.051
  20889234.586   -20923600.70449 -16066363.90547  20889234.114    20889243.494
  23385962.720    15974428.24449  12447060.41945  23385962.215    23385979.244
  23292918.570   -11445453.56249  -8896592.07145  23292917.849    23292934.375
  22212446.775   -17723159.67349 -13788654.87046  22212446.323    22212458.000
  21290674.863    -5544071.91049  -4301597.91047  21290674.073    21290682.851
  24317426.893    -3679383.65549  -2094337.95445  24317426.527    24317449.005
  23995158.743    -4499369.80349  -3291177.21945  23995158.669    23995182.095
 02  4  3 21 15 30.0000000  0 10G24G 6G30G23G 5G15G17G10G18G26
  24703564.205    20335849.78349  15683580.03945  24703563.859    24703578.315
  20539688.313   -15440154.80149 -12021759.06148  20539688.160    20539695.865
  21572429.854     2167841.18249   1694737.35847  21572430.147    21572440.585
  20881269.924   -20965455.02449 -16098977.57548  20881269.448    20881278.839
  23405760.669    16078465.69349  12528128.12145  23405760.129    23405777.340
  23278477.916   -11521338.78549  -8955723.13345  23278477.166    23278493.616
  22201753.179   -17779354.65149 -13832443.03546  22201752.707    22201764.334
  21301898.324    -5485092.34349  -4255639.82847  21301897.533    21301906.321
  24296402.569    -3789864.77149  -2180426.54545  24296402.191    24296424.539
  23977986.020    -4589610.05149  -3361493.60745  23977986.017    23978009.132
 02  4  3 21 16  0.0000000  0 10G24G 6G30G23G 5G15G17G10G18G26
  24718377.902    20413695.53249  15744238.87145  24718377.612    24718392.049
  20533357.278   -15473424.56049 -12047683.53248  20533357.133    20533364.839
  21587892.178     2249095.41549   1758052.17047  21587892.473    21587902.950
  20873401.021   -21006806.00849 -16131199.03948  20873400.536    20873409.911
  23425578.836    16182608.90249  12609278.22845  23425578.249    23425595.614
  23264068.927   -11597057.51549  -9014724.47345  23264068.221    23264084.536
  22191095.385   -17835361.14149 -13876084.33346  22191094.895    22191106.485
  21313214.404    -5425626.00249  -4209302.44747  21313213.599    21313222.404
  24275396.624    -3900249.80649  -2266440.27245  24275396.204    24275418.359
  23960830.366    -4679760.68449  -3431740.16945  23960830.344    23960853.327
 02  4  3 21 16 30.0000000  0 10G24G 6G30G23G 5G15G17G10G18G26
  24733183.469    20491499.00449  15804864.75645  24733183.173    24733197.849
  20527087.308   -15506373.30049 -12073357.86248  20527087.173    20527094.886
  21603424.093     2330715.49449   1821652.05447  21603424.370    21603434.878
  20865628.376   -21047651.04249 -16163026.26247  20865627.887    20865637.244
  23445416.917    16286857.08049  12690510.10845  23445416.375    23445433.768
  23249691.982   -11672607.70649  -9073594.49845  23249691.274    23249707.491
  22180473.805   -17891177.40149 -13919577.39846  22180473.328    22180484.879
  21324623.003    -5365673.63949  -4162586.34547  21324622.171    21324630.979
  24254409.654    -4010534.76749  -2352376.01245  24254409.332    24254431.299
  23943692.661    -4769816.51649  -3501912.86745  23943692.748    23943715.566
 02  4  3 21 17  0.0000000  0 10G24G 6G30G23G 5G15G17G10G18G26
  24747980.885    20569258.75249  15865456.57845  24747980.649    24747995.193
  20520878.658   -15539000.02649 -12098781.26748  20520878.521    20520886.217
  21619024.972     2412697.95449   1885534.31747  21619025.250    21619035.780
  20857952.052   -21087990.18549 -16194459.28247  20857951.561    20857960.878
  23465274.306    16391206.64849  12771821.01245  23465273.788    23465291.213
  23235346.963   -11747990.04149  -9132333.71045  23235346.285    23235362.425
  22169888.256   -17946804.48449 -13962923.05347  22169887.766    22169899.288
  21336123.436    -5305238.56549  -4115494.10847  21336122.610    21336131.440
  24233442.038    -4120718.13949  -2438232.59645  24233441.729    24233463.575
  23926573.523    -4859774.89549  -3572009.66645  23926573.569    23926596.314
 02  4  3 21 17 30.0000000  0 10G24G 6G30G23G 5G15G17G10G18G26
  24762769.220    20646971.71649  15926011.91345  24762769.071    24762783.606
  20514731.023   -15571306.02949 -12123954.76348  20514730.897    20514738.559
  21634693.754     2495037.14649   1949694.55447  21634694.013    21634704.599
  20850371.610   -21127825.34349 -16225499.58947  20850371.119    20850380.405
  23485150.008    16495652.16249  12853206.67945  23485149.459    23485167.026
  23221033.378   -11823207.21149  -9190944.22645  23221032.704    23221048.816
  22159338.136   -18002245.40449 -14006123.65047  22159337.630    22159349.129
  21347714.730    -5244325.89949  -4068029.71947  21347713.915    21347722.752
  24212493.617    -4230800.39849  -2524010.38645  24212493.270    24212515.013
  23909473.136    -4949635.31749  -3642030.11545  23909473.187    23909495.777
 02  4  3 21 18  0.0000000  0 10G24G 6G30G23G 5G15G17G10G18G26
  24777549.388    20724640.78349  15986533.05145  24777549.249    24777563.890
  20508645.332   -15603286.52049 -12148874.60948  20508645.190    20508652.843
  21650430.402     2577733.21349   2014132.87347  21650430.668    21650441.302
  20842887.797   -21167152.62049 -16256144.14347  20842887.320    20842896.569
  23505043.992    16600193.85849  12934667.28445  23505043.406    23505061.050
  23206751.757   -11898256.05849  -9249423.58545  23206751.141    23206767.223
  22148824.017   -18057497.11449 -14049176.82347  22148823.489    22148834.965
  21359397.061    -5182934.93249  -4020192.62847  21359396.248    21359405.095
  24191565.432    -4340776.53649  -2609705.48245  24191565.069    24191586.679
  23892392.643    -5039391.22249  -3711969.13945  23892392.652    23892415.172
 02  4  3 21 18 30.0000000  0 10G24G 6G30G23G 5G15G17G10G18G26
  24792320.849    20802265.07149  16047019.30045  24792320.643    24792335.492
  20502621.790   -15634940.40949 -12173539.96548  20502621.660    20502629.277
  21666234.408     2660783.05949   2078846.85847  21666234.678    21666245.332
  20835500.663   -21205971.90649 -16286392.86447  20835500.194    20835509.423
  23524955.607    16704828.42049  13016200.23945  23524955.032    23524972.704
  23192502.209   -11973136.82649  -9307771.97645  23192501.596    23192517.609
  22138345.734   -18112560.45849 -14092083.20447  22138345.243    22138356.653
  21371169.763    -5121068.91849  -3971985.37447  21371168.968    21371177.851
  24170657.806    -4450644.60149  -2695316.36845  24170657.503    24170678.986
  23875332.630    -5129039.83849  -3781824.57345  23875332.662    23875354.926
 02  4  3 21 19  0.0000000  0 10G24G 6G30G23G 5G15G17G10G18G26
  24807083.859    20879843.85049  16107470.11345  24807083.603    24807098.472
  20496660.684   -15666266.23449 -12197949.68248  20496660.547    20496668.159
  21682105.081     2744183.28849   2143833.86547  21682105.351    21682116.062
  20828210.285   -21244282.69649 -16316245.34848  20828209.811    20828219.025
  23544884.368    16809552.88549  13097803.24645  23544883.765    23544901.551
  23178284.593   -12047849.72449  -9365989.57745  23178283.999    23178299.944
  22127903.208   -18167435.98049 -14134843.23847  22127902.712    22127914.081
  21383032.309    -5058730.69549  -3923410.16447  21383031.525    21383040.442
  24149770.973    -4560402.96949  -2780841.78945  24149770.683    24149792.071
  23858293.675    -5218578.09949  -3851594.05045  23858293.608    23858315.685
 02  4  3 21 19 30.0000000  0 10G24G 6G30G23G 5G15G17G10G18G26
  24821837.941    20957377.22149  16167885.45545  24821837.759    24821852.888
  20490762.407   -15697261.90749 -12222102.14048  20490762.260    20490769.858
  21698041.995     2827931.58149   2209092.09547  21698042.258    21698053.027
  20821016.941   -21282083.69849 -16345700.60248  20821016.470    20821025.660
  23564829.785    16914365.03049  13179474.57245  23564829.148    23564847.048
  23164098.995   -12122394.34249  -9424076.05845  23164098.369    23164114.315
  22117496.449   -18222123.37249 -14177456.67147  22117495.996    22117507.296
  21394984.367    -4995922.22949  -3874468.52947  21394983.571    21394992.547
  24128905.656    -4670048.52749  -2866279.30745  24128905.357    24128926.640
  23841276.466    -5308002.11049  -3921274.49345  23841276.329    23841298.297
 02  4  3 21 20  0.0000000  0 10G24G 6G30G23G 5G15G17G10G18G26
  24836583.252    21034862.85349  16228263.75045  24836582.821    24836597.886
  20484926.880   -15727927.71849 -12245997.56348  20484926.730    20484934.304
  21714044.213     2912023.26149   2274617.89347  21714044.460    21714055.304
  20813920.299   -21319376.36749 -16374759.74548  20813919.843    20813928.999
  23584791.000    17019260.09649  13261210.52245  23584790.378    23584808.393
  23149945.052   -12196772.45449  -9482032.77745  23149944.477    23149960.331
  22107125.071   -18276624.89449 -14219925.27647  22107124.596    22107135.874
  21407025.050    -4932648.04549  -3825163.99847  21407024.275    21407033.254
  24108061.882    -4779581.30749  -2951628.95945  24108061.467    24108082.657
  23824281.179    -5397310.41749  -3990864.80845  23824281.115    23824302.853
 02  4  3 21 20 30.0000000  0 10G24G 6G30G23G 5G15G17G10G18G26
  24851319.925    21112304.37449  16288607.45745  24851319.548    24851334.928
  20479155.123   -15758258.45849 -12269631.88948  20479154.986    20479162.533
  21730111.923     2996459.08249   2340411.85047  21730112.196    21730123.093
  20806921.244   -21356156.37249 -16403419.41248  20806920.779    20806929.901
  23604768.123    17124238.95149  13343011.74345  23604767.528    23604785.676
  23135823.628   -12270980.29349  -9539856.83445  23135823.053    23135838.858
  22096789.735   -18330936.93349 -14262246.23147  22096789.261    22096800.501
  21419154.591    -4868906.99649  -3775495.67547  21419153.828    21419162.812
  24087240.658    -4888995.23349  -3036886.01545  24087240.262    24087261.236
  23807309.324    -5486495.98149  -4060359.48845  23807309.174    23807330.740
 02  4  3 21 21  0.0000000  0  9G 6G30G23G 5G15G17G10G18G26
  20473446.671   -15788256.56649 -12293007.02348  20473446.528    20473454.078
  21746243.827     3081232.11949   2406468.56647  21746244.108    21746255.029
  20800019.143   -21392427.04749 -16431682.20648  20800018.667    20800027.745
  23624759.861    17229294.84649  13424872.98945  23624759.349    23624777.607
  23121733.874   -12345021.77549  -9597551.26046  23121733.307    23121749.005
  22086489.659   -18385063.85949 -14304422.93947  22086489.192    22086500.365
  21431371.717    -4804705.61749  -3725468.65547  21431370.951    21431379.953
  24066441.726    -4998292.38449  -3122052.07445  24066441.210    24066462.176
  23790360.540    -5575559.48549  -4129759.06045  23790360.537    23790381.977
 02  4  3 21 21 30.0000000  0  9G 6G30G23G 5G15G17G10G18G26
  20467801.549   -15817921.82749 -12316122.79848  20467801.416    20467808.950
  21762439.027     3166337.91849   2472784.58447  21762439.316    21762450.294
  20793213.751   -21428189.34849 -16459548.85648  20793213.288    20793222.306
  23644765.587    17334423.63849  13506791.03245  23644765.019    23644783.456
  23107675.501   -12418898.40749  -9655117.21846  23107674.940    23107690.571
  22076224.422   -18439007.38849 -14346456.74047  22076223.948    22076235.098
  21443675.700    -4740048.10049  -3675086.19647  21443674.923    21443683.886
  24045665.035    -5107471.96049  -3207126.52845  24045664.604    24045685.475
  23773435.451    -5664499.03749  -4199062.03745  23773435.573    23773456.687
 02  4  3 21 22  0.0000000  0  9G 6G30G23G 5G15G17G10G18G26
  20462221.151   -15847246.88649 -12338973.47948  20462221.019    20462228.552
  21778698.168     3251779.49149   2539362.23747  21778698.460    21778709.472
  20786506.324   -21463436.79749 -16487014.32548  20786505.872    20786514.850
  23664785.789    17439628.39949  13588768.29345  23664785.179    23664803.735
  23093649.613   -12492604.14649  -9712550.02746  23093649.040    23093664.523
  22065995.203   -18492761.89949 -14388343.25547  22065994.740    22066005.880
  21456067.019    -4674931.34549  -3624345.89347  21456066.254    21456075.231
  24024912.288    -5216525.99049  -3292103.15345  24024911.780    24024932.725
  23756535.804    -5753305.38249  -4268261.23045  23756535.914    23756556.813
 02  4  3 21 22 30.0000000  0  9G 6G30G23G 5G15G17G10G18G26
  20456705.521   -15876231.67649 -12361559.01048  20456705.378    20456712.930
  21795020.325     3337552.25849   2606197.96247  21795020.621    21795031.683
  20779896.714   -21498170.36649 -16514079.36748  20779896.247    20779905.202
  23684819.602    17544904.71349  13670801.29445  23684819.010    23684837.661
  23079655.876   -12566140.69849  -9769850.99946  23079655.268    23079670.740
  22055801.552   -18546329.37049 -14430084.02947  22055801.067    22055812.236
  21468545.005    -4609359.34749  -3573250.85547  21468544.206    21468553.210
  24004183.539    -5325453.85849  -3376981.47345  24004183.091    24004203.884
  23739661.783    -5841976.70849  -4337355.22645  23739661.886    23739682.583
 02  4  3 21 23  0.0000000  0  9G 6G30G23G 5G15G17G10G18G26
  20451255.131   -15904873.52849 -12383877.32648  20451255.001    20451262.576
  21811405.194     3423654.49849   2673290.41847  21811405.498    21811416.589
  20773385.139   -21532388.51249 -16540742.78348  20773384.685    20773393.609
  23704866.714    17650250.91649  13752888.73345  23704866.092    23704884.819
  23065694.589   -12639506.76749  -9827019.12346  23065694.013    23065709.393
  22045643.666   -18599708.85049 -14471678.31347  22045643.189    22045654.358
  21481109.277    -4543333.71449  -3521802.33747  21481108.478    21481117.482
  23983479.430    -5434252.23549  -3461758.89845  23983479.094    23983499.760
  23722814.388    -5930508.47349  -4406340.47945  23722814.419    23722835.093
 02  4  3 21 23 30.0000000  0  9G 6G30G23G 5G15G17G10G18G26
  20445870.405   -15933170.38449 -12405926.81048  20445870.279    20445877.834
  21827852.310     3510083.76849   2740637.69547  21827852.612    21827863.749
  20766971.848   -21566090.42049 -16567003.93248  20766971.385    20766980.277
  23724926.704    17755664.70849  13835028.84645  23724926.084    23724944.970
  23051765.872   -12712701.83149  -9884053.99846  23051765.335    23051780.632
  22035521.576   -18652900.13749 -14513125.95747  22035521.116    22035532.277
  21493759.444    -4476856.60949  -3470002.02947  21493758.641    21493767.673
  23962800.416    -5542918.56549  -3546433.43445  23962800.120    23962820.678
  23705994.152    -6018896.89449  -4475214.04145  23705994.243    23706014.847
 02  4  3 21 24  0.0000000  0  9G 6G30G23G 5G15G17G10G18G26
  20440551.021   -15961124.03449 -12427708.86348  20440550.891    20440558.474
  21844360.429     3596833.70449   2808234.84447  21844360.694    21844371.894
  20760656.224   -21599278.88749 -16592865.00048  20760655.767    20760664.621
  23744998.399    17861140.26549  13917217.09445  23744997.860    23745016.730
  23037869.007   -12785729.22549  -9940958.22346  23037868.446    23037883.702
  22025434.643   -18705906.87049 -14554429.79447  22025434.169    22025445.318
  21506494.411    -4409933.98749  -3417854.56147  21506493.604    21506502.640
  23942146.499    -5651453.75749  -3631005.80045  23942146.238    23942166.653
  23689201.235    -6107141.89449  -4543975.85145  23689201.318    23689221.772
 02  4  3 21 24 30.0000000  0  9G 6G30G23G 5G15G17G10G18G26
  20435297.530   -15988731.18249 -12449220.91748  20435297.398    20435304.974
  21860929.374     3683903.26149   2876081.04047  21860929.653    21860940.906
  20754438.769   -21631951.58149 -16618324.16848  20754438.311    20754447.161
  23765081.728    17966676.52149  13999452.62645  23765081.086    23765100.097
  23024004.372   -12858587.21049  -9997730.42946  23024003.814    23024019.038
  22015383.125   -18758727.53849 -14595588.64247  22015382.648    22015393.775
  21519314.044    -4342566.57449  -3365360.50547  21519313.249    21519322.255
  23921518.221    -5759853.88949  -3715472.90445  23921518.009    23921538.346
  23672436.725    -6195238.30349  -4612621.89145  23672436.684    23672457.012
 02  4  3 21 25  0.0000000  0  9G 6G30G23G 5G15G17G10G18G26
  20430110.319   -16015990.15249 -12470461.66048  20430110.169    20430117.752
  21877558.615     3771289.52049   2944174.02647  21877558.891    21877570.191
  20748319.559   -21664107.98749 -16643381.03748  20748319.088    20748327.916
  23785176.029    18072270.90349  14081733.45245  23785175.495    23785194.515
  23010172.043   -12931275.56949 -10054370.46446  23010171.480    23010186.724
  22005366.986   -18811362.25749 -14636602.60047  22005366.512    22005377.593
  21532217.798    -4274757.20449  -3312522.06647  21532216.996    21532225.981
  23900916.091    -5868116.95249  -3799833.21345  23900915.811    23900935.995
  23655701.044    -6283182.64249  -4681149.43645  23655701.071    23655721.221
 02  4  3 21 25 30.0000000  0  9G 6G30G23G 5G15G17G10G18G26
  20424989.315   -16042901.29449 -12491431.37448  20424989.164    20424996.755
  21894247.147     3858987.48849   3012509.89647  21894247.428    21894258.757
  20742298.321   -21695749.61549 -16668036.78848  20742297.846    20742306.663
  23805280.415    18177918.38449  14164055.63345  23805279.866    23805299.056
  22996371.657   -13003796.15049 -10110879.76446  22996371.094    22996386.316
  21995385.743   -18863813.47949 -14677473.57547  21995385.262    21995396.321
  21545204.780    -4206510.35549  -3259342.73747  21545203.966    21545212.951
  23880340.066    -5976242.73749  -3884086.56045  23880339.716    23880359.793
  23638994.598    -6370973.52849  -4749557.41845  23638994.566    23639014.624
 02  4  3 21 26  0.0000000  0  9G 6G30G23G 5G15G17G10G18G26
  20419935.773   -16069457.71149 -12512124.67548  20419935.633    20419943.217
  21910995.409     3946999.45649   3081090.44147  21910995.713    21911007.051
  20736376.078   -21726870.95349 -16692287.11648  20736375.606    20736384.394
  23825395.436    18283621.59049  14246421.22845  23825394.951    23825414.324
  22982604.211   -13076143.69049 -10167254.22446  22982603.615    22982618.805
  21985440.422   -18916076.02949 -14718197.52647  21985439.957    21985450.987
  21558275.476    -4137823.32849  -3205820.41047  21558274.667    21558283.667
  23859791.617    -6084223.37049  -3968226.80445  23859791.251    23859811.159
  23622319.058    -6458602.23949  -4817839.04645  23622318.919    23622338.979
 02  4  3 21 26 30.0000000  0  9G 6G30G23G 5G15G17G10G18G26
  20414948.817   -16095664.14649 -12532545.26348  20414948.685    20414956.278
  21927801.709     4035316.30649   3149908.55647  21927801.998    21927813.406
  20730551.753   -21757477.70449 -16716136.46748  20730551.278    20730560.056
  23845519.411    18389371.55849  14328823.25145  23845518.870    23845538.467
  22968868.470   -13148324.49849 -10223498.76146  22968867.854    22968882.992
  21975529.769   -18968156.42949 -14758779.55647  21975529.298    21975540.305
  21571428.223    -4068705.41349  -3151962.33047  21571427.411    21571436.438
  23839269.935    -6192063.45349  -4052257.52345  23839269.538    23839289.330
  23605673.619    -6546071.63349  -4885996.52245  23605673.623    23605693.524
 02  4  3 21 27  0.0000000  0  9G 6G30G23G 5G15G17G10G18G26
  20410029.467   -16121515.47749 -12552689.14448  20410029.331    20410036.927
  21944666.130     4123938.66549   3218964.73247  21944666.433    21944677.862
  20724826.065   -21787566.19949 -16739581.97948  20724825.602    20724834.352
  23865652.406    18495168.89549  14411262.19345  23865651.902    23865671.544
  22955165.095   -13220335.11949 -10279610.69246  22955164.521    22955179.592
  21965654.375   -19020051.47849 -14799217.15147  21965653.904    21965664.898
  21584663.099    -3999155.75449  -3097767.82647  21584662.280    21584671.326
  23818776.092    -6299757.16749  -4136174.18945  23818775.726    23818795.358
  23589060.031    -6633374.89149  -4954024.53245  23589060.004    23589079.642
 02  4  3 21 27 30.0000000  0  9G 6G30G23G 5G15G17G10G18G26
  20405178.057   -16147009.72049 -12572554.77448  20405177.929    20405185.517
  21961588.208     4212863.73949   3288256.78747  21961588.478    21961599.963
  20719199.191   -21817135.44449 -16762622.88148  20719198.717    20719207.432
  23885793.954    18601011.47249  14493736.38145  23885793.389    23885813.109
  22941494.258   -13292174.71649 -10335589.34546  22941493.715    22941508.733
  21955814.347   -19071760.91749 -14839510.11447  21955813.847    21955824.815
  21597979.680    -3929176.56549  -3043238.62647  21597978.870    21597987.930
  23798310.627    -6407301.83149  -4219974.72345  23798310.213    23798329.792
  23572478.736    -6720507.97649  -5021919.95345  23572478.663    23572498.250
 02  4  3 21 28  0.0000000  0  9G 6G30G23G 5G15G17G10G18G26
  20400394.584   -16172147.13249 -12592142.35548  20400394.431    20400402.021
  21978566.980     4302086.92349   3357781.12547  21978567.254    21978578.783
  20713670.802   -21846187.02549 -16785260.40948  20713670.325    20713679.002
  23905943.246    18706894.81549  14576242.32545  23905942.759    23905962.639
  22927855.618   -13363845.62349 -10391436.57646  22927855.017    22927869.942
  21946009.170   -19123286.93149 -14879660.15347  21946008.654    21946019.600
  21611377.244    -3858772.12749  -2988378.06547  21611376.435    21611385.519
  23777873.571    -6514697.22149  -4303658.93845  23777873.242    23777892.573
  23555930.169    -6807469.39949  -5089681.61245  23555930.180    23555949.533
 02  4  3 21 28 30.0000000  0  9G 6G30G23G 5G15G17G10G18G26
  20395679.535   -16196924.82149 -12611449.62948  20395679.395    20395686.955
  21995602.130     4391606.43249   3427536.37147  21995602.401    21995614.003
  20708241.235   -21874719.48149 -16807493.42648  20708240.753    20708249.411
  23926100.024    18812817.49649  14658778.91545  23926099.605    23926119.632
  22914249.295   -13435346.19949 -10447151.06846  22914248.726    22914263.605
  21936239.106   -19174628.53049 -14919666.48847  21936238.598    21936249.537
  21624855.405    -3787944.08449  -2933187.41947  21624854.585    21624863.668
  23757465.510    -6621940.16749  -4387224.37345  23757465.120    23757484.365
  23539415.125    -6894254.33949  -5157305.75745  23539415.183    23539434.409
 02  4  3 21 29  0.0000000  0  9G 6G30G23G 5G15G17G10G18G26
  20391033.331   -16221340.85049 -12630475.09648  20391033.181    20391040.727
  22012693.183     4481419.73949   3497520.55647  22012693.469    22012705.111
  20702910.579   -21902731.97849 -16829321.28648  20702910.094    20702918.742
  23946263.955    18918777.30649  14741344.43045  23946263.476    23946283.691
  22900675.500   -13506675.94249 -10502732.46146  22900674.983    22900689.769
  21926504.135   -19225785.63049 -14959529.06347  21926503.648    21926514.568
  21638413.753    -3716694.61249  -2877668.39147  21638412.948    21638422.042
  23737087.124    -6729027.38949  -4470668.45945  23737086.698    23737105.846
  23522934.421    -6980859.02449  -5224789.44045  23522934.472    23522953.613
 02  4  3 21 29 30.0000000  0  9G 6G30G23G 5G15G17G10G18G26
  20386455.856   -16245395.65049 -12649219.08248  20386455.690    20386463.236
  22029839.250     4571521.99949   3567729.89947  22029839.509    22029851.203
  20697678.551   -21930226.17449 -16850745.27348  20697678.066    20697686.695
  23966434.031    19024769.44849  14823935.13645  23966433.533    23966453.810
  22887133.892   -13577836.72349 -10558182.18246  22887133.307    22887148.065
  21916803.873   -19276760.27549 -14999249.46247  21916803.383    21916814.292
  21652051.420    -3645028.37549  -2821824.60447  21652050.607    21652059.700
  23716738.395    -6835959.17249  -4553991.44245  23716737.935    23716756.922
  23506488.348    -7067282.03549  -5292131.56245  23506488.277    23506507.304
 02  4  3 21 30  0.0000000  0  9G 6G30G23G 5G15G17G10G18G26
  20381947.939   -16269084.92949 -12667678.25548  20381947.781    20381955.308
  22047040.195     4661913.07549   3638164.28247  22047040.471    22047052.252
  20692545.729   -21957199.12249 -16871763.09448  20692545.229    20692553.860
  23986610.254    19130794.26449  14906551.30545  23986609.765    23986630.140
  22873624.949   -13648825.87649 -10613498.18246  22873624.320    22873639.000
  21907138.826   -19327549.95149 -15038825.73647  21907138.344    21907149.231
  21665768.344    -3572945.59349  -2765656.24047  21665767.521    21665776.601
  23696420.155    -6942730.45949  -4637189.36145  23696419.651    23696438.522
  23490078.019    -7153517.10749  -5359327.23045  23490077.949    23490096.790
 02  4  3 21 30 30.0000000  0  9G 6G30G23G 5G15G17G10G18G26
  20377509.379   -16292409.71849 -12685853.40348  20377509.214    20377516.739
  22064295.041     4752587.06749   3708819.12547  22064295.336    22064307.178
  20687511.576   -21983653.34249 -16892376.70948  20687511.084    20687519.724
  24006791.647    19236846.18749  14989188.58245  24006791.134    24006811.680
  22860148.123   -13719646.28049 -10668682.69046  22860147.440    22860162.129
  21897508.376   -19378157.95949 -15078260.43847  21897507.881    21897518.775
  21679563.540    -3500451.54849  -2709167.41447  21679562.731    21679571.781
  23676132.302    -7049341.84549  -4720262.69245  23676131.856    23676150.535
  23473703.602    -7239563.55349  -5426375.90945  23473703.484    23473722.187
 02  4  3 21 31  0.0000000  0  9G 6G30G23G 5G15G17G10G18G26
  20373140.717   -16315367.11549 -12703742.27448  20373140.548    20373148.060
  22081603.413     4843542.50049   3779693.27847  22081603.694    22081615.620
  20682576.508   -22009587.09849 -16912584.76948  20682576.021    20682584.667
  24026978.018    19342923.89449  15071845.95945  24026977.439    24026998.147
  22846703.719   -13790296.12549 -10723734.30046  22846703.017    22846717.639
  21887912.762   -19428582.85249 -15117552.45847  21887912.274    21887923.143
  21693436.773    -3427547.25949  -2652358.92147  21693435.977    21693445.012
  23655875.641    -7155789.52049  -4803208.44445  23655875.169    23655893.680
  23457365.863    -7325416.26149  -5493273.63045  23457365.894    23457384.556
 02  4  3 21 31 30.0000000  0  9G 6G30G23G 5G15G17G10G18G26
  20368842.569   -16337953.85649 -12721342.32248  20368842.414    20368849.932
  22098965.098     4934778.19449   3850785.80846  22098965.364    22098977.368
  20677740.824   -22034998.52349 -16932385.81448  20677740.338    20677748.997
  24047169.143    19449026.55049  15154522.74745  24047168.561    24047189.338
  22833292.106   -13860773.70949 -10778651.69046  22833291.412    22833305.945
  21878352.257   -19478823.13949 -15156700.62347  21878351.773    21878362.637
  21707387.860    -3354234.09249  -2595231.81547  21707387.039    21707396.077
  23635650.851    -7262069.80049  -4886023.78145  23635650.370    23635668.706
  23441066.071    -7411070.26949  -5560016.53445  23441066.138    23441084.590
 02  4  3 21 32  0.0000000  0  9G 6G30G23G 5G15G17G10G18G26
  20364614.442   -16360172.71249 -12738655.70948  20364614.291    20364621.816
  22116378.770     5026286.88449   3922091.05646  22116379.049    22116391.116
  20673003.747   -22059891.71249 -16951783.04348  20673003.268    20673011.927
  24067363.745    19555147.37049  15237213.70345  24067363.070    24067384.093
  22819912.473   -13931083.24249 -10833438.12946  22819911.814    22819926.266
  21868826.058   -19528883.34449 -15195708.47247  21868825.557    21868836.393
  21721415.406    -3280518.96849  -2537791.50247  21721414.588    21721423.616
  23615457.458    -7368184.82849  -4968710.35945  23615456.950    23615475.164
  23424803.982    -7496526.23449  -5626605.10945  23424804.086    23424822.469
 02  4  3 21 32 30.0000000  0  9G 6G30G23G 5G15G17G10G18G26
  20360457.420   -16382017.99849 -12755678.00448  20360457.279    20360464.781
  22133844.601     5118069.75249   3993609.94946  22133844.858    22133857.013
  20668366.114   -22084262.31849 -16970773.06748  20668365.638    20668374.302
  24087562.015    19661287.72349  15319919.86445  24087561.357    24087582.468
  22806565.562   -14001220.67349 -10888090.47346  22806564.914    22806579.334
  21859334.867   -19578759.50549 -15234572.90147  21859334.368    21859345.161
  21735519.760    -3206400.10149  -2480036.58447  21735518.953    21735527.995
  23595296.787    -7474127.97549  -5051262.99245  23595296.307    23595314.395
  23408580.992    -7581776.70349  -5693033.56745  23408581.077    23408599.351
 02  4  3 21 33  0.0000000  0  9G 6G30G23G 5G15G17G10G18G26
  20356371.452   -16403489.83149 -12772409.29248  20356371.307    20356378.837
  22151361.725     5210121.99349   4065338.73446  22151361.981    22151374.187
  20663827.613   -22108112.07349 -16989357.23448  20663827.130    20663835.789
  24107763.164    19767443.30949  15402637.89245  24107762.582    24107783.789
  22793251.122   -14071187.74949 -10942610.06946  22793250.472    22793264.835
  21849878.305   -19628453.75949 -15273295.58547  21849877.825    21849888.572
  21749700.030    -3131882.31149  -2421970.81347  21749699.237    21749708.274
  23575168.810    -7579899.23449  -5133681.68545  23575168.302    23575186.271
  23392397.268    -7666819.82349  -5759300.46545  23392397.470    23392415.611
 02  4  3 21 33 30.0000000  0  9G 6G30G23G 5G15G17G10G18G26
  20352356.899   -16424586.33149 -12788848.11548  20352356.747    20352364.284
  22168929.557     5302440.97849   4137275.36946  22168929.829    22168942.121
  20659388.343   -22131440.42049 -17007535.10848  20659387.863    20659396.503
  24127966.807    19873611.77049  15485365.95845  24127966.275    24127987.569
  22779969.153   -14140983.98449 -10996996.54346  22779968.516    22779982.826
  21840456.345   -19677966.03549 -15311876.46747  21840455.847    21840466.574
  21763955.771    -3056968.03449  -2363596.09747  21763954.968    21763964.022
  23555074.085    -7685495.73549  -5215964.21645  23555073.623    23555091.505
  23376254.014    -7751651.90449  -5825402.88845  23376254.127    23376272.193
 02  4  3 21 34  0.0000000  0  9G 6G30G23G 5G15G17G10G18G26
  20348413.881   -16445306.97449 -12804994.06048  20348413.746    20348421.275
  22186547.435     5395022.67249   4209416.70646  22186547.702    22186560.067
  20655048.095   -22154248.26149 -17025307.39748  20655047.628    20655056.233
  24148172.214    19979789.54049  15568101.27445  24148171.827    24148193.140
  22766719.552   -14210610.42549 -11051250.71746  22766718.928    22766733.116
  21831068.768   -19727297.69649 -15350316.60947  21831068.286    21831078.972
  21778286.291    -2981660.87849  -2304915.24047  21778285.466    21778294.532
  23535012.752    -7790916.56849  -5298109.86645  23535012.271    23535030.066
  23360151.227    -7836270.52949  -5891339.00045  23360151.375    23360169.371
 02  4  3 21 34 30.0000000  0  9G 6G30G23G 5G15G17G10G18G26
  20344543.048   -16465648.23749 -12820844.38348  20344542.906    20344550.469
  22204215.178     5487866.13849   4281762.02746  22204215.441    22204227.830
  20650807.331   -22176533.53549 -17042672.48848  20650806.854    20650815.428
  24168379.295    20085975.97249  15650843.34245  24168378.779    24168400.334
  22753502.578   -14280064.96549 -11105370.93746  22753501.979    22753516.163
  21821715.917   -19776446.81349 -15388614.50747  21821715.441    21821726.098
  21792691.439    -2905961.55049  -2245928.79547  21792690.624    21792699.733
  23514985.644    -7896157.63149  -5380115.45045  23514985.256    23515002.971
  23344090.225    -7920670.06149  -5957104.41745  23344090.393    23344108.152
 02  4  3 21 35  0.0000000  0  9G 6G30G23G 5G15G17G10G18G26
  20340744.449   -16485610.01849 -12836399.01048  20340744.306    20340751.868
  22221931.860     5580966.85849   4354307.79946  22221932.136    22221944.535
  20646665.724   -22198297.43249 -17059631.31348  20646665.251    20646673.817
  24188587.318    20192167.05149  15733589.01445  24188586.809    24188608.504
  22740318.128   -14349348.94249 -11159358.25946  22740317.516    22740331.680
  21812397.487   -19825415.00549 -15426771.43247  21812397.022    21812407.650
  21807170.398    -2829874.24349  -2186640.03347  21807169.581    21807178.679
  23494992.990    -8001218.11649  -5461980.32945  23494992.576    23495010.239
  23328071.213    -8004848.52249  -6022697.55745  23328071.314    23328089.001
 02  4  3 21 35 30.0000000  0  9G 6G30G23G 5G15G17G10G18G26
  20337018.260   -16505191.18949 -12851657.05848  20337018.115    20337025.672
  22239696.859     5674321.63249   4427051.52746  22239697.137    22239709.548
  20642623.264   -22219540.48449 -17076184.28548  20642622.780    20642631.320
  24208795.551    20298359.72349  15816335.93145  24208795.079    24208816.792
  22727166.067   -14418462.78649 -11213213.00146  22727165.431    22727179.591
  21803113.384   -19874202.99649 -15464787.93747  21803112.919    21803123.532
  21821722.559    -2753402.33549  -2127051.58447  21821721.746    21821730.822
  23475035.051    -8106096.25449  -5543703.11845  23475034.623    23475052.153
  23312094.863    -8088802.92949  -6088116.11945  23312094.894    23312112.605
 02  4  3 21 36  0.0000000  0  9G 6G30G23G 5G15G17G10G18G26
  20333365.326   -16524387.49749 -12866615.21148  20333365.174    20333372.734
  22257510.191     5767930.09849   4499992.94246  22257510.485    22257522.909
  20638680.438   -22240259.89349 -17092329.22448  20638679.959    20638688.499
  24229004.110    20404554.01849  15899084.12145  24229003.569    24229025.504
  22714046.857   -14487403.82049 -11266933.09646  22714046.193    22714060.341
  21793864.011   -19922808.35249 -15502662.13747  21793863.532    21793874.125
  21836347.927    -2676545.59649  -2067163.26547  21836347.111    21836356.195
  23455112.672    -8210787.20249  -5625280.05545  23455112.265    23455129.654
  23296162.428    -8172526.99949  -6153355.20845  23296162.373    23296179.926
 02  4  3 21 36 30.0000000  0  9G 6G30G23G 5G15G17G10G18G26
  20329785.374   -16543200.33549 -12881274.55648  20329785.213    20329792.763
  22275370.678     5861786.47349   4573127.53646  22275370.981    22275383.429
  20634836.694   -22260458.52249 -17108068.36048  20634836.220    20634844.767
  24249211.912    20510744.41449  15981829.25545  24249211.330    24249233.380
  22700960.042   -14556174.68349 -11320520.58246  22700959.373    22700973.487
  21784648.844   -19971234.05349 -15540396.34547  21784648.372    21784658.908
  21851045.491    -2599309.68149  -2006979.48547  21851044.647    21851053.770
  23435225.860    -8315291.47449  -5706711.53545  23435225.412    23435242.684
  23280273.782    -8256020.05149  -6218414.28445  23280273.733    23280291.211
 02  4  3 21 37  0.0000000  0  9G 6G30G23G 5G15G17G10G18G26
  20326278.769   -16561627.61149 -12895633.46148  20326278.600    20326286.160
  22293277.859     5955888.28149   4646453.38046  22293278.145    22293290.628
  20631092.181   -22280135.84949 -17123401.28648  20631091.722    20631100.246
  24269418.622    20616928.91049  16064569.76745  24269418.141    24269440.279
  22687905.765   -14624774.77749 -11373975.00746  22687905.080    22687919.133
  21775467.894   -20019479.86349 -15577990.37547  21775467.408    21775477.907
  21865814.731    -2521696.87449  -1946502.02147  21865813.912    21865823.019
  23415375.066    -8419606.60649  -5787995.64645  23415374.634    23415391.731
  23264429.823    -8339277.92749  -6283290.11945  23264429.901    23264447.349
 02  4  3 21 37 30.0000000  0  9G 6G30G23G 5G15G17G10G18G26
  20322845.988   -16579666.98749 -12909690.10848  20322845.817    20322853.369
  22311231.372     6050233.44649   4719968.85246  22311231.675    22311244.198
  20627447.037   -22299290.99649 -17138327.31948  20627446.576    20627455.072
  24289623.952    20723106.13349  16147304.64345  24289623.362    24289645.704
  22674884.110   -14693203.28549 -11427295.73046  22674883.465    22674897.447
  21766321.345   -20067545.01349 -15615443.64147  21766320.860    21766331.307
  21880655.409    -2443708.81449  -1885732.15247  21880654.568    21880663.727
  23395560.831    -8523729.40049  -5869129.86345  23395560.391    23395577.392
  23248631.663    -8422296.55249  -6347979.52845  23248631.708    23248648.952
 02  4  3 21 38  0.0000000  0  9G 6G30G23G 5G15G17G10G18G26
  20319487.416   -16597316.29049 -12923442.80548  20319487.262    20319494.822
  22329230.688     6144819.48849   4793672.01246  22329230.964    22329243.535
  20623901.391   -22317923.45449 -17152846.06848  20623900.911    20623909.364
  24309827.507    20829273.92049  16230032.14345  24309826.996    24309849.285
  22661895.194   -14761459.68649 -11480482.34946  22661894.567    22661908.456
  21757209.162   -20115429.39349 -15652756.04847  21757208.708    21757219.113
  21895567.060    -2365347.75249  -1824671.63947  21895566.235    21895575.396
  23375783.726    -8627657.28949  -5950112.22546  23375783.283    23375800.196
  23232879.812    -8505071.66149  -6412479.20745  23232879.863    23232896.989
 02  4  3 21 38 30.0000000  0  9G 6G30G23G 5G15G17G10G18G26
  20316202.702   -16614577.36049 -12936892.97948  20316202.546    20316210.116
  22347274.680     6239640.14149   4867557.99146  22347274.963    22347287.563
  20620454.541   -22336036.69649 -17166960.22648  20620454.047    20620462.486
  24330028.059    20935426.24249  16312747.60345  24330027.600    24330050.096
  22648938.478   -14829547.35249 -11533537.48446  22648937.797    22648951.641
  21748130.726   -20163136.45149 -15689930.27647  21748130.273    21748140.641
  21910548.525    -2286619.95749  -1763325.35647  21910547.683    21910556.867
  23356043.508    -8731391.32449  -6030943.53546  23356043.068    23356059.800
  23217174.202    -8587603.27449  -6476789.14545  23217174.226    23217191.266
 02  4  3 21 39  0.0000000  0  9G 6G30G23G 5G15G17G10G18G26
  20312992.918   -16631445.02349 -12950036.60148  20312992.768    20313000.307
  22365363.447     6334696.18149   4941627.38146  22365363.730    22365376.377
  20617107.137   -22353627.06949 -17180666.95248  20617106.644    20617115.066
  24350225.986    21041564.49149  16395452.09745  24350225.518    24350248.231
  22636014.537   -14897462.40649 -11586458.11946  22636013.824    22636027.628
  21739086.744   -20210662.67349 -15726963.59347  21739086.274    21739096.583
  21925599.945    -2207524.57749  -1701692.64547  21925599.123    21925608.293
  23336341.296    -8834925.55549  -6111619.14446  23336340.858    23336357.464
  23201516.346    -8669883.89649  -6540903.52345  23201516.365    23201533.346
 02  4  3 21 39 30.0000000  0  9G 6G30G23G 5G15G17G10G18G26
  20309858.057   -16647918.89349 -12962873.38248  20309857.878    20309865.408
  22383496.173     6429983.43249   5015876.93446  22383496.468    22383509.152
  20613859.052   -22370695.84949 -17193967.24848  20613858.553    20613866.953
  24370420.528    21147684.78949  16478142.58345  24370420.079    24370442.964
  22623123.228   -14965205.80249 -11639245.00446  22623122.548    22623136.246
  21730076.894   -20258009.49849 -15763857.12647  21730076.411    21730086.690
  21940720.599    -2128065.27349  -1639776.35947  21940719.765    21940728.936
  23316677.177    -8938259.32549  -6192138.55346  23316676.821    23316693.272
  23185906.829    -8751911.30349  -6604820.60945  23185906.851    23185923.597
 02  4  3 21 40  0.0000000  0  9G 6G30G23G 5G15G17G10G18G26
  20306798.250   -16663998.32449 -12975402.80848  20306798.086    20306805.571
  22401672.198     6525498.14749   5090303.73346  22401672.474    22401685.226
  20610710.021   -22387243.91449 -17206861.79148  20610709.513    20610717.910
  24390610.977    21253783.76749  16560816.46945  24390610.491    24390633.508
  22610264.428   -15032778.44649 -11691898.82746  22610263.761    22610277.422
  21721100.954   -20305177.93649 -15800611.65547  21721100.475    21721110.725
  21955909.840    -2048245.55349  -1577579.22547  21955909.030    21955918.205
  23297051.511    -9041391.11849  -6272500.59746  23297051.158    23297067.485
  23170345.847    -8833682.97749  -6668538.42045  23170345.894    23170362.578
 02  4  3 21 40 30.0000000  0  9G 6G30G23G 5G15G17G10G18G26
  20303813.727   -16679682.17549 -12987623.99048  20303813.562    20303821.031
  22419890.909     6621237.12249   5164905.27546  22419891.182    22419904.005
  20607660.007   -22403271.62049 -17219350.86148  20607659.504    20607667.893
  24410796.908    21359858.85449  16643471.73345  24410796.456    24410819.599
  22597438.122   -15100180.19049 -11744419.49246  22597437.510    22597451.072
  21712158.861   -20352168.31649 -15837227.44647  21712158.396    21712168.626
  21971167.035    -1968068.53749  -1515103.68547  21971166.208    21971175.436
  23277464.746    -9144318.71649  -6352703.51546  23277464.338    23277480.622
  23154834.316    -8915195.44949  -6732054.26845  23154834.332    23154850.925
 02  4  3 21 41  0.0000000  0 10G 6G30G23G 5G15G17G10G18G22G26
  20300905.207   -16694966.48549 -12999533.84048  20300905.036    20300912.491
  22438152.159     6717199.64649   5239681.01646  22438152.420    22438165.319
  20604709.398   -22418776.88449 -17231432.83048  20604708.897    20604717.280
  24430978.213    21465909.93749  16726108.29845  24430977.715    24431001.229
  22584644.753   -15167409.07849 -11796805.45446  22584644.146    22584657.621
  21703251.130   -20398978.57249 -15873702.87647  21703250.642    21703260.855
  21986492.198    -1887534.33449  -1452349.81247  21986491.389    21986500.673
  23257917.621    -9247037.83449  -6432743.97946  23257917.210    23257933.376
  24435001.111    -3931729.89249  -2682600.14845  24435000.212    24435015.925
  23139373.151    -8996442.96749  -6795363.66246  23139373.196    23139389.658
 02  4  3 21 41 30.0000000  0 10G 6G30G23G 5G15G17G10G18G22G26
  20298070.887   -16709860.86249 -13011139.85248  20298070.728    20298078.172
  22456453.269     6813371.73649   5314620.03746  22456453.520    22456466.518
  20601856.127   -22433770.80049 -17243116.35448  20601855.622    20601863.989
  24451152.361    21571923.26349  16808715.43045  24451151.929    24451175.657
  22571882.223   -15234475.86749 -11849065.11146  22571881.612    22571895.032
  21694375.504   -20445620.00249 -15910046.76447  21694375.027    21694385.188
  22001882.677    -1806656.98449  -1389328.55647  22001881.884    22001891.197
  23238408.566    -9349557.24549  -6512628.83746  23238408.155    23238424.185
  24422161.331    -3999203.22949  -2735176.71245  24422160.460    24422176.306
  23123960.947    -9077432.98649  -6858472.38246  23123961.006    23123977.388
 02  4  3 21 42  0.0000000  0 10G 6G30G23G 5G15G17G10G18G22G26
  20295313.931   -16724348.83449 -13022429.18148  20295313.777    20295321.199
  22474796.592     6909765.59949   5389731.87746  22474796.851    22474809.896
  20599103.013   -22448238.49549 -17254389.82948  20599102.518    20599110.863
  24471321.753    21677911.43449  16891302.97345  24471321.296    24471345.042
  22559153.461   -15301365.23949 -11901186.52546  22559152.864    22559166.191
  21685534.830   -20492077.66649 -15946247.45047  21685534.347    21685544.494
  22017340.838    -1725424.10449  -1326030.26547  22017340.033    22017349.368
  23218940.683    -9451859.99149  -6592344.84946  23218940.263    23218956.164
  24409403.877    -4066243.39849  -2787415.74845  24409403.142    24409418.776
  23108601.262    -9158146.89249  -6921365.97846  23108601.339    23108617.686
 02  4  3 21 42 30.0000000  0 10G 6G30G23G 5G15G17G10G18G22G26
  20292633.582   -16738434.19349 -13033404.78348  20292633.432    20292640.851
  22493180.546     7006372.89349   5465010.02546  22493180.805    22493193.906
  20596448.915   -22462185.58849 -17265257.64448  20596448.416    20596456.733
  24491484.846    21783866.63749  16973864.80745  24491484.398    24491508.355
  22546457.430   -15368082.67549 -11953173.94646  22546456.813    22546470.114
  21676728.084   -20538357.07649 -15982309.24247  21676727.594    21676737.728
  22032865.138    -1643843.52649  -1262461.03047  22032864.345    22032873.702
  23199513.452    -9553949.24249  -6671894.51546  23199513.022    23199528.827
  24396728.279    -4132853.63949  -2839319.77545  24396727.677    24396743.202
  23093293.867    -9238586.49949  -6984045.84246  23093293.975    23093310.189
 02  4  3 21 43  0.0000000  0 10G 6G30G23G 5G15G17G10G18G22G26
  20290030.163   -16752115.38649 -13044065.45548  20290030.014    20290037.419
  22511604.600     7103190.65549   5540452.16146  22511604.840    22511617.973
  20593893.884   -22475612.24649 -17275719.92948  20593893.385    20593901.677
  24511641.199    21889786.20449  17056398.88445  24511640.713    24511664.761
  22533794.117   -15434627.92549 -12005027.20946  22533793.480    22533806.760
  21667955.220   -20584458.39249 -16018232.26047  21667954.717    21667964.831
  22048455.070    -1561918.15949  -1198623.14047  22048454.263    22048463.615
  23180127.203    -9655822.84949  -6751276.14646  23180126.773    23180142.531
  24384134.956    -4199032.02449  -2890887.27845  24384134.266    24384149.874
  23078039.349    -9318748.47649  -7046509.33746  23078039.396    23078055.533
 02  4  3 21 43 30.0000000  0 10G 6G30G23G 5G15G17G10G18G22G26
  20287503.997   -16765390.51449 -13054409.71548  20287503.843    20287511.237
  22530068.216     7200216.46349   5616056.41146  22530068.458    22530081.616
  20591437.897   -22488518.23049 -17285776.49748  20591437.395    20591445.679
  24531790.415    21995668.37449  17138903.79645  24531789.924    24531814.127
  22521163.627   -15501000.72749 -12056746.09046  22521163.024    22521176.295
  21659216.289   -20630381.34949 -16054016.29947  21659215.787    21659225.902
  22064110.181    -1479650.15149  -1134518.25347  22064109.375    22064118.733
  23160782.510    -9757478.13349  -6830487.65746  23160782.065    23160797.711
  24371624.257    -4264776.02849  -2942116.31545  24371623.526    24371639.156
  23062838.375    -9398628.64549  -7108753.25246  23062838.430    23062854.466
 02  4  3 21 44  0.0000000  0 10G 6G30G23G 5G15G17G10G18G22G26
  20285055.212   -16778259.10549 -13064437.19748  20285055.049    20285062.446
  22548570.663     7297446.47449   5691819.78146  22548570.899    22548584.134
  20589080.801   -22500904.70849 -17295428.25548  20589080.296    20589088.551
  24551931.885    22101509.81249  17221376.98445  24551931.380    24551955.708
  22508565.822   -15567201.68049 -12108331.05146  22508565.215    22508578.480
  21650511.048   -20676127.07349 -16089662.23247  21650510.544    21650520.666
  22079829.762    -1397043.47949  -1070149.47247  22079828.923    22079838.326
  23141479.619    -9858913.87149  -6909528.09146  23141479.188    23141494.660
  24359196.329    -4330084.52149  -2993005.96545  24359195.620    24359211.435
  23047691.505    -9478224.37749  -7170775.54546  23047691.606    23047707.515
 02  4  3 21 44 30.0000000  0 10G 6G30G23G 5G15G17G10G18G22G26
  20282684.110   -16790719.27749 -13074146.42648  20282683.950    20282691.320
  22567111.454     7394877.98949   5767740.15846  22567111.713    22567125.009
  20586822.532   -22512771.56249 -17304675.10748  20586822.030    20586830.287
  24572065.152    22207308.37249  17303816.75845  24572064.722    24572089.116
  22496000.851   -15633230.47449 -12159781.86846  22496000.233    22496013.447
  21641839.605   -20721695.39849 -16125169.92947  21641839.107    21641849.227
  22095613.369    -1314100.33349  -1005518.49647  22095612.566    22095621.933
  23122218.951    -9960127.66349  -6988395.59246  23122218.532    23122233.918
  24346851.888    -4394955.16449  -3043554.43745  24346851.166    24346866.892
  23032599.490    -9557531.94749  -7232573.27546  23032599.614    23032615.417
 02  4  3 21 45  0.0000000  0 10G 6G30G23G 5G15G17G10G18G22G26
  20280390.758   -16802770.89449 -13083537.30348  20280390.598    20280397.976
  22585689.865     7492507.08049   5843814.49146  22585690.112    22585703.514
  20584662.932   -22524120.15649 -17313518.12448  20584662.425    20584670.674
  24592189.624    22313060.51049  17386220.35145  24592189.171    24592213.684
  22483468.423   -15699088.15249 -12211099.34246  22483467.760    22483480.931
  21633201.651   -20767087.56349 -16160540.36847  21633201.167    21633211.284
  22111460.306    -1230824.55249   -940628.33747  22111459.485    22111468.814
  23103000.661   -10061118.51349  -7067089.36846  23103000.276    23103015.593
  24334590.949    -4459387.10049  -3093761.05945  24334590.144    24334605.825
  23017562.889    -9636548.86449  -7294144.53546  23017562.954    23017578.563
 02  4  3 21 45 30.0000000  0 10G 6G30G23G 5G15G17G10G18G22G26
  20278175.502   -16814412.11349 -13092608.38748  20278175.331    20278182.745
  22604305.272     7590330.93349   5920040.57846  22604305.544    22604319.033
  20582601.961   -22534950.48749 -17321957.30048  20582601.452    20582609.684
  24612304.865    22418764.14349  17468586.13745  24612304.424    24612329.104
  22470968.598   -15764774.37649 -12262283.21446  22470967.913    22470981.086
  21624597.230   -20812303.55149 -16195773.52847  21624596.753    21624606.854
  22127370.066    -1147218.39449   -875480.73447  22127369.261    22127378.578
  23083825.403   -10161883.56149  -7145607.19546  23083825.031    23083840.287
  24322413.879    -4523378.00249  -3143624.03345  24322413.204    24322428.796
  23002582.188    -9715271.40149  -7355486.40946  23002582.255    23002597.794
 02  4  3 21 46  0.0000000  0 10G 6G30G23G 5G15G17G10G18G22G26
  20276038.657   -16825641.22249 -13101358.34548  20276038.501    20276045.927
  22622957.328     7688346.96149   5996416.41046  22622957.582    22622971.098
  20580639.566   -22545262.67249 -17329992.72448  20580639.040    20580647.277
  24632410.392    22524416.91949  17550912.28345  24632410.006    24632434.839
  22458501.511   -15830288.55149 -12313333.02146  22458500.844    22458513.968
  21616026.420   -20857343.07349 -16230869.17447  21616025.927    21616036.018
  22143342.178    -1063284.68849   -810077.89747  22143341.364    22143350.676
  23064693.474   -10262420.82649  -7223947.53446  23064693.146    23064708.289
  24310321.238    -4586925.70049  -3193141.63245  24310320.326    24310336.117
  22987658.183    -9793695.69049  -7416595.86846  22987658.296    22987673.758
 02  4  3 21 46 30.0000000  0 10G 6G30G23G 5G15G17G10G18G22G26
  20273980.592   -16836456.26849 -13109785.66048  20273980.445    20273987.888
  22641645.512     7786552.78949   6072940.14146  22641645.775    22641659.302
  20578775.801   -22555056.47749 -17337624.21648  20578775.290    20578783.523
  24652505.937    22630017.24449  17633197.55545  24652505.385    24652530.660
  22446067.259   -15895630.14249 -12364248.35246  22446066.622    22446079.729
  21607489.244   -20902205.87549 -16265827.11647  21607488.757    21607498.808
  22159376.199     -979025.38849   -744421.35546  22159375.404    22159384.710
  23045605.480   -10362727.61249  -7302108.27846  23045605.110    23045620.153
  24298313.257    -4650027.44449  -3242311.73945  24298312.378    24298328.277
  22972791.767    -9871817.76049  -7477469.83346  22972791.937    22972807.319
 02  4  3 21 47  0.0000000  0 10G 6G30G23G 5G15G17G10G18G22G26
  20272001.504   -16846856.51749 -13117889.75648  20272001.355    20272008.792
  22660369.093     7884944.75149   6149608.91246  22660369.362    22660382.976
  20577010.496   -22564333.00549 -17344852.64248  20577009.993    20577018.229
  24672590.915    22735561.98849  17715439.50345  24672590.390    24672615.700
  22433665.653   -15960800.06749 -12415029.91946  22433665.037    22433678.111
  21598985.569   -20946892.81249 -16300648.02947  21598985.074    21598995.074
  22175471.552     -894443.96349   -678513.81346  22175470.751    22175480.092
  23026561.634   -10462802.12149  -7380088.03446  23026561.274    23026576.241
  24286390.398    -4712682.21449  -3291133.54945  24286389.612    24286405.422
  22957983.583    -9949634.74049  -7538106.06646  22957983.609    22957998.841
 02  4  3 21 47 30.0000000  0 10G 6G30G23G 5G15G17G10G18G22G26
  20270101.383   -16856841.71949 -13125670.43248  20270101.231    20270108.693
  22679127.312     7983518.59549   6226419.40246  22679127.596    22679141.232
  20575343.300   -22573093.74049 -17351679.14548  20575342.817    20575351.050
  24692664.637    22841047.46049  17797635.28245  24692664.173    24692689.556
  22421296.527   -16025799.43449 -12465678.58246  22421295.920    22421308.944
  21590515.061   -20991405.36149 -16335333.04647  21590514.558    21590524.539
  22191627.450     -809544.18749   -612358.19646  22191626.647    22191636.017
  23007562.117   -10562643.75949  -7457886.31946  23007561.757    23007576.645
  24274552.646    -4774889.28549  -3339606.51245  24274551.948    24274567.801
  22943233.596   -10027144.31649  -7598502.75646  22943233.671    22943248.885
 02  4  3 21 48  0.0000000  0 10G 6G30G23G 5G15G17G10G18G22G26
  20268280.566   -16866410.09349 -13133126.31948  20268280.421    20268287.884
  22697919.665     8082272.12549   6303369.90546  22697919.937    22697933.682
  20573774.307   -22581338.67049 -17358103.72548  20573773.813    20573782.043
  24712726.744    22946471.74249  17879783.37045  24712726.274    24712751.797
  22408960.051   -16090627.30349 -12516193.61646  22408959.461    22408972.393
  21582077.812   -21035742.97149 -16369881.75447  21582077.329    21582087.280
  22207843.569     -724328.24949   -545956.23346  22207842.770    22207852.145
  22988607.425   -10662249.81249  -7535501.05146  22988607.069    22988621.888
  24262800.564    -4836646.04149  -3387728.56045  24262799.953    24262815.722
  22928542.916   -10104342.54649  -7658656.85446  22928543.030    22928558.153
 02  4  3 21 48 30.0000000  0 10G 6G30G23G 5G15G17G10G18G22G26
  20266539.775   -16875557.88049 -13140254.47548  20266539.637    20266547.114
  22716746.053     8181204.57749   6380459.81046  22716746.353    22716760.221
  20572303.833   -22589065.86449 -17364124.87748  20572303.341    20572311.565
  24732777.175    23051834.80449  17961883.73945  24732776.624    24732802.562
  22396656.599   -16155281.65449 -12566573.44046  22396655.968    22396668.884
  21573674.283   -21079903.61049 -16404292.55647  21573673.787    21573683.740
  22224119.693     -638796.74249   -479308.37246  22224118.903    22224128.291
  22969698.361   -10761615.95249  -7612928.83946  22969697.989    22969712.732
  24251135.017    -4897948.43149  -3435496.57545  24251134.499    24251150.064
  22913912.709   -10181223.68349  -7718563.87746  22913912.779    22913927.743
 02  4  3 21 49  0.0000000  0 10G 6G30G23G 5G15G17G10G18G22G26
  20264878.936   -16884285.70549 -13147055.38648  20264878.796    20264886.273
  22735605.604     8280311.03649   6457685.32146  22735605.887    22735619.819
  20570931.389   -22596277.95349 -17369744.64648  20570930.901    20570939.103
  24752815.118    23157132.25849  18043932.98345  24752814.583    24752840.338
  22384385.873   -16219764.23449 -12616819.42346  22384385.253    22384398.077
  21565304.004   -21123889.38749 -16438567.10647  21565303.521    21565313.449
  22240454.941     -552954.52949   -412418.39646  22240454.124    22240463.577
  22950835.037   -10860741.94249  -7690169.49346  22950834.699    22950849.346
  24239555.883    -4958796.46249  -3482910.52445  24239555.385    24239570.949
  22899342.955   -10257786.05949  -7778222.50646  22899343.105    22899358.066
 02  4  3 21 49 30.0000000  0 10G 6G30G23G 5G15G17G10G18G22G26
  20263298.265   -16892592.27949 -13153528.04748  20263298.121    20263305.596
  22754497.699     8379588.40949   6535043.99946  22754497.968    22754511.952
  20569656.917   -22602975.47149 -17374963.45248  20569656.403    20569664.583
  24772840.036    23262361.41649  18125929.01244  24772839.539    24772865.487
  22372147.752   -16284075.18549 -12666931.68346  22372147.125    22372159.914
  21556966.925   -21167700.72549 -16472705.72747  21556966.433    21556976.358
  22256848.848     -466804.05349   -345288.22046  22256848.035    22256857.539
  22932017.714   -10959626.03549  -7767221.66146  22932017.355    22932031.956
  24228063.526    -5019188.48349  -3529969.16345  24228062.941    24228078.744
  22884834.616   -10334026.56749  -7837630.32646  22884834.759    22884849.652
 02  4  3 21 50  0.0000000  0 10G 6G30G23G 5G15G17G10G18G22G26
  20261797.641   -16900478.02849 -13159672.79248  20261797.509    20261804.982
  22773421.421     8479032.08349   6612532.25546  22773421.698    22773435.800
  20568479.897   -22609160.51549 -17379782.93148  20568479.408    20568487.555
  24792851.262    23367518.39849  18207868.78544  24792850.616    24792876.776
  22359942.027   -16348216.06349 -12716911.40746  22359941.445    22359954.106
  21548662.677   -21211339.44049 -16506709.83947  21548662.202    21548672.105
  22273300.567     -380349.93349   -277921.44346  22273299.736    22273309.305
  22913246.538   -11058267.72349  -7844084.93846  22913246.151    22913260.725
  24216658.019    -5079124.29049  -3576672.27945  24216657.467    24216673.204
  22870387.853   -10409943.42549  -7896785.96146  22870387.980    22870402.749
 02  4  3 21 50 30.0000000  0  9G 6G30G23G15G17G10G18G22G26
  20260378.841   -16907933.98349 -13165482.63848  20260378.702    20260386.170
  22792377.667     8578646.69949   6690153.69346  22792377.925    22792392.133
  20567401.780   -22614825.99049 -17384197.55548  20567401.284    20567409.414
  22347770.188   -16412179.04449 -12766752.53846  22347769.591    22347782.173
  21540392.750   -21254797.97549 -16540573.55347  21540392.267    21540402.170
  22289810.985     -293587.32049   -210314.28046  22289810.185    22289819.720
  22894523.310   -11156657.38049  -7920751.85746  22894522.942    22894537.459
  24205341.378    -5138594.34749  -3623012.51345  24205340.642    24205356.386
  22856004.762   -10485525.35749  -7955680.63046  22856004.878    22856019.591
 02  4  3 21 51  0.0000000  0  9G 6G30G23G15G17G10G18G22G26
  20259040.783   -16914965.57149 -13170961.80748  20259040.638    20259048.090
  22811364.613     8678422.55349   6767900.78546  22811364.880    22811379.149
  20566421.100   -22619979.22449 -17388213.02948  20566420.613    20566428.730
  22335630.869   -16475971.13449 -12816460.49546  22335630.295    22335642.809
  21532155.734   -21298083.44849 -16574302.41147  21532155.229    21532165.139
  22306378.353     -206525.44249   -142473.92346  22306377.556    22306387.142
  22875847.157   -11254799.95049  -7997226.23246  22875846.812    22875861.178
  24194112.141    -5197603.83349  -3668993.85245  24194111.405    24194127.077
  22841684.739   -10560775.86849  -8014317.03946  22841684.891    22841699.483
 02  4  3 21 51 30.0000000  0  9G 6G30G23G15G17G10G18G22G26
  20257783.521   -16921572.65449 -13176110.19348  20257783.368    20257790.821
  22830381.492     8778355.59949   6845770.36546  22830381.775    22830396.088
  20565537.589   -22624621.94049 -17391830.69548  20565537.095    20565545.209
  22323523.805   -16539593.51649 -12866036.21546  22323523.227    22323535.682
  21523951.404   -21341197.01049 -16607897.31547  21523950.899    21523960.795
  22323001.918     -119168.39249    -74403.56746  22323001.128    22323010.720
  22857218.229   -11352694.18849  -8073507.10246  22857217.848    22857232.214
  24182970.743    -5256152.02349  -3714615.72445  24182970.018    24182985.536
  22827428.357   -10635692.61949  -8072693.39846  22827428.451    22827442.943
 02  4  3 21 52  0.0000000  0  9G 6G30G23G15G17G10G18G22G26
  20256607.603   -16927752.05249 -13180925.31848  20256607.443    20256614.913
  22849428.021     8878444.62949   6923761.49046  22849428.299    22849442.683
  20564751.467   -22628752.91949 -17395049.61048  20564750.979    20564759.091
  22311449.466   -16603044.05449 -12915478.04446  22311448.896    22311461.299
  21515780.087   -21384137.24249 -16641357.15947  21515779.596    21515789.478
  22339681.540      -31517.02149     -6103.86746  22339680.721    22339690.319
  22838637.350   -11450336.21749  -8149591.45646  22838636.951    22838651.186
  24171917.930    -5314235.06649  -3759875.15745  24171917.101    24171932.547
  22813236.406   -10710270.31149  -8130805.55146  22813236.516    22813250.934
 02  4  3 21 52 30.0000000  0  9G 6G30G23G15G17G10G18G22G26
  20255512.904   -16933504.68849 -13185407.89448  20255512.740    20255520.245
  22868503.261     8978684.53649   7001870.17346  22868503.574    22868518.017
  20564062.176   -22632374.84849 -17397871.85848  20564061.686    20564069.806
  22299407.431   -16666324.86849 -12964787.60546  22299406.842    22299419.198
  21507641.332   -21426906.25449 -16674683.58047  21507640.840    21507650.704
  22356416.166       56423.65249     62421.26246  22356415.355    22356424.916
  22820104.353   -11547726.35249  -8225479.54746  22820103.951    22820118.068
  24160953.367    -5371853.57449  -3804772.58745  24160952.610    24160967.971
  22799109.296   -10784507.64549  -8188652.51246  22799109.376    22799123.694
 02  4  3 21 53  0.0000000  0  9G 6G30G23G15G17G10G18G22G26
  20254500.008   -16938827.35649 -13189555.43148  20254499.852    20254507.369
  22887607.120     9079074.57249   7080095.85646  22887607.419    22887621.941
  20563470.080   -22635486.20449 -17400296.25548  20563469.596    20563477.729
  22287398.036   -16729433.91149 -13013963.32746  22287397.456    22287409.781
  21499535.552   -21469502.18649 -16707875.13247  21499535.072    21499544.902
  22373205.678      144652.85149    131171.22246  22373204.882    22373214.456
  22801620.080   -11644860.44849  -8301168.11346  22801619.718    22801633.682
  24150077.890    -5429003.74649  -3849305.09545  24150077.211    24150092.590
  22785047.874   -10858399.35149  -8246230.14246  22785047.980    22785062.177
 02  4  3 21 53 30.0000000  0  9G 6G30G23G15G17G10G18G22G26
  20253569.468   -16943717.49549 -13193365.94248  20253569.316    20253576.818
  22906739.216     9179613.05449   7158437.19246  22906739.503    22906754.117
  20562975.259   -22638086.46049 -17402322.39948  20562974.769    20562982.895
  22275421.656   -16792369.72649 -13063004.06746  22275421.077    22275433.334
  21491462.874   -21511923.95249 -16740930.98047  21491462.390    21491472.196
  22390049.893      233169.50449    200145.17246  22390049.091    22390058.655
  22783185.115   -11741735.25649  -8376654.66046  22783184.810    22783198.707
  24139292.272    -5485682.37749  -3893470.18145  24139291.536    24139306.818
  22771053.249   -10931940.56949  -8303534.67046  22771053.289    22771067.468
 02  4  3 21 54  0.0000000  0  9G 6G30G23G15G17G10G18G22G26
  20252720.999   -16948176.30349 -13196840.34748  20252720.843    20252728.347
  22925898.488     9280294.49349   7236889.92246  22925898.770    22925913.518
  20562577.112   -22640178.75449 -17403952.72348  20562576.614    20562584.729
  22263477.785   -16855134.76349 -13111911.72246  22263477.176    22263489.374
  21483422.863   -21554174.15249 -16773853.13347  21483422.396    21483432.188
  22406947.738      321968.17949    269338.87646  22406946.963    22406956.563
  22764799.506   -11838351.01349  -8451939.34546  22764799.188    22764812.991
  24128596.196    -5541890.47049  -3937268.59845  24128595.401    24128610.725
  22757125.450   -11005130.37949  -8360565.39146  22757125.510    22757139.553
 02  4  3 21 54 30.0000000  0  9G 6G30G23G15G17G10G18G22G26
  20251955.163   -16952200.90249 -13199976.40548  20251955.003    20251962.497
  22945084.649     9381117.32749   7315452.84146  22945084.978    22945099.829
  20562275.756   -22641762.22749 -17405186.56448  20562275.253    20562283.347
  22251566.611   -16917727.54249 -13160685.15646  22251565.992    22251578.184
  21475415.734   -21596251.58249 -16806640.66647  21475415.250    21475425.057
  22423899.082      411047.85749    338751.54046  22423898.308    22423907.935
  22746463.808   -11934704.40549  -8527019.59746  22746463.462    22746477.164
  24117990.211    -5597624.77349  -3980697.85045  24117989.413    24118004.701
  22743265.433   -11077963.90349  -8417318.47746  22743265.506    22743279.466
 02  4  3 21 55  0.0000000  0  9G 6G30G23G15G17G10G18G22G26
  20251272.204   -16955790.13649 -13202773.21748  20251272.066    20251279.521
  22964297.243     9482078.93849   7394123.89846  22964297.537    22964312.476
  20562071.120   -22642837.59649 -17406024.48148  20562070.615    20562078.688
  22239688.243   -16980147.93749 -13209324.26246  22239687.635    22239699.837
  21467441.506   -21638156.19049 -16839293.53547  21467441.010    21467450.822
  22440903.360      500405.66249    408380.93046  22440902.557    22440912.254
  22728178.422   -12030793.47749  -8601893.88746  22728178.071    22728191.701
  24107474.831    -5652883.37949  -4023756.40845  24107474.043    24107489.184
  22729473.816   -11150437.74549  -8473791.30446  22729473.923    22729487.818
 02  4  3 21 55 30.0000000  0  9G 6G30G23G15G17G10G18G22G26
  20250671.932   -16958944.55849 -13205231.21648  20250671.792    20250679.232
  22983535.347     9583174.50449   7472899.32046  22983535.619    22983550.605
  20561962.682   -22643407.28349 -17406468.36048  20561962.200    20561970.226
  22227842.343   -17042397.72549 -13257830.43446  22227841.746    22227853.933
  21459499.772   -21679890.02049 -16871813.32847  21459499.278    21459509.070
  22457959.728      590037.26649    478223.66946  22457958.918    22457968.663
  22709943.430   -12126617.66849  -8676561.78546  22709943.074    22709956.643
  24097049.803    -5707666.63149  -4066444.57345  24097049.160    24097064.226
  22715751.097   -11222550.14949  -8529982.49946  22715751.183    22715764.984
 02  4  3 21 56  0.0000000  0  9G 6G30G23G15G17G10G18G22G26
  20250154.916   -16961661.65749 -13207348.44648  20250154.779    20250162.191
  23002798.609     9684402.31849   7551777.79346  23002798.892    23002813.990
  20561950.619   -22643470.60249 -17406517.66748  20561950.138    20561958.151
  22216029.191   -17104475.51249 -13306202.57246  22216028.584    22216040.750
  21451590.710   -21721451.95549 -16904199.18047  21451590.213    21451600.011
  22475067.906      679941.14749    548278.56746  22475067.084    22475076.831
  22691759.414   -12222173.95249  -8751020.92446  22691759.092    22691772.545
  24086715.903    -5761971.31049  -4108759.82145  24086715.194    24086730.432
  22702098.028   -11294296.53249  -8585888.48746  22702098.115    22702111.827
 02  4  3 21 56 30.0000000  0  9G 6G30G23G15G17G10G18G22G26
  20249721.403   -16963939.75549 -13209123.59748  20249721.260    20249728.686
  23022086.575     9785759.90749   7630757.38746  23022086.850    23022102.048
  20562034.800   -22643028.09149 -17406172.82248  20562034.320    20562042.323
  22204248.856   -17166380.94849 -13354440.41146  22204248.259    22204260.396
  21443714.444   -21762841.65449 -16936450.82447  21443713.956    21443723.746
  22492227.468      770115.08349    618543.91146  22492226.636    22492236.444
  22673626.924   -12317459.82149  -8825269.34746  22673626.586    22673639.909
  24076473.589    -5815795.53449  -4150700.69345  24076472.775    24076487.948
  22688515.297   -11365673.06049  -8641506.28046  22688515.408    22688529.080
 02  4  3 21 57  0.0000000  0  9G 6G30G23G15G17G10G18G22G26
  20249371.655   -16965777.77449 -13210555.82848  20249371.532    20249378.952
  23041398.652     9887244.40949   7709835.85946  23041398.961    23041414.211
  20562215.132   -22642080.49549 -17405434.40648  20562214.645    20562222.628
  22192501.338   -17228113.79449 -13402543.76046  22192500.721    22192512.852
  21435870.965   -21804059.24549 -16968568.35747  21435870.466    21435880.235
  22509437.889      860556.45549    689017.63646  22509437.071    22509446.937
  22655546.191   -12412473.37349  -8899305.58746  22655545.872    22655559.100
  24066322.867    -5869137.74149  -4192265.95045  24066322.043    24066337.223
  22675003.549   -11436676.55649  -8696833.40146  22675003.652    22675017.311
 02  4  3 21 57 30.0000000  0  9G 6G30G23G15G17G10G18G22G26
  20249105.544   -16967176.23349 -13211645.53948  20249105.406    20249112.855
  23060733.991     9988851.00649   7789009.48446  23060734.285    23060749.632
  20562491.031   -22640630.46549 -17404304.47748  20562490.544    20562498.515
  22180786.315   -17289675.92949 -13450514.08546  22180785.712    22180797.788
  21428059.811   -21845106.95649 -17000553.51447  21428059.313    21428069.048
  22526698.344      951260.49449    759696.04846  22526697.532    22526707.380
  22637517.353   -12507214.45749  -8973129.49346  22637516.994    22637530.159
  24056263.821    -5921998.16149  -4233455.79545  24056262.996    24056278.172
  22661563.155   -11507305.51849  -8751868.66946  22661563.197    22661576.766
 02  4  3 21 58  0.0000000  0  9G 6G30G23G15G17G10G18G22G26
  20248923.677   -16968132.05549 -13212390.34448  20248923.522    20248931.011
  23080092.391    10090578.78249   7868277.52446  23080092.704    23080108.152
  20562862.805   -22638676.72049 -17402782.04748  20562862.317    20562870.290
  22169104.198   -17351065.18449 -13498349.70146  22169103.599    22169115.650
  21420281.367   -21885982.70249 -17032404.68247  21420280.858    21420290.572
  22544008.672     1042226.59749    830578.66146  22544007.868    22544017.715
  22619541.041   -12601679.08649  -9046737.99246  22619540.698    22619553.816
  24046297.111    -5974373.06049  -4274267.32145  24046296.345    24046311.413
  22648195.008   -11577554.29549  -8806607.70646  22648195.081    22648208.604
 02  4  3 21 58 30.0000000  0  9G 6G30G23G15G17G10G18G22G26
  20248825.892   -16968645.80749 -13212790.68348  20248825.740    20248833.235
  23099472.971    10192423.08349   7947636.35346  23099473.277    23099488.825
  20563329.940   -22636221.67649 -17400868.99748  20563329.453    20563337.414
  22157454.670   -17412283.25749 -13546051.93846  22157454.094    22157466.096
  21412535.263   -21926688.45849 -17064123.39147  21412534.781    21412544.435
  22561368.005     1133450.18149    901661.90246  22561367.210    22561377.051
  22601617.434   -12695867.20549  -9120131.04346  22601617.087    22601630.134
  24036422.750    -6026262.75449  -4314700.76545  24036421.972    24036437.100
  22634899.525   -11647421.47349  -8861049.39246  22634899.596    22634913.013
 02  4  3 21 59  0.0000000  0  9G 6G30G23G15G17G10G18G22G26
  20248813.189   -16968712.60649 -13212842.74248  20248813.018    20248820.543
  23118875.920    10294384.81849   8027086.69046  23118876.164    23118891.853
  20563893.052   -22633262.49149 -17398563.10448  20563892.554    20563900.525
  22145838.408   -17473326.60249 -13593618.01946  22145837.816    22145849.772
  21404822.228   -21967220.50149 -17095706.73547  21404821.750    21404831.334
  22578776.535     1224932.33849    972946.62646  22578775.719    22578785.591
  22583747.549   -12789772.93349  -9193304.04246  22583747.188    22583760.172
  24026641.804    -6077661.80249  -4354751.88645  24026640.943    24026656.114
  22621677.895   -11716899.98349  -8915188.21946  22621678.039    22621691.401
 02  4  3 21 59 30.0000000  0  9G 6G30G23G15G17G10G18G22G26
  20248884.839   -16968336.01849 -13212549.30248  20248884.679    20248892.206
  23138299.720    10396456.35249   8106622.58246  23138299.978    23138315.776
  20564550.991   -22629804.80549 -17395868.77148  20564550.488    20564558.455
  22134254.556   -17534199.57249 -13641051.33446  22134253.955    22134265.852
  21397141.309   -22007583.79649 -17127158.58647  21397140.808    21397150.358
  22596232.962     1316666.08049   1044427.39846  22596232.134    22596241.999
  22565930.835   -12883399.14049  -9266259.24046  22565930.472    22565943.382
  24016953.408    -6128573.48549  -4394423.23045  24016952.710    24016967.903
  22608530.089   -11785991.25349  -8969025.31046  22608530.181    22608543.511
 02  4  3 22  0  0.0000000  0  9G 6G30G23G15G17G10G18G22G26
  20249041.701   -16967511.57149 -13211906.88548  20249041.550    20249049.089
  23157744.502    10498638.11749   8186244.35346  23157744.816    23157760.652
  20565304.249   -22625846.25449 -17392784.16148  20565303.747    20565311.706
  22122703.842   -17594898.66649 -13688349.17246  22122703.202    22122715.065
  21389493.132   -22047775.10349 -17158476.42047  21389492.622    21389502.133
  22613737.330     1408652.06149   1116104.71546  22613736.516    22613746.406
  22548168.361   -12976740.47449  -9338992.46246  22548168.019    22548180.812
  24007358.899    -6178992.88749  -4433710.98645  24007358.152    24007373.294
  22595457.216   -11854688.51549  -9022555.40146  22595457.311    22595470.611
 02  4  3 22  0 30.0000000  0  9G 6G30G23G15G17G10G18G22G26
  20249283.199   -16966242.40049 -13210917.92848  20249283.043    20249290.613
  23177208.953    10600923.12249   8265946.59346  23177209.242    23177225.187
  20566151.905   -22621391.61549 -17389312.98348  20566151.400    20566159.364
  22111185.347   -17655428.20649 -13735514.88546  22111184.735    22111196.512
  21381876.868   -22087798.58649 -17189663.48047  21381876.365    21381885.867
  22631288.361     1500883.10749   1187972.99146  22631287.566    22631297.437
  22530459.680   -13069799.12349  -9411505.40846  22530459.318    22530472.049
  23997857.477    -6228922.53149  -4472617.11245  23997856.770    23997871.895
  22582459.239   -11922992.55149  -9075779.07646  22582459.279    22582472.507
 02  4  3 22  1  0.0000000  0  9G 6G30G23G15G17G10G18G22G26
  20249609.852   -16964525.81149 -13209580.33348  20249609.687    20249617.292
  23196692.810    10703309.98349   8345728.18446  23196693.103    23196709.185
  20567094.066   -22616440.45949 -17385454.91148  20567093.567    20567101.512
  22099699.415   -17715786.56549 -13782547.20646  22099698.737    22099710.526
  21374292.767   -22127652.84549 -17220718.67647  21374292.276    21374301.772
  22648885.834     1593358.38449   1260031.58246  22648885.023    22648894.920
  22512805.445   -13162571.59749  -9483795.36246  22512805.079    22512817.749
  23988449.916    -6278359.48649  -4511139.32245  23988449.302    23988464.118
  22569536.973   -11990898.63149  -9128692.65346  22569536.965    22569550.112
 02  4  3 22  1 30.0000000  0  9G 6G30G23G15G17G10G18G22G26
  20250022.071   -16962359.61449 -13207892.39948  20250021.912    20250029.524
  23216195.690    10805796.94749   8425587.77046  23216196.001    23216212.182
  20568130.730   -22610992.56449 -17381209.77148  20568130.230    20568138.173
  22088246.286   -17775972.59749 -13829445.25746  22088245.616    22088257.357
  21366741.054   -22167337.16149 -17251641.45347  21366740.553    21366750.047
  22666529.519     1686076.27849   1332279.21246  22666528.718    22666538.596
  22495206.257   -13255054.87749  -9555859.99046  22495205.854    22495218.481
  23979136.502    -6327301.29049  -4549275.71145  23979135.890    23979150.696
  22556691.252   -12058402.47649  -9181292.80146  22556691.238    22556704.266
 02  4  3 22  2  0.0000000  0  9G 6G30G23G15G17G10G18G22G26
  20250520.024   -16959742.94349 -13205853.44948  20250519.867    20250527.481
  23235717.056    10908380.92549   8505522.95446  23235717.317    23235733.620
  20569261.765   -22605048.90449 -17376578.32448  20569261.267    20569269.213
  22076825.926   -17835986.29549 -13876209.02046  22076825.303    22076836.971
  21359221.707   -22206851.52449 -17282431.80747  21359221.209    21359230.668
  22684218.879     1779034.04749   1404713.76846  22684218.072    22684227.971
  22477662.440   -13347247.31449  -9627697.96946  22477662.019    22477674.585
  23969917.581    -6375746.62949  -4587025.24445  23969916.961    23969931.824
  22543922.702   -12125500.84549  -9233577.01546  22543922.677    22543935.628
 02  4  3 22  2 30.0000000  0  9G 6G30G23G15G17G10G18G22G26
  20251103.682   -16956675.83349 -13203463.50148  20251103.533    20251111.132
  23255256.133    11011057.81449   8585530.51746  23255256.410    23255272.777
  20570486.715   -22598611.70549 -17371562.29648  20570486.209    20570494.158
  22065438.148   -17895828.76249 -13922839.35446  22065437.506    22065449.138
  21351734.382   -22246197.32549 -17313090.80647  21351733.892    21351743.346
  22701953.108     1872227.70249   1477332.12846  22701952.275    22701962.149
  22460174.100   -13439147.97349  -9699308.60146  22460173.686    22460186.113
  23960793.248    -6423695.03549  -4624387.54745  23960792.589    23960807.471
  22531231.729   -12192191.57749  -9285543.58546  22531231.644    22531244.499
 02  4  3 22  3  0.0000000  0  9G 6G30G23G15G17G10G18G22G26
  20251773.707   -16953155.12549 -13200720.10448  20251773.549    20251781.103
  23274812.758    11113827.04249   8665610.03946  23274813.031    23274829.452
  20571805.780   -22591679.84849 -17366160.82248  20571805.296    20571813.227
  22054083.381   -17955497.82649 -13969334.58146  22054082.736    22054094.295
  21344279.559   -22285372.55649 -17343616.89647  21344279.063    21344288.475
  22719732.161     1965656.76549   1550133.92246  22719731.327    22719741.196
  22442742.028   -13530753.19749  -9770689.02646  22442741.604    22442753.931
  23951763.994    -6471143.06449  -4661359.96545  23951763.519    23951778.396
  22518619.253   -12258469.41549  -9337188.41846  22518619.195    22518632.019
 02  4  3 22  3 30.0000000  0  9G 6G30G23G15G17G10G18G22G26
  20252529.477   -16949183.61449 -13197625.43148  20252529.326    20252536.857
  23294385.689    11216681.76649   8745756.16246  23294385.961    23294402.459
  20573218.119   -22584258.02049 -17360377.54948  20573217.618    20573225.538
  22042760.926   -18014997.03049 -14015697.44346  22042760.295    22042771.786
  21336856.421   -22324381.14549 -17374013.12947  21336855.922    21336865.304
  22737554.764     2059314.95449   1623114.25746  22737553.948    22737563.784
  22425365.823   -13622064.72749  -9841840.60346  22425365.393    22425377.672
  23942829.597    -6518093.15049  -4697944.37045  23942829.135    23942844.006
  22506085.344   -12324334.78449  -9388511.83546  22506085.281    22506098.005
 02  4  3 22  4  0.0000000  0  9G 6G30G23G15G17G10G18G22G26
  20253371.957   -16944756.58249 -13194175.81448  20253371.792    20253379.312
  23313975.095    11319623.02349   8825969.72146  23313975.311    23313991.951
  20574724.185   -22576343.55949 -17354210.41348  20574723.675    20574731.576
  22031471.529   -18074322.72949 -14061925.11846  22031470.890    22031482.350
  21329465.764   -22363219.24949 -17404276.51947  21329465.268    21329474.599
  22755421.116     2153203.15049   1696273.81546  22755420.310    22755430.147
  22408046.564   -13713076.84049  -9912758.87746  22408046.143    22408058.348
  23933990.891    -6564540.31149  -4734136.90245  23933990.504    23934005.395
  22493631.128   -12389780.75249  -9439508.45846  22493631.124    22493643.846
 02  4  3 22  4 30.0000000  0  9G 6G30G23G15G17G10G18G22G26
  20254301.254   -16939873.27549 -13190370.65548  20254301.079    20254308.585
  23333580.328    11422647.55749   8906248.15946  23333580.538    23333597.264
  20576323.777   -22567937.55249 -17347660.25248  20576323.268    20576331.155
  22020215.088   -18133475.10949 -14108017.73246  22020214.453    22020225.879
  21322107.393   -22401887.56749 -17434407.60747  21322106.893    21322116.188
  22773330.764     2247318.33349   1769610.24946  22773329.901    22773339.760
  22390784.524   -13803788.11449  -9983442.72746  22390784.133    22390796.275
  23925248.229    -6610483.32249  -4769936.57645  23925247.676    23925262.738
  22481257.352   -12454804.56649  -9490176.12846  22481257.330    22481269.964
 02  4  3 22  5  0.0000000  0  9G 6G30G23G15G17G10G18G22G26
  20255317.039   -16934535.35549 -13186211.25348  20255316.866    20255324.374
  23353200.303    11525749.85649   8986587.19446  23353200.555    23353217.356
  20578016.177   -22559043.75949 -17340729.99748  20578015.666    20578023.547
  22008991.122   -18192456.85149 -14153977.39046  22008990.513    22009001.907
  21314780.833   -22440388.71049 -17464408.43147  21314780.315    21314789.606
  22791282.567     2341655.31549   1843119.51046  22791281.694    22791291.579
  22373579.639   -13894199.21249 -10053892.68146  22373579.274    22373591.332
  23916601.178    -6655923.53049  -4805344.45245  23916600.662    23916615.729
  22468963.976   -12519405.44249  -9540514.23646  22468964.000    22468976.611
 02  4  3 22  5 30.0000000  0  9G 6G30G23G15G17G10G18G22G26
  20256419.568   -16928741.52349 -13181696.59548  20256419.403    20256426.937
  23372834.608    11628927.37449   9066984.84846  23372834.853    23372851.771
  20579801.266   -22549662.93249 -17333420.23448  20579800.760    20579808.611
  21997799.702   -18251267.44649 -14199803.68046  21997799.081    21997810.451
  21307486.096   -22478722.56649 -17494278.90347  21307485.585    21307494.847
  22809276.118     2436211.71749   1916799.75046  22809275.257    22809285.150
  22356432.300   -13984308.02549 -10124107.08946  22356431.924    22356443.933
  23908050.139    -6700859.28549  -4840359.27045  23908049.592    23908064.683
  22456751.673   -12583580.01449  -9590520.16146  22456751.765    22456764.381
 02  4  3 22  6  0.0000000  0  9G 6G30G23G15G17G10G18G22G26
  20257609.333   -16922489.15049 -13176824.63148  20257609.169    20257616.690
  23392483.078    11732178.88949   9147440.15346  23392483.320    23392500.315
  20581679.130   -22539794.55349 -17325730.55848  20581678.660    20581686.483
  21986641.208   -18309905.19449 -14245495.28746  21986640.576    21986651.925
  21300223.489   -22516887.48549 -17524017.73347  21300222.983    21300232.242
  22827311.311     2530987.02849   1990650.58046  22827310.461    22827320.340
  22339343.136   -14074111.23549 -10194083.36646  22339342.765    22339354.677
  23899595.821    -6745287.65649  -4874978.71745  23899595.124    23899610.140
  22444621.596   -12647323.36049  -9640190.07546  22444621.642    22444634.184
 02  4  3 22  6 30.0000000  0  9G 6G30G23G15G17G10G18G22G26
  20258886.537   -16915777.51249 -13171594.79748  20258886.385    20258893.912
  23412145.032    11835501.44949   9227950.82246  23412145.318    23412162.348
  20583649.528   -22529440.02749 -17317662.07148  20583649.026    20583656.847
  21975515.580   -18368370.18849 -14291052.28846  21975514.928    21975526.282
  21292993.000   -22554883.77949 -17553625.16947  21292992.498    21293001.742
  22845387.614     2625978.26249   2064669.64746  22845386.788    22845396.672
  22322312.440   -14163607.13549 -10263820.18446  22322312.046    22322323.869
  23891238.056    -6789207.65249  -4909202.03445  23891237.371    23891252.392
  22432574.023   -12710632.62049  -9689521.74046  22432574.123    22432586.601
 02  4  3 22  7  0.0000000  0  9G 6G30G23G15G17G10G18G22G26
  20260251.250   -16908605.81449 -13166006.47748  20260251.090    20260258.641
  23431819.951    11938891.93049   9308514.40346  23431820.188    23431837.309
  20585712.173   -22518600.67749 -17309215.79648  20585711.678    20585719.496
  21964422.752   -18426662.70349 -14336474.88646  21964422.097    21964433.441
  21285794.496   -22592711.85849 -17583101.52847  21285794.001    21285803.244
  22863504.459     2721182.52149   2138854.71246  22863503.636    22863513.525
  22305340.510   -14252794.01049 -10333316.20546  22305340.135    22305351.901
  23882977.373    -6832618.15449  -4943028.33845  23882976.619    23882991.516
  22420609.676   -12773504.81149  -9738512.84046  22420609.765    22420622.152
 02  4  3 22  7 30.0000000  0  9G 6G30G23G15G17G10G18G22G26
  20261703.351   -16900974.86749 -13160060.30248  20261703.205    20261710.744
  23451506.942    12042345.97149   9389127.52246  23451507.178    23451524.307
  20587866.563   -22507279.14449 -17300393.79848  20587866.077    20587873.883
  21953362.524   -18484784.13549 -14381764.18046  21953361.854    21953373.159
  21278627.714   -22630373.23049 -17612447.98847  21278627.203    21278636.451
  22881661.022     2816595.55549   2213202.46146  22881660.196    22881670.108
  22288427.476   -14341671.58249 -10402571.21346  22288427.103    22288438.809
  23874813.541    -6875519.58849  -4976457.96945  23874812.711    23874827.668
  22408728.768   -12835938.40649  -9787162.16946  22408728.900    22408741.193
 02  4  3 22  8  0.0000000  0  9G 6G30G23G15G17G10G18G22G26
  20263243.272   -16892882.68649 -13153754.72448  20263243.119    20263250.663
  23471205.659    12145861.70949   9469788.71245  23471205.912    23471223.042
  20590112.738   -22495475.38049 -17291196.03648  20590112.232    20590120.052
  21942335.006   -18542733.50549 -14426919.40546  21942334.318    21942345.611
  21271492.835   -22667866.92349 -17641663.78547  21271492.332    21271501.598
  22899857.061     2912215.96749   2287711.79846  22899856.210    22899866.126
  22271573.849   -14430236.98949 -10471582.98146  22271573.471    22271585.149
  23866746.971    -6917909.57349  -5009489.08345  23866746.106    23866761.096
  22396932.261   -12897928.99849  -9835466.30046  22396932.356    22396944.490
 02  4  3 22  8 30.0000000  0  9G 6G30G23G15G17G10G18G22G26
  20264871.212   -16884327.74249 -13147088.55348  20264871.062    20264878.592
  23490915.751    12249437.15049   9550496.40445  23490916.017    23490933.194
  20592450.532   -22483189.96949 -17281622.96848  20592450.034    20592457.857
  21931340.406   -18600509.84349 -14471939.79946  21931339.740    21931351.001
  21264389.926   -22705192.48949 -17670748.57747  21264389.420    21264398.715
  22918092.155     3008041.67849   2362381.10346  22918091.306    22918101.241
  22254780.033   -14518487.92749 -10540349.71146  22254779.677    22254791.330
  23858778.189    -6959786.21249  -5042120.17545  23858777.153    23858792.188
  22385220.697   -12959472.98749  -9883422.43746  22385220.764    22385232.869
 02  4  3 22  9  0.0000000  0  9G 6G30G23G15G17G10G18G22G26
  20266587.027   -16875311.14349 -13140062.64248  20266586.874    20266594.421
  23510636.254    12353067.18149   9631246.64745  23510636.514    23510653.775
  20594879.401   -22470426.14949 -17271677.10948  20594878.912    20594886.729
  21920378.349   -18658115.23549 -14516826.97846  21920377.679    21920388.897
  21257318.613   -22742352.22949 -17699704.15047  21257318.105    21257327.392
  22936365.452     3104068.05449   2437206.78346  22936364.595    22936374.509
  22238046.026   -14606424.81549 -10608871.72746  22238045.642    22238057.249
  23850906.700    -7001150.47749  -5074352.01545  23850905.652    23850920.743
  22373594.239   -13020569.48549  -9931029.89746  22373594.333    22373606.346
 02  4  3 22  9 30.0000000  0  9G 6G30G23G15G17G10G18G22G26
  20268391.141   -16865830.51549 -13132675.15348  20268390.995    20268398.543
  23530366.904    12456750.65149   9712038.53545  23530367.174    23530384.525
  20597399.353   -22457183.53049 -17261358.16048  20597398.848    20597406.654
  21909449.118   -18715548.02349 -14561579.67246  21909448.465    21909459.661
  21250279.206   -22779344.31949 -17728529.09347  21250278.688    21250287.964
  22954676.711     3200294.18549   2512188.10946  22954675.848    22954685.806
  22221372.446   -14694044.29449 -10677146.41446  22221372.054    22221383.597
  23843133.290    -7041999.72749  -5106182.54945  23843132.313    23843147.382
  22362053.958   -13081213.65149  -9978284.86646  22362054.022    22362065.948
 02  4  3 22 10  0.0000000  0  9G 6G30G23G15G17G10G18G22G26
  20270283.910   -16855884.02549 -13124924.65748  20270283.765    20270291.332
  23550107.337    12560485.71249   9792870.60045  23550107.629    23550125.091
  20600010.376   -22443462.39549 -17250666.34648  20600009.870    20600017.671
  21898552.925   -18772807.23949 -14606197.12046  21898552.298    21898563.476
  21243271.828   -22816168.11949 -17757222.90047  21243271.319    21243280.574
  22973025.667     3296718.48849   2587323.85446  22973024.836    22973034.837
  22204759.821   -14781343.42349 -10745171.48246  22204759.436    22204770.901
  23835458.232    -7082331.79349  -5137610.08245  23835457.296    23835472.373
  22350600.299   -13141401.62849 -10025184.36146  22350600.452    22350612.361
 02  4  3 22 10 30.0000000  0  9G 6G30G23G15G17G10G18G22G26
  20272264.894   -16845473.94649 -13116812.91948  20272264.753    20272272.314
  23569856.468    12664266.41849   9873738.23045  23569856.747    23569874.381
  20602711.687   -22429266.96349 -17239604.94648  20602711.190    20602718.973
  21887689.222   -18829895.76549 -14650681.55246  21887688.599    21887699.758
  21236295.874   -22852826.61449 -17785787.89847  21236295.369    21236304.597
  22991411.230     3393335.21649   2662609.54046  22991410.427    22991420.474
  22188207.898   -14868323.40349 -10812947.85946  22188207.524    22188218.948
  23827881.183    -7122148.60349  -5168636.12345  23827880.382    23827895.369
  22339233.598   -13201133.18149 -10071728.21146  22339233.750    22339245.587
 02  4  3 22 11  0.0000000  0  9G 6G30G23G15G17G10G18G22G26
  20274334.728   -16834596.93549 -13108337.34648  20274334.580    20274342.155
  23589614.273    12768092.61649   9954641.31045  23589614.519    23589632.328
  20605503.462   -22414595.93849 -17228172.96348  20605502.957    20605510.737
  21876858.471   -18886811.20549 -14695031.12446  21876857.847    21876868.981
  21229351.884   -22889317.31249 -17814222.15047  21229351.386    21229360.590
  23009833.396     3490144.23249   2738045.05446  23009832.604    23009842.700
  22171717.491   -14954980.15949 -10880472.38146  22171717.120    22171728.503
  23820402.931    -7161446.57649  -5199257.87545  23820402.179    23820417.142
  22327954.778   -13260402.92449 -10117912.22946  22327954.939    22327966.713
 02  4  3 22 11 30.0000000  0  9G 6G30G23G15G17G10G18G22G26
  20276493.459   -16823252.74949 -13099497.73948  20276493.316    20276500.905
  23609380.059    12871960.72849  10035577.02945  23609380.316    23609398.241
  20608385.415   -22399451.03449 -17216371.71848  20608384.912    20608392.681
  21866060.621   -18943553.79749 -14739246.00946  21866059.982    21866071.096
  21222439.672   -22925641.03149 -17842526.28847  21222439.181    21222448.329
  23028291.587     3587142.56949   2813628.09346  23028290.786    23028300.963
  22155288.789   -15041312.62749 -10947744.21946  22155288.413    22155299.751
  23813023.639    -7200225.05749  -5229474.81745  23813022.917    23813037.758
  22316764.418   -13319208.34349 -10163734.43546  22316764.506    22316776.235
 02  4  3 22 12  0.0000000  0  9G 6G30G23G15G17G10G18G22G26
  20278741.127   -16811441.26149 -13090294.00348  20278740.980    20278748.581
  23629153.209    12975867.54549  10116542.90845  23629153.477    23629171.517
  20611357.184   -22383834.23049 -17204202.76248  20611356.675    20611364.440
  21855295.592   -19000123.97049 -14783326.54046  21855294.974    21855306.004
  21215559.110   -22961798.38849 -17870700.79347  21215558.614    21215567.739
  23046785.229     3684327.24649   2889356.33046  23046784.443    23046794.683
  22138922.052   -15127319.56749 -11014762.39146  22138921.654    22138932.953
  23805743.193    -7238483.72249  -5259286.70045  23805742.477    23805757.346
  22305662.757   -13377546.94949 -10209192.86746  22305662.852    22305674.516
 02  4  3 22 12 30.0000000  0  9G 6G30G23G15G17G10G18G22G26
  20281077.820   -16799161.86949 -13080725.66848  20281077.682    20281085.281
  23648933.184    13079810.09149  10197536.62145  23648933.513    23648951.538
  20614418.413   -22367747.04849 -17191667.28048  20614417.935    20614425.705
  21844563.325   -19056521.96349 -14827272.90547  21844562.704    21844573.677
  21208710.212   -22997789.50949 -17898745.76547  21208709.726    21208718.813
  23065313.782     3781695.29349   2965227.45446  23065312.986    23065323.272
  22122617.561   -15212999.38049 -11081525.66746  22122617.161    22122628.392
  23798561.939    -7276221.70649  -5288692.86045  23798561.179    23798576.065
  22294650.519   -13435415.89849 -10254285.35746  22294650.635    22294662.228
 02  4  3 22 13  0.0000000  0  9G 6G30G23G15G17G10G18G22G26
  20283503.387   -16786415.49649 -13070793.44248  20283503.233    20283510.843
  23668719.142    13183783.83249  10278554.63745  23668719.396    23668737.588
  20617568.653   -22351192.38549 -17178767.51848  20617568.165    20617575.927
  21833863.528   -19112749.36449 -14871086.33847  21833862.911    21833873.847
  21201892.590   -23033616.13249 -17926662.55247  21201892.106    21201901.153
  23083876.439     3879242.63149   3041238.29046  23083875.615    23083885.998
  22106375.302   -15298352.16149 -11148034.11346  22106374.885    22106386.105
  23791479.532    -7313439.74149  -5317693.86445  23791478.772    23791493.619
  22283727.829   -13492814.09149 -10299011.03846  22283727.957    22283739.477
 02  4  3 22 13 30.0000000  0  9G 6G30G23G15G17G10G18G22G26
  20286018.922   -16773196.36049 -13060492.83448  20286018.781    20286026.372
  23688511.415    13287791.01449  10359598.71645  23688511.634    23688529.932
  20620808.534   -22334166.49649 -17165500.57448  20620808.052    20620815.832
  21823197.155   -19168801.10249 -14914762.89447  21823196.546    21823207.471
  21195107.214   -23069273.36949 -17954447.35647  21195106.733    21195115.741
  23102473.724     3976971.75849   3117390.78346  23102472.891    23102483.335
  22090196.534   -15383371.26249 -11214282.54546  22090196.136    22090207.299
  23784497.275    -7350131.79249  -5346285.00545  23784496.436    23784511.301
  22272896.238   -13549733.49449 -10343363.64146  22272896.365    22272907.887
 02  4  3 22 14  0.0000000  0  9G 6G30G23G15G17G10G18G22G26
  20288623.691   -16759508.28949 -13049826.82048  20288623.548    20288631.146
  23708308.581    13391824.23949  10440663.08045  23708308.809    23708327.256
  20624136.993   -22316675.28949 -17151871.04048  20624136.518    20624144.310
  21812563.381   -19224681.57149 -14958305.98647  21812562.757    21812573.680
  21188353.167   -23104765.93849 -17982103.84247  21188352.669    21188361.659
  23121104.218     4074875.26849   3193679.14746  23121103.383    23121113.844
  22074080.757   -15468059.40049 -11280273.08547  22074080.372    22074091.464
  23777614.282    -7386301.38749  -5374469.04645  23777613.541    23777628.400
  22262155.534   -13606175.66449 -10387344.36546  22262155.651    22262167.098
 02  4  3 22 14 30.0000000  0 10G 6G30G23G15G17G10G18G22G29G26
  20291317.155   -16745354.23649 -13038797.70948  20291317.013    20291324.598
  23728109.501    13495877.24649  10521742.85045  23728109.720    23728128.272
  20627552.990   -22298723.90849 -17137882.93348  20627552.502    20627560.321
  21801961.516   -19280394.34349 -15001718.40647  21801960.877    21801971.789
  21181629.777   -23140097.42149 -18009634.80847  21181629.293    21181638.263
  23139766.768     4172947.20049   3270098.75146  23139765.923    23139776.399
  22058027.568   -15552418.70249 -11346007.39247  22058027.176    22058038.220
  23770830.491    -7421951.23649  -5402248.09245  23770829.657    23770844.421
  24458037.650    -4087916.87549  -2957996.21045  24458037.834    24458065.712
  22251505.399   -13662141.40249 -10430953.83346  22251505.514    22251516.963
 02  4  3 22 15  0.0000000  0 10G 6G30G23G15G17G10G18G22G29G26
  20294099.830   -16730731.35749 -13027403.27448  20294099.687    20294107.248
  23747914.063    13599949.11649  10602837.30545  23747914.340    23747933.042
  20631056.739   -22280311.44649 -17123535.54047  20631056.247    20631064.068
  21791391.912   -19335937.38549 -15044998.57347  21791391.274    21791402.179
  21174937.416   -23175265.71249 -18037038.61147  21174936.936    21174945.871
  23158461.358     4271187.38249   3346649.45546  23158460.521    23158470.930
  22042037.689   -15636445.20449 -11411482.37547  22042037.305    22042048.315
  23764146.160    -7457078.48949  -5429619.91145  23764145.105    23764159.925
  24439221.953    -4186791.24649  -3035040.43644  24439221.851    24439249.669
  22240947.000   -13717625.55949 -10474188.06446  22240947.113    22240958.490
 02  4  3 22 15 30.0000000  0 10G 6G30G23G15G17G10G18G22G29G26
  20296972.988   -16715632.96749 -13015638.31848  20296972.848    20296980.373
  23767722.887    13704043.41749  10683949.24245  23767723.177    23767742.027
  20634649.118   -22261433.26249 -17108825.24747  20634648.640    20634656.460
  21780855.821   -19391304.31249 -15088141.51247  21780855.208    21780866.076
  21168277.264   -23210264.83549 -18064310.60047  21168276.777    21168285.706
  23177188.564     4369599.21849   3423333.92146  23177187.747    23177198.177
  22026112.641   -15720131.16449 -11476692.00247  22026112.250    22026123.176
  23757562.382    -7491675.94449  -5456578.90545  23757561.452    23757576.175
  24420394.346    -4285727.81549  -3112133.11145  24420394.084    24420421.928
  22230481.851   -13772619.18149 -10517040.05646  22230482.028    22230493.356
 02  4  3 22 16  0.0000000  0 10G 6G30G23G15G17G10G18G22G29G26
  20299936.621   -16700059.21449 -13003502.94748  20299936.486    20299943.992
  23787535.338    13808156.55349  10765075.84445  23787535.581    23787554.586
  20638329.699   -22242091.50949 -17093753.73147  20638329.222    20638337.044
  21770353.141   -19446495.87849 -15131147.80247  21770352.539    21770363.358
  21161649.167   -23245095.58849 -18091451.38547  21161648.686    21161657.600
  23195947.859     4468179.48449   3500149.62346  23195947.020    23195957.468
  22010252.471   -15803476.06349 -11541635.86847  22010252.060    22010262.943
  23751079.248    -7525743.70949  -5483125.15045  23751078.461    23751093.163
  24401555.191    -4384724.73549  -3189272.83045  24401555.206    24401582.539
  22220110.366   -13827120.32649 -10559508.29046  22220110.578    22220121.933
 02  4  3 22 16 30.0000000  0 10G 6G30G23G15G17G10G18G22G29G26
  20302990.340   -16684011.93649 -12990998.58648  20302990.202    20302997.697
  23807350.351    13912283.18249  10846212.95045  23807350.633    23807369.699
  20642097.814   -22222290.00949 -17078323.97247  20642097.333    20642105.141
  21759883.383   -19501514.38749 -15174019.24347  21759882.767    21759893.563
  21155052.596   -23279760.55649 -18118462.99147  21155052.092    21155061.011
  23214738.213     4566923.23749   3577092.72946  23214737.432    23214747.903
  21994457.030   -15886480.64549 -11606314.54847  21994456.625    21994467.481
  23744696.734    -7559283.38749  -5509259.90545  23744696.019    23744710.607
  24382704.745    -4483781.90149  -3266459.49345  24382704.646    24382732.138
  22209832.818   -13881128.56049 -10601592.44246  22209833.003    22209844.318
 02  4  3 22 17  0.0000000  0 10G 6G30G23G15G17G10G18G22G29G26
  20306134.202   -16667490.97849 -12978125.12848  20306134.056    20306141.552
  23827167.326    14016420.09649  10927358.08645  23827167.634    23827186.799
  20645953.030   -22202030.75049 -17062537.51747  20645952.544    20645960.333
  21749446.432   -19556360.38649 -15216756.25847  21749445.812    21749456.573
  21148487.469   -23314260.28449 -18145345.84047  21148486.967    21148495.876
  23233559.118     4665827.28649   3654160.73746  23233558.342    23233568.832
  21978726.562   -15969143.80049 -11670727.18147  21978726.175    21978736.987
  23738414.779    -7592294.62349  -5534982.86845  23738414.168    23738428.741
  24363843.248    -4582896.98849  -3343691.29945  24363843.094    24363870.457
  22199649.473   -13934641.53549 -10643290.68946  22199649.653    22199660.933
 02  4  3 22 17 30.0000000  0 11G21G 6G30G23G15G17G10G18G22G29G26
  24865131.400    -2466276.70349  -1699048.76845  24865130.289    24865157.510
  20309368.370   -16650495.48449 -12964881.90548  20309368.227    20309375.697
  23846985.892    14120565.01749  11008509.43645  23846986.164    23847005.465
  20649895.159   -22181314.65549 -17046395.08947  20649894.675    20649902.429
  21739042.449   -19611033.12149 -15259358.26647  21739041.825    21739052.591
  21141953.881   -23348594.29549 -18172099.56547  21141953.400    21141962.289
  23252410.069     4764889.63649   3731352.08746  23252409.302    23252419.848
  21963061.493   -16051463.40949 -11734872.12147  21963061.080    21963071.874
  23732233.723    -7624776.02449  -5560292.97745  23732233.107    23732247.659
  24344971.345    -4682066.74749  -3420965.72845  24344971.298    24344998.432
  22189561.057   -13987655.91749 -10684600.43346  22189561.207    22189572.435
 02  4  3 22 18  0.0000000  0 11G21G 6G30G23G15G17G10G18G22G29G26
  24847225.991    -2560368.35249  -1772366.39045  24847225.154    24847251.995
  20312692.095   -16633029.30949 -12951271.91548  20312691.946    20312699.396
  23866804.568    14224710.53149  11089661.25345  23866804.834    23866824.174
  20653923.058   -22160147.85649 -17029901.46247  20653922.567    20653930.319
  21728670.598   -19665537.20749 -15301828.86347  21728669.975    21728680.673
  21135450.948   -23382767.18649 -18198727.73447  21135450.452    21135459.365
  23271289.871     4864103.27349   3808661.33646  23271289.101    23271299.575
  21947461.189   -16133442.49449 -11798751.71647  21947460.779    21947471.532
  23726152.780    -7656731.59949  -5585193.36745  23726152.107    23726166.597
  24326088.720    -4781293.12949  -3498284.28045  24326088.730    24326115.676
  22179567.129   -14040173.60949 -10725523.12946  22179567.326    22179578.472
 02  4  3 22 18 30.0000000  0 11G21G 6G30G23G15G17G10G18G22G29G26
  24829347.052    -2654320.56349  -1845575.33245  24829346.392    24829373.022
  20316106.950   -16615084.17149 -12937288.71448  20316106.802    20316114.263
  23886624.308    14328861.86749  11170817.60545  23886624.533    23886644.024
  20658037.960   -22138523.87149 -17013051.58447  20658037.468    20658045.198
  21718332.299   -19719864.82849 -15344161.95147  21718331.682    21718342.346
  21128980.114   -23416771.28749 -18225224.37847  21128979.612    21128988.534
  23290199.432     4963473.36949   3886092.48446  23290198.651    23290209.180
  21931927.503   -16215071.74049 -11862358.71647  21931927.093    21931937.798
  23720173.561    -7688152.66549  -5609677.24245  23720172.657    23720187.339
  24307197.262    -4880565.62049  -3575638.75745  24307197.309    24307224.028
  22169669.805   -14092183.96949 -10766050.51046  22169669.948    22169681.060
 02  4  3 22 19  0.0000000  0 11G21G 6G30G23G15G17G10G18G22G29G26
  24811494.304    -2748134.86449  -1918676.80945  24811493.722    24811520.243
  20319612.430   -16596662.87149 -12922934.47748  20319612.275    20319619.746
  23906443.945    14433012.62749  11251973.49745  23906444.132    23906463.750
  20662238.901   -22116447.69749 -16995849.35247  20662238.410    20662246.144
  21708026.966   -19774019.19649 -15386360.03347  21708026.346    21708036.985
  21122540.738   -23450610.06149 -18251592.19247  21122540.240    21122549.163
  23309137.650     5062994.16149   3963641.07146  23309136.920    23309147.443
  21916460.009   -16296353.13549 -11925694.66047  21916459.601    21916470.261
  23714295.444    -7719041.95449  -5633746.75845  23714294.585    23714309.195
  24288296.799    -4979885.00049  -3653029.78145  24288297.023    24288323.436
  22159868.874   -14143687.71049 -10806183.12946  22159868.992    22159880.045
 02  4  3 22 19 30.0000000  0 11G21G 6G30G23G15G17G10G18G22G29G26
  24793668.253    -2841809.66849  -1991669.56045  24793667.822    24793694.048
  20323208.697   -16577764.43649 -12908208.44248  20323208.545    20323216.003
  23926263.104    14537160.73549  11333127.33445  23926263.252    23926283.011
  20666525.709   -22093920.17149 -16978295.42047  20666525.212    20666532.955
  21697754.726   -19827999.70549 -15428422.65247  21697754.108    21697764.701
  21116132.987   -23484282.88249 -18277830.69547  21116132.486    21116141.411
  23328104.247     5162663.94649   4041305.75646  23328103.520    23328114.058
  21901059.199   -16377284.12949 -11988757.56847  21901058.783    21901069.374
  23708518.743    -7749398.26449  -5657400.96845  23708517.885    23708532.548
  24269388.274    -5079247.77949  -3730454.62745  24269388.294    24269414.551
  22150164.951   -14194681.47449 -10845918.38646  22150165.070    22150176.065
 02  4  3 22 20  0.0000000  0 11G21G 6G30G23G15G17G10G18G22G29G26
  24775868.827    -2935343.99949  -2064552.84445  24775868.235    24775894.465
  20326895.646   -16558389.36649 -12893110.99948  20326895.503    20326902.983
  23946080.934    14641302.46449  11414276.18845  23946081.192    23946100.940
  20670897.948   -22070943.92849 -16960391.83147  20670897.455    20670905.179
  21687515.378   -19881807.40149 -15470350.60147  21687514.746    21687525.291
  21109756.593   -23517790.87749 -18303940.76147  21109756.080    21109764.991
  23347098.509     5262479.19549   4119083.78046  23347097.741    23347108.369
  21885725.098   -16457864.56649 -12051547.31347  21885724.698    21885735.224
  23702843.547    -7779221.90949  -5680640.11945  23702842.673    23702857.245
  24250471.682    -5178652.33249  -3807912.01445  24250471.629    24250497.856
  22140558.423   -14245163.63549 -10885254.96046  22140558.540    22140569.460
 02  4  3 22 20 30.0000000  0 11G21G 6G30G23G15G17G10G18G22G29G26
  24758096.216    -3028737.43349  -2137326.32745  24758095.528    24758121.783
  20330673.282   -16538537.81949 -12877642.28548  20330673.128    20330680.623
  23965897.005    14745434.46549  11495417.46045  23965897.214    23965917.037
  20675355.135   -22047521.18049 -16942140.32347  20675354.640    20675362.345
  21677308.840   -19935442.69549 -15512144.21747  21677308.202    21677318.699
  21103411.406   -23551134.69949 -18329922.90747  21103410.903    21103419.797
  23366119.850     5362436.54849   4196972.54546  23366119.043    23366129.689
  21870457.871   -16538093.63649 -12114063.27047  21870457.488    21870467.952
  23697269.616    -7808512.88149  -5703464.18845  23697268.693    23697283.316
  24231547.514    -5278096.72249  -3885400.44545  24231547.430    24231573.506
  22131049.583   -14295132.07949 -10924191.22646  22131049.723    22131060.636
 02  4  3 22 21  0.0000000  0 11G21G 6G30G23G15G17G10G18G22G29G26
  24740351.384    -3121985.03449  -2209986.14945  24740350.822    24740376.658
  20334542.333   -16518205.78349 -12861799.16548  20334542.189    20334549.672
  23985711.305    14849557.40749  11576551.67845  23985711.517    23985731.534
  20679897.701   -22023649.93949 -16923539.33847  20679897.205    20679904.893
  21667135.791   -19988902.00449 -15553800.69347  21667135.145    21667145.588
  21097098.123   -23584311.01949 -18355774.52847  21097097.623    21097106.508
  23385168.460     5462537.40249   4274973.10546  23385167.695    23385178.369
  21855258.450   -16617966.39649 -12176301.58747  21855258.050    21855268.436
  23691797.699    -7837267.17449  -5725870.08245  23691796.870    23691811.465
  24212616.989    -5377574.72549  -3962915.06845  24212616.875    24212642.818
  22121639.667   -14344580.80349 -10962722.52346  22121639.828    22121650.710
 02  4  3 22 21 30.0000000  0 11G21G 6G30G23G15G17G10G18G22G29G26
  24722633.644    -3215089.81049  -2282534.67845  24722632.959    24722658.784
  20338502.086   -16497397.26749 -12845584.75548  20338501.938    20338509.434
  24005522.595    14953664.04649  11657673.19645  24005522.762    24005542.858
  20684524.393   -21999336.49249 -16904593.77247  20684523.902    20684531.562
  21656995.362   -20042189.83849 -15595323.55747  21656994.715    21657005.082
  21090815.870   -23617324.18749 -18381499.01647  21090815.383    21090824.244
  23404243.044     5562774.54949   4353079.89646  23404242.260    23404253.002
  21840126.306   -16697485.80749 -12238264.56747  21840125.886    21840136.212
  23686427.258    -7865488.66149  -5747860.79945  23686426.419    23686441.057
  24193679.713    -5477087.92749  -4040457.10645  24193679.575    24193705.244
  22112328.358   -14393511.66549 -11000850.28946  22112328.463    22112339.288
 02  4  3 22 22  0.0000000  0 11G21G 6G30G23G15G17G10G18G22G29G26
  24704943.797    -3308047.96349  -2354968.95145  24704943.106    24704969.024
  20342552.906   -16476109.93249 -12828997.25448  20342552.764    20342560.300
  24025330.578    15057753.69249  11738781.46245  24025330.818    24025350.976
  20689235.327   -21974580.14649 -16885303.09347  20689234.841    20689242.492
  21646887.944   -20095304.20949 -15636711.25447  21646887.282    21646897.614
  21084565.041   -23650172.38949 -18407094.96147  21084564.550    21084573.387
  23423343.502     5663147.52949   4431292.51246  23423342.687    23423353.429
  21825062.019   -16776648.35849 -12299949.47847  21825061.604    21825071.854
  23681158.679    -7893174.78949  -5769434.36045  23681157.836    23681172.464
  24174736.639    -5576631.68549  -4118022.96645  24174736.590    24174761.992
  22103116.393   -14441920.10749 -11038570.99246  22103116.501    22103127.305
 02  4  3 22 22 30.0000000  0 11G21G 6G30G23G15G17G10G18G22G29G26
  24687282.148    -3400857.83149  -2427287.66045  24687281.612    24687307.260
  20346695.089   -16454342.59249 -12812035.71548  20346694.936    20346702.526
  24045135.032    15161824.40749  11819874.98045  24045135.228    24045155.480
  20694030.381   -21949381.79849 -16865667.99947  20694029.891    20694037.547
  21636813.742   -20148244.02449 -15677962.94047  21636813.076    21636823.365
  21078345.741   -23682854.83049 -18432561.74247  21078345.245    21078354.052
  23442469.431     5763654.56549   4509609.58846  23442468.647    23442479.403
  21810066.075   -16855451.78449 -12361354.54647  21810065.656    21810075.851
  23675992.377    -7920324.07749  -5790589.60245  23675991.452    23676006.073
  24155788.406    -5676202.45149  -4195609.85045  24155788.307    24155813.574
  22094004.458   -14489802.50249 -11075881.78946  22094004.579    22094015.373
 02  4  3 22 23  0.0000000  0 11G21G 6G30G23G15G17G10G18G22G29G26
  24669648.488    -3493520.37549  -2499491.55945  24669648.119    24669673.402
  20350928.181   -16432097.58549 -12794701.96848  20350928.046    20350935.642
  24064934.807    15265870.82749  11900949.54945  24064935.041    24064955.494
  20698908.769   -21923745.53249 -16845691.66947  20698908.284    20698915.946
  21626772.236   -20201011.91449 -15719080.65547  21626771.588    21626781.845
  21072157.540   -23715373.98249 -18457901.28047  21072157.059    21072165.820
  23461620.051     5864291.04449   4588027.53346  23461619.219    23461629.950
  21795138.241   -16933897.35549 -12422480.77347  21795137.820    21795147.980
  23670927.572    -7946938.61649  -5811328.16145  23670926.869    23670941.549
  24136835.140    -5775799.97649  -4273217.58245  24136835.068    24136859.986
  22084992.708   -14537159.11149 -11112782.89146  22084992.808    22085003.607
 02  4  3 22 23 30.0000000  0 11G21G 6G30G23G15G17G10G18G22G29G26
  24652044.017    -3586029.61249  -2571576.01145  24652043.676    24652068.878
  20355253.068   -16409370.21049 -12776992.35348  20355252.932    20355260.555
  24084730.280    15369894.60949  11982006.49545  24084730.507    24084751.029
  20703871.003   -21897668.71249 -16825372.05347  20703870.499    20703878.183
  21616764.322   -20253603.47249 -15760060.96947  21616763.646    21616773.875
  21066001.141   -23747725.87649 -18483110.48947  21066000.641    21066009.381
  23480795.488     5965058.41849   4666547.45845  23480794.734    23480805.422
  21780279.541   -17011979.41349 -12483323.74547  21780279.137    21780289.247
  23665965.643    -7973013.84749  -5831646.46645  23665964.893    23665979.582
  24117877.986    -5875417.46949  -4350840.86345  24117877.832    24117902.614
  22076082.322   -14583983.02649 -11149268.90146  22076082.416    22076093.133
 02  4  3 22 24  0.0000000  0 11G21G 6G30G23G15G17G10G18G22G29G26
  24634467.854    -3678390.53649  -2643544.88445  24634467.534    24634492.661
  20359668.655   -16386166.22149 -12758911.34848  20359668.525    20359676.152
  24104519.746    15473887.00749  12063038.96345  24104519.927    24104540.660
  20708915.592   -21871159.01949 -16804715.12847  20708915.096    20708922.789
  21606788.757   -20306024.73849 -15800908.58647  21606788.112    21606798.287
  21059875.443   -23779916.47649 -18508194.01347  21059874.952    21059883.655
  23499994.306     6065948.52049   4745163.03946  23499993.543    23500004.249
  21765489.165   -17089702.54849 -12543887.03747  21765488.776    21765498.838
  23661105.250    -7998555.15749  -5851548.74645  23661104.578    23661119.156
  24098916.446    -5975058.14649  -4428482.20045  24098916.329    24098940.907
  22067272.622   -14630277.74549 -11185342.57246  22067272.735    22067283.370
 02  4  3 22 24 30.0000000  0 11G21G 6G30G23G15G17G10G18G22G29G26
  24616921.128    -3770596.82449  -2715393.26745  24616921.001    24616945.737
  20364176.026   -16362479.95849 -12740454.54748  20364175.894    20364183.519
  24124303.734    15577850.46049  12144048.86945  24124304.061    24124324.747
  20714043.240   -21844212.99149 -16783718.20947  20714042.747    20714050.432
  21596846.674   -20358270.32049 -15841619.30947  21596846.055    21596856.161
  21053781.428   -23811940.37349 -18533147.64647  21053780.951    21053789.641
  23519217.079     6166964.39949   4823876.61345  23519216.255    23519226.968
  21750768.359   -17167060.17649 -12604165.52147  21750767.967    21750777.979
  23656347.673    -8023556.96549  -5871030.62745  23656346.842    23656361.375
  24079952.030    -6074713.87549  -4506135.23445  24079951.787    24079976.369
  22058565.079   -14676035.55649 -11220997.86046  22058565.163    22058575.793
 02  4  3 22 25  0.0000000  0 11G21G 6G30G23G15G17G10G18G22G29G26
  24599403.779    -3862648.45849  -2787121.12845  24599403.619    24599428.232
  20368774.855   -16338312.95649 -12721623.14148  20368774.721    20368782.344
  24144081.419    15681780.60649  12225032.81445  24144081.620    24144102.637
  20719253.271   -21816834.04649 -16762383.94647  20719252.770    20719260.466
  21586937.671   -20410342.08449 -15882194.58647  21586937.045    21586947.120
  21047718.781   -23843799.45449 -18557972.84447  21047718.298    21047726.997
  23538462.894     6268101.45949   4902684.61645  23538462.031    23538472.795
  21736117.019   -17244052.64249 -12664159.45647  21736116.610    21736126.592
  23651692.359    -8048020.53249  -5890093.11845  23651691.564    23651706.067
  24060984.835    -6174383.73749  -4583799.30645  24060984.579    24061009.027
  22049959.797   -14721255.87049 -11256234.32946  22049959.881    22049970.482
 02  4  3 22 25 30.0000000  0 11G21G 6G30G23G15G17G10G18G22G29G26
  24581915.963    -3954545.22249  -2858728.33745  24581915.685    24581940.261
  20373465.065   -16313665.72849 -12702417.54048  20373464.954    20373472.590
  24163852.116    15785673.89549  12305988.03845  24163852.242    24163873.448
  20724545.192   -21789024.64449 -16740714.26747  20724544.706    20724552.392
  21577061.649   -20462240.45849 -15922634.76147  21577061.032    21577071.066
  21041687.312   -23875494.68049 -18582670.36747  21041686.833    21041695.550
  23557731.192     6369356.63349   4981584.65345  23557730.372    23557741.063
  21721535.247   -17320679.35449 -12723868.39347  21721534.865    21721544.836
  23647139.439    -8071946.32249  -5908736.55245  23647138.637    23647153.154
  24042015.330    -6274065.89449  -4661472.92645  24042015.180    24042039.592
  22041457.147   -14765936.84549 -11291050.54046  22041457.267    22041467.812
 02  4  3 22 26  0.0000000  0 11G21G 6G30G23G15G17G10G18G22G29G26
  24564457.629    -4046286.44149  -2930214.34045  24564457.331    24564481.726
  20378246.541   -16288539.01249 -12682838.30848  20378246.414    20378254.075
  24183615.041    15889526.45949  12386911.52445  24183615.121    24183636.610
  20729918.543   -21760787.41349 -16718711.21447  20729918.056    20729925.734
  21567218.444   -20513966.55449 -15962940.69647  21567217.796    21567227.799
  21035686.890   -23907026.86049 -18607240.83747  21035686.417    21035695.141
  23577021.318     6470726.45549   5060574.03445  23577020.468    23577031.143
  21707023.203   -17396939.96049 -12783292.05847  21707022.811    21707032.782
  23642688.793    -8095334.93649  -5926961.41845  23642687.928    23642702.350
  24023043.832    -6373758.46449  -4739154.68445  24023043.765    24023067.885
  22033057.456   -14810077.14449 -11325445.45146  22033057.552    22033068.023
